Wetterdaten: Dienstag, 05.05.2026
Datum Zeit Temperatur Temp. +5 cm Temp. -10 cm Feuchte A. Luftdruck Regen Wind Richtung Richtung Zeit Sonne UV-I Solarstrahlg Taupunkt Windchill Windböen
05.05.2026 00:00 16,9 °C 15,0 °C 14,4 °C 74 % 1012,4 hPa 0,0 l/m² 4,3 km/h (1 Bft) NW 315 ° 0 min 0,0 UV-I 0 W/m² 12,2 °C 16,9 °C 6,4 km/h (2 Bft)
05.05.2026 00:02 16,9 °C 15,0 °C 14,4 °C 74 % 1012,4 hPa 0,0 l/m² 3,8 km/h (1 Bft) NW 326 ° 0 min 0,0 UV-I 0 W/m² 12,2 °C 16,9 °C 9,7 km/h (2 Bft)
05.05.2026 00:04 16,8 °C 15,0 °C 14,4 °C 74 % 1012,3 hPa 0,0 l/m² 9,5 km/h (2 Bft) N-NW 338 ° 0 min 0,0 UV-I 0 W/m² 12,1 °C 16,8 °C 16,1 km/h (3 Bft)
05.05.2026 00:06 16,8 °C 15,0 °C 14,4 °C 75 % 1012,2 hPa 0,0 l/m² 5,5 km/h (2 Bft) N-NO 15 ° 0 min 0,0 UV-I 0 W/m² 12,3 °C 16,8 °C 12,9 km/h (3 Bft)
05.05.2026 00:08 16,7 °C 15,0 °C 14,4 °C 75 % 1012,2 hPa 0,0 l/m² 8,3 km/h (2 Bft) N-NW 334 ° 0 min 0,0 UV-I 0 W/m² 12,2 °C 16,7 °C 14,5 km/h (3 Bft)
05.05.2026 00:10 16,7 °C 15,0 °C 14,4 °C 75 % 1012,2 hPa 0,0 l/m² 5,1 km/h (1 Bft) N 353 ° 0 min 0,0 UV-I 0 W/m² 12,2 °C 16,7 °C 9,7 km/h (2 Bft)
05.05.2026 00:12 16,6 °C 15,0 °C 14,4 °C 75 % 1012,1 hPa 0,0 l/m² 7,3 km/h (2 Bft) N 356 ° 0 min 0,0 UV-I 0 W/m² 12,1 °C 16,6 °C 9,7 km/h (2 Bft)
05.05.2026 00:14 16,6 °C 15,0 °C 14,4 °C 76 % 1012,1 hPa 0,0 l/m² 7,3 km/h (2 Bft) NW 320 ° 0 min 0,0 UV-I 0 W/m² 12,3 °C 16,6 °C 12,9 km/h (3 Bft)
05.05.2026 00:16 16,5 °C 14,4 °C 13,9 °C 76 % 1012,0 hPa 0,0 l/m² 4,6 km/h (1 Bft) NW 321 ° 0 min 0,0 UV-I 0 W/m² 12,3 °C 16,5 °C 8,0 km/h (2 Bft)
05.05.2026 00:18 16,4 °C 14,4 °C 14,4 °C 76 % 1012,1 hPa 0,0 l/m² 2,5 km/h (1 Bft) W-NW 302 ° 0 min 0,0 UV-I 0 W/m² 12,2 °C 16,4 °C 6,4 km/h (2 Bft)
05.05.2026 00:20 16,3 °C 14,4 °C 14,4 °C 77 % 1012,1 hPa 0,0 l/m² 6,0 km/h (2 Bft) NW 321 ° 0 min 0,0 UV-I 0 W/m² 12,3 °C 16,3 °C 9,7 km/h (2 Bft)
05.05.2026 00:22 16,3 °C 14,4 °C 14,4 °C 77 % 1012,1 hPa 0,0 l/m² 3,8 km/h (1 Bft) W-NW 303 ° 0 min 0,0 UV-I 0 W/m² 12,3 °C 16,3 °C 8,0 km/h (2 Bft)
05.05.2026 00:24 16,3 °C 14,4 °C 14,4 °C 77 % 1012,1 hPa 0,0 l/m² 3,1 km/h (1 Bft) W-NW 296 ° 0 min 0,0 UV-I 0 W/m² 12,3 °C 16,3 °C 8,0 km/h (2 Bft)
05.05.2026 00:26 16,2 °C 14,4 °C 13,9 °C 77 % 1012,1 hPa 0,0 l/m² 2,8 km/h (1 Bft) W-NW 298 ° 0 min 0,0 UV-I 0 W/m² 12,2 °C 16,2 °C 6,4 km/h (2 Bft)
05.05.2026 00:28 16,2 °C 14,4 °C 14,4 °C 78 % 1012,1 hPa 0,0 l/m² 3,0 km/h (1 Bft) NW 308 ° 0 min 0,0 UV-I 0 W/m² 12,4 °C 16,2 °C 6,4 km/h (2 Bft)
05.05.2026 00:30 16,2 °C 14,4 °C 14,4 °C 78 % 1012,0 hPa 0,0 l/m² 2,4 km/h (1 Bft) NW 321 ° 0 min 0,0 UV-I 0 W/m² 12,4 °C 16,2 °C 4,8 km/h (1 Bft)
05.05.2026 00:32 16,1 °C 14,4 °C 13,9 °C 78 % 1012,0 hPa 0,0 l/m² 2,3 km/h (1 Bft) NW 319 ° 0 min 0,0 UV-I 0 W/m² 12,3 °C 16,1 °C 6,4 km/h (2 Bft)
05.05.2026 00:34 16,1 °C 14,4 °C 13,9 °C 78 % 1012,0 hPa 0,0 l/m² 4,8 km/h (1 Bft) NW 321 ° 0 min 0,0 UV-I 0 W/m² 12,3 °C 16,1 °C 8,0 km/h (2 Bft)
05.05.2026 00:36 16,1 °C 14,4 °C 14,4 °C 79 % 1012,1 hPa 0,0 l/m² 4,6 km/h (1 Bft) W-NW 289 ° 0 min 0,0 UV-I 0 W/m² 12,5 °C 16,1 °C 6,4 km/h (2 Bft)
05.05.2026 00:38 16,1 °C 14,4 °C 14,4 °C 79 % 1012,1 hPa 0,0 l/m² 5,7 km/h (2 Bft) W-NW 283 ° 0 min 0,0 UV-I 0 W/m² 12,5 °C 16,1 °C 8,0 km/h (2 Bft)
05.05.2026 00:40 16,0 °C 14,4 °C 14,4 °C 79 % 1012,1 hPa 0,0 l/m² 1,9 km/h (1 Bft) N-NW 335 ° 0 min 0,0 UV-I 0 W/m² 12,4 °C 16,0 °C 6,4 km/h (2 Bft)
05.05.2026 00:42 16,0 °C 14,4 °C 13,9 °C 79 % 1012,0 hPa 0,0 l/m² 2,2 km/h (1 Bft) N-NW 338 ° 0 min 0,0 UV-I 0 W/m² 12,4 °C 16,0 °C 4,8 km/h (1 Bft)
05.05.2026 00:44 15,9 °C 14,4 °C 13,9 °C 79 % 1011,9 hPa 0,0 l/m² 3,6 km/h (1 Bft) N-NW 344 ° 0 min 0,0 UV-I 0 W/m² 12,3 °C 15,9 °C 6,4 km/h (2 Bft)
05.05.2026 00:46 15,9 °C 14,4 °C 13,9 °C 79 % 1011,9 hPa 0,0 l/m² 2,9 km/h (1 Bft) N-NW 334 ° 0 min 0,0 UV-I 0 W/m² 12,3 °C 15,9 °C 6,4 km/h (2 Bft)
05.05.2026 00:48 15,9 °C 14,4 °C 13,9 °C 80 % 1012,0 hPa 0,0 l/m² 4,2 km/h (1 Bft) NW 321 ° 0 min 0,0 UV-I 0 W/m² 12,5 °C 15,9 °C 8,0 km/h (2 Bft)
05.05.2026 00:50 15,9 °C 14,4 °C 13,9 °C 80 % 1012,0 hPa 0,0 l/m² 3,6 km/h (1 Bft) NW 311 ° 0 min 0,0 UV-I 0 W/m² 12,5 °C 15,9 °C 4,8 km/h (1 Bft)
05.05.2026 00:52 15,9 °C 14,4 °C 14,4 °C 80 % 1011,9 hPa 0,0 l/m² 3,1 km/h (1 Bft) NW 317 ° 0 min 0,0 UV-I 0 W/m² 12,5 °C 15,9 °C 8,0 km/h (2 Bft)
05.05.2026 00:54 15,9 °C 14,4 °C 13,9 °C 80 % 1011,9 hPa 0,0 l/m² 1,6 km/h (1 Bft) NW 325 ° 0 min 0,0 UV-I 0 W/m² 12,5 °C 15,9 °C 6,4 km/h (2 Bft)
05.05.2026 00:56 15,9 °C 14,4 °C 13,9 °C 80 % 1011,9 hPa 0,0 l/m² 3,2 km/h (1 Bft) NW 325 ° 0 min 0,0 UV-I 0 W/m² 12,5 °C 15,9 °C 6,4 km/h (2 Bft)
05.05.2026 00:58 15,8 °C 13,9 °C 13,9 °C 80 % 1011,9 hPa 0,0 l/m² 2,0 km/h (1 Bft) NW 325 ° 0 min 0,0 UV-I 0 W/m² 12,4 °C 15,8 °C 4,8 km/h (1 Bft)
05.05.2026 01:00 15,8 °C 13,9 °C 14,4 °C 80 % 1011,8 hPa 0,0 l/m² 0,6 km/h (0 Bft) NW 325 ° 0 min 0,0 UV-I 0 W/m² 12,4 °C 15,8 °C 3,2 km/h (1 Bft)
05.05.2026 01:02 15,8 °C 13,9 °C 14,4 °C 80 % 1011,8 hPa 0,0 l/m² 1,4 km/h (1 Bft) NW 325 ° 0 min 0,0 UV-I 0 W/m² 12,4 °C 15,8 °C 3,2 km/h (1 Bft)
05.05.2026 01:04 15,8 °C 13,9 °C 13,9 °C 80 % 1011,8 hPa 0,0 l/m² 5,2 km/h (1 Bft) N 356 ° 0 min 0,0 UV-I 0 W/m² 12,4 °C 15,8 °C 8,0 km/h (2 Bft)
05.05.2026 01:06 15,8 °C 13,9 °C 14,4 °C 80 % 1011,8 hPa 0,0 l/m² 4,9 km/h (1 Bft) N-NW 346 ° 0 min 0,0 UV-I 0 W/m² 12,4 °C 15,8 °C 8,0 km/h (2 Bft)
05.05.2026 01:08 15,7 °C 13,9 °C 13,9 °C 81 % 1011,8 hPa 0,0 l/m² 3,9 km/h (1 Bft) NW 320 ° 0 min 0,0 UV-I 0 W/m² 12,4 °C 15,7 °C 4,8 km/h (1 Bft)
05.05.2026 01:10 15,7 °C 13,9 °C 14,4 °C 81 % 1011,7 hPa 0,0 l/m² 3,0 km/h (1 Bft) N-NW 339 ° 0 min 0,0 UV-I 0 W/m² 12,4 °C 15,7 °C 4,8 km/h (1 Bft)
05.05.2026 01:12 15,7 °C 13,9 °C 13,9 °C 81 % 1011,7 hPa 0,0 l/m² 3,1 km/h (1 Bft) N-NW 339 ° 0 min 0,0 UV-I 0 W/m² 12,4 °C 15,7 °C 6,4 km/h (2 Bft)
05.05.2026 01:14 15,7 °C 13,9 °C 13,9 °C 81 % 1011,7 hPa 0,0 l/m² 4,3 km/h (1 Bft) N 355 ° 0 min 0,0 UV-I 0 W/m² 12,4 °C 15,7 °C 6,4 km/h (2 Bft)
05.05.2026 01:16 15,7 °C 13,9 °C 13,9 °C 81 % 1011,6 hPa 0,0 l/m² 3,9 km/h (1 Bft) N-NW 338 ° 0 min 0,0 UV-I 0 W/m² 12,4 °C 15,7 °C 8,0 km/h (2 Bft)
05.05.2026 01:18 15,7 °C 13,9 °C 13,9 °C 81 % 1011,6 hPa 0,0 l/m² 6,4 km/h (2 Bft) N 352 ° 0 min 0,0 UV-I 0 W/m² 12,4 °C 15,7 °C 11,3 km/h (2 Bft)
05.05.2026 01:20 15,7 °C 14,4 °C 13,9 °C 81 % 1011,6 hPa 0,0 l/m² 8,9 km/h (2 Bft) N 10 ° 0 min 0,0 UV-I 0 W/m² 12,4 °C 15,7 °C 17,7 km/h (3 Bft)
05.05.2026 01:22 15,7 °C 14,4 °C 14,4 °C 81 % 1011,6 hPa 0,0 l/m² 6,6 km/h (2 Bft) N-NO 17 ° 0 min 0,0 UV-I 0 W/m² 12,4 °C 15,7 °C 12,9 km/h (3 Bft)
05.05.2026 01:24 15,7 °C 14,4 °C 13,9 °C 81 % 1011,7 hPa 0,0 l/m² 8,4 km/h (2 Bft) N-NW 344 ° 0 min 0,0 UV-I 0 W/m² 12,4 °C 15,7 °C 16,1 km/h (3 Bft)
05.05.2026 01:26 15,7 °C 14,4 °C 13,9 °C 81 % 1011,7 hPa 0,0 l/m² 6,7 km/h (2 Bft) N-NW 343 ° 0 min 0,0 UV-I 0 W/m² 12,4 °C 15,7 °C 12,9 km/h (3 Bft)
05.05.2026 01:28 15,7 °C 14,4 °C 13,9 °C 81 % 1011,7 hPa 0,0 l/m² 7,3 km/h (2 Bft) N-NO 12 ° 0 min 0,0 UV-I 0 W/m² 12,4 °C 15,7 °C 11,3 km/h (2 Bft)
05.05.2026 01:30 15,6 °C 14,4 °C 13,9 °C 81 % 1011,7 hPa 0,0 l/m² 4,7 km/h (1 Bft) N-NW 336 ° 0 min 0,0 UV-I 0 W/m² 12,3 °C 15,6 °C 8,0 km/h (2 Bft)
05.05.2026 01:32 15,6 °C 14,4 °C 14,4 °C 82 % 1011,8 hPa 0,0 l/m² 4,2 km/h (1 Bft) N 360 ° 0 min 0,0 UV-I 0 W/m² 12,5 °C 15,6 °C 8,0 km/h (2 Bft)
05.05.2026 01:34 15,6 °C 13,9 °C 13,9 °C 82 % 1011,7 hPa 0,0 l/m² 6,7 km/h (2 Bft) N 2 ° 0 min 0,0 UV-I 0 W/m² 12,5 °C 15,6 °C 11,3 km/h (2 Bft)
05.05.2026 01:36 15,5 °C 13,9 °C 13,9 °C 82 % 1011,6 hPa 0,0 l/m² 6,5 km/h (2 Bft) N 2 ° 0 min 0,0 UV-I 0 W/m² 12,4 °C 15,5 °C 12,9 km/h (3 Bft)
05.05.2026 01:38 15,4 °C 13,9 °C 13,9 °C 82 % 1011,7 hPa 0,0 l/m² 5,3 km/h (1 Bft) N 354 ° 0 min 0,0 UV-I 0 W/m² 12,3 °C 15,4 °C 12,9 km/h (3 Bft)
05.05.2026 01:40 15,4 °C 13,9 °C 13,9 °C 82 % 1011,6 hPa 0,0 l/m² 7,1 km/h (2 Bft) N-NO 16 ° 0 min 0,0 UV-I 0 W/m² 12,3 °C 15,4 °C 12,9 km/h (3 Bft)
05.05.2026 01:42 15,4 °C 13,9 °C 13,9 °C 82 % 1011,6 hPa 0,0 l/m² 6,3 km/h (2 Bft) N-NW 345 ° 0 min 0,0 UV-I 0 W/m² 12,3 °C 15,4 °C 11,3 km/h (2 Bft)
05.05.2026 01:44 15,3 °C 13,9 °C 13,9 °C 82 % 1011,6 hPa 0,0 l/m² 5,5 km/h (2 Bft) N 9 ° 0 min 0,0 UV-I 0 W/m² 12,2 °C 15,3 °C 9,7 km/h (2 Bft)
05.05.2026 01:46 15,3 °C 13,9 °C 13,9 °C 83 % 1011,6 hPa 0,0 l/m² 7,4 km/h (2 Bft) N-NO 12 ° 0 min 0,0 UV-I 0 W/m² 12,4 °C 15,3 °C 12,9 km/h (3 Bft)
05.05.2026 01:48 15,2 °C 13,9 °C 13,9 °C 83 % 1011,6 hPa 0,0 l/m² 9,2 km/h (2 Bft) N-NO 27 ° 0 min 0,0 UV-I 0 W/m² 12,3 °C 15,2 °C 12,9 km/h (3 Bft)
05.05.2026 01:50 15,2 °C 13,9 °C 13,9 °C 83 % 1011,6 hPa 0,0 l/m² 9,0 km/h (2 Bft) NO 38 ° 0 min 0,0 UV-I 0 W/m² 12,3 °C 15,2 °C 14,5 km/h (3 Bft)
05.05.2026 01:52 15,2 °C 13,9 °C 13,9 °C 83 % 1011,6 hPa 0,0 l/m² 3,8 km/h (1 Bft) N 349 ° 0 min 0,0 UV-I 0 W/m² 12,3 °C 15,2 °C 9,7 km/h (2 Bft)
05.05.2026 01:54 15,2 °C 13,9 °C 13,9 °C 83 % 1011,6 hPa 0,0 l/m² 4,8 km/h (1 Bft) NO 38 ° 0 min 0,0 UV-I 0 W/m² 12,3 °C 15,2 °C 9,7 km/h (2 Bft)
05.05.2026 01:56 15,1 °C 13,9 °C 13,9 °C 83 % 1011,6 hPa 0,0 l/m² 3,1 km/h (1 Bft) NO 37 ° 0 min 0,0 UV-I 0 W/m² 12,2 °C 15,1 °C 8,0 km/h (2 Bft)
05.05.2026 01:58 15,1 °C 13,9 °C 13,9 °C 83 % 1011,6 hPa 0,0 l/m² 3,4 km/h (1 Bft) N-NO 14 ° 0 min 0,0 UV-I 0 W/m² 12,2 °C 15,1 °C 8,0 km/h (2 Bft)
05.05.2026 02:00 15,1 °C 13,9 °C 13,9 °C 83 % 1011,6 hPa 0,0 l/m² 5,5 km/h (2 Bft) N-NO 25 ° 0 min 0,0 UV-I 0 W/m² 12,2 °C 15,1 °C 11,3 km/h (2 Bft)
05.05.2026 02:02 15,0 °C 13,9 °C 13,9 °C 83 % 1011,6 hPa 0,0 l/m² 6,5 km/h (2 Bft) N-NO 19 ° 0 min 0,0 UV-I 0 W/m² 12,1 °C 15,0 °C 11,3 km/h (2 Bft)
05.05.2026 02:04 15,0 °C 13,9 °C 13,9 °C 83 % 1011,6 hPa 0,0 l/m² 6,0 km/h (2 Bft) N 2 ° 0 min 0,0 UV-I 0 W/m² 12,1 °C 15,0 °C 9,7 km/h (2 Bft)
05.05.2026 02:06 15,0 °C 13,9 °C 13,9 °C 83 % 1011,5 hPa 0,0 l/m² 4,4 km/h (1 Bft) NO 50 ° 0 min 0,0 UV-I 0 W/m² 12,1 °C 15,0 °C 8,0 km/h (2 Bft)
05.05.2026 02:08 15,0 °C 13,9 °C 13,9 °C 83 % 1011,5 hPa 0,0 l/m² 4,9 km/h (1 Bft) N-NO 23 ° 0 min 0,0 UV-I 0 W/m² 12,1 °C 15,0 °C 9,7 km/h (2 Bft)
05.05.2026 02:10 14,9 °C 13,9 °C 13,9 °C 83 % 1011,4 hPa 0,0 l/m² 3,2 km/h (1 Bft) N 11 ° 0 min 0,0 UV-I 0 W/m² 12,0 °C 14,9 °C 4,8 km/h (1 Bft)
05.05.2026 02:12 14,9 °C 13,9 °C 13,9 °C 83 % 1011,4 hPa 0,0 l/m² 3,6 km/h (1 Bft) N-NO 16 ° 0 min 0,0 UV-I 0 W/m² 12,0 °C 14,9 °C 8,0 km/h (2 Bft)
05.05.2026 02:14 14,9 °C 13,9 °C 13,9 °C 83 % 1011,4 hPa 0,0 l/m² 1,8 km/h (1 Bft) N-NO 16 ° 0 min 0,0 UV-I 0 W/m² 12,0 °C 14,9 °C 3,2 km/h (1 Bft)
05.05.2026 02:16 14,9 °C 13,3 °C 13,9 °C 83 % 1011,4 hPa 0,0 l/m² 1,7 km/h (1 Bft) N-NO 16 ° 0 min 0,0 UV-I 0 W/m² 12,0 °C 14,9 °C 3,2 km/h (1 Bft)
05.05.2026 02:18 14,9 °C 13,3 °C 13,9 °C 83 % 1011,4 hPa 0,0 l/m² 0,4 km/h (0 Bft) N-NO 16 ° 0 min 0,0 UV-I 0 W/m² 12,0 °C 14,9 °C 1,6 km/h (1 Bft)
05.05.2026 02:20 14,9 °C 13,3 °C 13,9 °C 83 % 1011,4 hPa 0,0 l/m² 2,7 km/h (1 Bft) N-NO 16 ° 0 min 0,0 UV-I 0 W/m² 12,0 °C 14,9 °C 4,8 km/h (1 Bft)
05.05.2026 02:22 14,9 °C 13,3 °C 13,9 °C 83 % 1011,4 hPa 0,0 l/m² 4,3 km/h (1 Bft) N 358 ° 0 min 0,0 UV-I 0 W/m² 12,0 °C 14,9 °C 8,0 km/h (2 Bft)
05.05.2026 02:24 14,9 °C 13,3 °C 13,9 °C 83 % 1011,4 hPa 0,0 l/m² 3,6 km/h (1 Bft) N 1 ° 0 min 0,0 UV-I 0 W/m² 12,0 °C 14,9 °C 8,0 km/h (2 Bft)
05.05.2026 02:26 14,9 °C 13,3 °C 13,9 °C 84 % 1011,4 hPa 0,0 l/m² 4,1 km/h (1 Bft) N-NO 15 ° 0 min 0,0 UV-I 0 W/m² 12,2 °C 14,9 °C 8,0 km/h (2 Bft)
05.05.2026 02:28 14,9 °C 13,9 °C 13,9 °C 84 % 1011,3 hPa 0,0 l/m² 6,0 km/h (2 Bft) N-NO 24 ° 0 min 0,0 UV-I 0 W/m² 12,2 °C 14,9 °C 8,0 km/h (2 Bft)
05.05.2026 02:30 14,9 °C 13,9 °C 13,9 °C 84 % 1011,2 hPa 0,0 l/m² 5,8 km/h (2 Bft) N-NO 25 ° 0 min 0,0 UV-I 0 W/m² 12,2 °C 14,9 °C 9,7 km/h (2 Bft)
05.05.2026 02:32 14,9 °C 13,9 °C 13,9 °C 84 % 1011,2 hPa 0,0 l/m² 4,5 km/h (1 Bft) N-NO 25 ° 0 min 0,0 UV-I 0 W/m² 12,2 °C 14,9 °C 6,4 km/h (2 Bft)
05.05.2026 02:34 14,9 °C 13,9 °C 13,9 °C 84 % 1011,2 hPa 0,0 l/m² 1,6 km/h (1 Bft) N-NO 25 ° 0 min 0,0 UV-I 0 W/m² 12,2 °C 14,9 °C 3,2 km/h (1 Bft)
05.05.2026 02:36 14,9 °C 13,3 °C 13,9 °C 84 % 1011,1 hPa 0,0 l/m² 2,1 km/h (1 Bft) N-NO 25 ° 0 min 0,0 UV-I 0 W/m² 12,2 °C 14,9 °C 4,8 km/h (1 Bft)
05.05.2026 02:38 14,9 °C 13,3 °C 13,9 °C 84 % 1011,1 hPa 0,0 l/m² 3,1 km/h (1 Bft) NO 36 ° 0 min 0,0 UV-I 0 W/m² 12,2 °C 14,9 °C 6,4 km/h (2 Bft)
05.05.2026 02:40 14,9 °C 13,3 °C 13,9 °C 84 % 1011,0 hPa 0,0 l/m² 3,1 km/h (1 Bft) NO 48 ° 0 min 0,0 UV-I 0 W/m² 12,2 °C 14,9 °C 6,4 km/h (2 Bft)
05.05.2026 02:42 14,9 °C 13,3 °C 13,9 °C 84 % 1011,0 hPa 0,0 l/m² 4,2 km/h (1 Bft) NO 41 ° 0 min 0,0 UV-I 0 W/m² 12,2 °C 14,9 °C 6,4 km/h (2 Bft)
05.05.2026 02:44 14,9 °C 13,3 °C 13,9 °C 84 % 1011,0 hPa 0,0 l/m² 2,1 km/h (1 Bft) NO 36 ° 0 min 0,0 UV-I 0 W/m² 12,2 °C 14,9 °C 4,8 km/h (1 Bft)
05.05.2026 02:46 14,9 °C 13,3 °C 13,9 °C 84 % 1011,0 hPa 0,0 l/m² 2,9 km/h (1 Bft) N-NO 23 ° 0 min 0,0 UV-I 0 W/m² 12,2 °C 14,9 °C 6,4 km/h (2 Bft)
05.05.2026 02:48 14,9 °C 13,3 °C 13,9 °C 84 % 1011,1 hPa 0,0 l/m² 2,9 km/h (1 Bft) N 359 ° 0 min 0,0 UV-I 0 W/m² 12,2 °C 14,9 °C 4,8 km/h (1 Bft)
05.05.2026 02:50 14,8 °C 13,3 °C 13,9 °C 84 % 1011,0 hPa 0,0 l/m² 5,8 km/h (2 Bft) N-NO 16 ° 0 min 0,0 UV-I 0 W/m² 12,1 °C 14,8 °C 8,0 km/h (2 Bft)
05.05.2026 02:52 14,8 °C 13,3 °C 13,9 °C 84 % 1011,0 hPa 0,0 l/m² 2,7 km/h (1 Bft) N-NO 16 ° 0 min 0,0 UV-I 0 W/m² 12,1 °C 14,8 °C 4,8 km/h (1 Bft)
05.05.2026 02:54 14,8 °C 13,3 °C 13,9 °C 84 % 1010,9 hPa 0,0 l/m² 2,5 km/h (1 Bft) N 11 ° 0 min 0,0 UV-I 0 W/m² 12,1 °C 14,8 °C 4,8 km/h (1 Bft)
05.05.2026 02:56 14,8 °C 13,3 °C 13,9 °C 84 % 1010,9 hPa 0,0 l/m² 3,0 km/h (1 Bft) N-NO 15 ° 0 min 0,0 UV-I 0 W/m² 12,1 °C 14,8 °C 8,0 km/h (2 Bft)
05.05.2026 02:58 14,8 °C 13,3 °C 13,9 °C 84 % 1011,0 hPa 0,0 l/m² 2,7 km/h (1 Bft) N-NO 13 ° 0 min 0,0 UV-I 0 W/m² 12,1 °C 14,8 °C 6,4 km/h (2 Bft)
05.05.2026 03:00 14,8 °C 13,3 °C 13,9 °C 84 % 1011,0 hPa 0,0 l/m² 3,5 km/h (1 Bft) NW 325 ° 0 min 0,0 UV-I 0 W/m² 12,1 °C 14,8 °C 8,0 km/h (2 Bft)
05.05.2026 03:02 14,8 °C 13,3 °C 13,9 °C 84 % 1011,0 hPa 0,0 l/m² 3,7 km/h (1 Bft) N-NW 337 ° 0 min 0,0 UV-I 0 W/m² 12,1 °C 14,8 °C 6,4 km/h (2 Bft)
05.05.2026 03:04 14,8 °C 13,3 °C 13,9 °C 84 % 1011,0 hPa 0,0 l/m² 3,9 km/h (1 Bft) N-NW 337 ° 0 min 0,0 UV-I 0 W/m² 12,1 °C 14,8 °C 6,4 km/h (2 Bft)
05.05.2026 03:06 14,7 °C 13,3 °C 13,9 °C 84 % 1011,0 hPa 0,0 l/m² 4,5 km/h (1 Bft) N 354 ° 0 min 0,0 UV-I 0 W/m² 12,0 °C 14,7 °C 8,0 km/h (2 Bft)
05.05.2026 03:08 14,7 °C 13,3 °C 13,9 °C 84 % 1011,0 hPa 0,0 l/m² 3,7 km/h (1 Bft) N-NW 346 ° 0 min 0,0 UV-I 0 W/m² 12,0 °C 14,7 °C 6,4 km/h (2 Bft)
05.05.2026 03:10 14,7 °C 13,3 °C 13,9 °C 84 % 1011,0 hPa 0,0 l/m² 4,1 km/h (1 Bft) N-NW 329 ° 0 min 0,0 UV-I 0 W/m² 12,0 °C 14,7 °C 6,4 km/h (2 Bft)
05.05.2026 03:13 14,7 °C 13,3 °C 13,9 °C 84 % 1011,0 hPa 0,0 l/m² 5,3 km/h (1 Bft) N-NW 341 ° 0 min 0,0 UV-I 0 W/m² 12,0 °C 14,7 °C 8,0 km/h (2 Bft)
05.05.2026 03:14 14,7 °C 13,3 °C 13,9 °C 84 % 1011,0 hPa 0,0 l/m² 6,1 km/h (2 Bft) N-NW 331 ° 0 min 0,0 UV-I 0 W/m² 12,0 °C 14,7 °C 8,0 km/h (2 Bft)
05.05.2026 03:16 14,6 °C 13,3 °C 13,9 °C 84 % 1011,0 hPa 0,0 l/m² 4,5 km/h (1 Bft) N-NW 344 ° 0 min 0,0 UV-I 0 W/m² 11,9 °C 14,6 °C 6,4 km/h (2 Bft)
05.05.2026 03:18 14,6 °C 13,3 °C 13,9 °C 84 % 1011,0 hPa 0,0 l/m² 2,8 km/h (1 Bft) N-NW 339 ° 0 min 0,0 UV-I 0 W/m² 11,9 °C 14,6 °C 6,4 km/h (2 Bft)
05.05.2026 03:20 14,6 °C 13,3 °C 13,9 °C 84 % 1011,0 hPa 0,0 l/m² 1,9 km/h (1 Bft) N-NW 339 ° 0 min 0,0 UV-I 0 W/m² 11,9 °C 14,6 °C 4,8 km/h (1 Bft)
05.05.2026 03:22 14,6 °C 13,3 °C 13,9 °C 84 % 1011,0 hPa 0,0 l/m² 2,4 km/h (1 Bft) N-NW 339 ° 0 min 0,0 UV-I 0 W/m² 11,9 °C 14,6 °C 4,8 km/h (1 Bft)
05.05.2026 03:24 14,6 °C 13,3 °C 13,9 °C 84 % 1011,0 hPa 0,0 l/m² 2,1 km/h (1 Bft) N-NW 339 ° 0 min 0,0 UV-I 0 W/m² 11,9 °C 14,6 °C 3,2 km/h (1 Bft)
05.05.2026 03:26 14,5 °C 13,3 °C 13,9 °C 84 % 1011,0 hPa 0,0 l/m² 0,9 km/h (0 Bft) N-NW 339 ° 0 min 0,0 UV-I 0 W/m² 11,8 °C 14,5 °C 3,2 km/h (1 Bft)
05.05.2026 03:28 14,5 °C 13,3 °C 13,9 °C 85 % 1011,0 hPa 0,0 l/m² 0,6 km/h (0 Bft) N-NW 339 ° 0 min 0,0 UV-I 0 W/m² 12,0 °C 14,5 °C 1,6 km/h (1 Bft)
05.05.2026 03:30 14,5 °C 13,3 °C 13,9 °C 85 % 1010,9 hPa 0,0 l/m² 1,6 km/h (1 Bft) N-NW 339 ° 0 min 0,0 UV-I 0 W/m² 12,0 °C 14,5 °C 3,2 km/h (1 Bft)
05.05.2026 03:32 14,5 °C 13,3 °C 13,9 °C 85 % 1011,0 hPa 0,0 l/m² 1,7 km/h (1 Bft) N-NW 339 ° 0 min 0,0 UV-I 0 W/m² 12,0 °C 14,5 °C 3,2 km/h (1 Bft)
05.05.2026 03:34 14,5 °C 12,8 °C 13,9 °C 85 % 1010,9 hPa 0,0 l/m² 0,1 km/h (0 Bft) N-NW 339 ° 0 min 0,0 UV-I 0 W/m² 12,0 °C 14,5 °C 1,6 km/h (1 Bft)
05.05.2026 03:36 14,5 °C 12,8 °C 13,9 °C 85 % 1010,9 hPa 0,0 l/m² 0,0 km/h (0 Bft) N-NW 339 ° 0 min 0,0 UV-I 0 W/m² 12,0 °C 14,5 °C 0,0 km/h (0 Bft)
05.05.2026 03:38 14,4 °C 12,8 °C 13,9 °C 85 % 1010,9 hPa 0,0 l/m² 0,0 km/h (0 Bft) N-NW 339 ° 0 min 0,0 UV-I 0 W/m² 11,9 °C 14,4 °C 0,0 km/h (0 Bft)
05.05.2026 03:40 14,4 °C 12,8 °C 13,9 °C 85 % 1010,9 hPa 0,0 l/m² 0,0 km/h (0 Bft) N-NW 339 ° 0 min 0,0 UV-I 0 W/m² 11,9 °C 14,4 °C 0,0 km/h (0 Bft)
05.05.2026 03:42 14,4 °C 12,8 °C 13,9 °C 85 % 1010,9 hPa 0,0 l/m² 0,0 km/h (0 Bft) N-NW 339 ° 0 min 0,0 UV-I 0 W/m² 11,9 °C 14,4 °C 0,0 km/h (0 Bft)
05.05.2026 03:44 14,4 °C 12,8 °C 13,9 °C 85 % 1010,8 hPa 0,0 l/m² 0,0 km/h (0 Bft) N-NW 339 ° 0 min 0,0 UV-I 0 W/m² 11,9 °C 14,4 °C 0,0 km/h (0 Bft)
05.05.2026 03:46 14,4 °C 12,8 °C 13,9 °C 85 % 1010,8 hPa 0,0 l/m² 1,0 km/h (0 Bft) N-NW 339 ° 0 min 0,0 UV-I 0 W/m² 11,9 °C 14,4 °C 3,2 km/h (1 Bft)
05.05.2026 03:48 14,4 °C 12,8 °C 13,9 °C 85 % 1010,7 hPa 0,0 l/m² 1,0 km/h (0 Bft) N-NW 339 ° 0 min 0,0 UV-I 0 W/m² 11,9 °C 14,4 °C 3,2 km/h (1 Bft)
05.05.2026 03:50 14,4 °C 12,8 °C 13,9 °C 85 % 1010,7 hPa 0,0 l/m² 0,0 km/h (0 Bft) N-NW 339 ° 0 min 0,0 UV-I 0 W/m² 11,9 °C 14,4 °C 0,0 km/h (0 Bft)
05.05.2026 03:52 14,4 °C 12,8 °C 13,9 °C 85 % 1010,6 hPa 0,0 l/m² 0,1 km/h (0 Bft) N-NW 339 ° 0 min 0,0 UV-I 0 W/m² 11,9 °C 14,4 °C 1,6 km/h (1 Bft)
05.05.2026 03:54 14,4 °C 12,2 °C 13,9 °C 85 % 1010,6 hPa 0,0 l/m² 0,6 km/h (0 Bft) N-NW 339 ° 0 min 0,0 UV-I 0 W/m² 11,9 °C 14,4 °C 3,2 km/h (1 Bft)
05.05.2026 03:56 14,4 °C 12,2 °C 13,9 °C 85 % 1010,6 hPa 0,0 l/m² 0,0 km/h (0 Bft) N-NW 339 ° 0 min 0,0 UV-I 0 W/m² 11,9 °C 14,4 °C 1,6 km/h (1 Bft)
05.05.2026 03:58 14,4 °C 12,2 °C 13,9 °C 85 % 1010,6 hPa 0,0 l/m² 0,0 km/h (0 Bft) N-NW 339 ° 0 min 0,0 UV-I 0 W/m² 11,9 °C 14,4 °C 0,0 km/h (0 Bft)
05.05.2026 04:00 14,4 °C 12,2 °C 13,9 °C 85 % 1010,7 hPa 0,0 l/m² 0,0 km/h (0 Bft) N-NW 339 ° 0 min 0,0 UV-I 0 W/m² 11,9 °C 14,4 °C 0,0 km/h (0 Bft)
05.05.2026 04:02 14,4 °C 12,2 °C 13,9 °C 85 % 1010,7 hPa 0,0 l/m² 1,2 km/h (1 Bft) N-NW 339 ° 0 min 0,0 UV-I 0 W/m² 11,9 °C 14,4 °C 3,2 km/h (1 Bft)
05.05.2026 04:04 14,4 °C 12,2 °C 13,9 °C 85 % 1010,7 hPa 0,0 l/m² 2,7 km/h (1 Bft) N-NW 339 ° 0 min 0,0 UV-I 0 W/m² 11,9 °C 14,4 °C 4,8 km/h (1 Bft)
05.05.2026 04:06 14,3 °C 12,2 °C 13,9 °C 85 % 1010,7 hPa 0,0 l/m² 2,6 km/h (1 Bft) N-NW 339 ° 0 min 0,0 UV-I 0 W/m² 11,8 °C 14,3 °C 4,8 km/h (1 Bft)
05.05.2026 04:08 14,3 °C 12,2 °C 13,9 °C 85 % 1010,7 hPa 0,0 l/m² 4,4 km/h (1 Bft) NW 320 ° 0 min 0,0 UV-I 0 W/m² 11,8 °C 14,3 °C 8,0 km/h (2 Bft)
05.05.2026 04:10 14,3 °C 12,2 °C 13,9 °C 85 % 1010,8 hPa 0,0 l/m² 4,7 km/h (1 Bft) NW 323 ° 0 min 0,0 UV-I 0 W/m² 11,8 °C 14,3 °C 8,0 km/h (2 Bft)
05.05.2026 04:12 14,2 °C 12,8 °C 13,9 °C 85 % 1010,8 hPa 0,0 l/m² 4,5 km/h (1 Bft) NW 313 ° 0 min 0,0 UV-I 0 W/m² 11,7 °C 14,2 °C 8,0 km/h (2 Bft)
05.05.2026 04:14 14,2 °C 12,8 °C 13,9 °C 86 % 1010,8 hPa 0,0 l/m² 4,8 km/h (1 Bft) NW 322 ° 0 min 0,0 UV-I 0 W/m² 11,9 °C 14,2 °C 8,0 km/h (2 Bft)
05.05.2026 04:16 14,1 °C 12,8 °C 13,9 °C 86 % 1010,7 hPa 0,0 l/m² 3,5 km/h (1 Bft) NW 323 ° 0 min 0,0 UV-I 0 W/m² 11,8 °C 14,1 °C 6,4 km/h (2 Bft)
05.05.2026 04:18 14,1 °C 12,8 °C 13,9 °C 86 % 1010,7 hPa 0,0 l/m² 3,3 km/h (1 Bft) NW 323 ° 0 min 0,0 UV-I 0 W/m² 11,8 °C 14,1 °C 6,4 km/h (2 Bft)
05.05.2026 04:20 14,1 °C 12,8 °C 13,9 °C 86 % 1010,7 hPa 0,0 l/m² 2,9 km/h (1 Bft) N-NW 329 ° 0 min 0,0 UV-I 0 W/m² 11,8 °C 14,1 °C 6,4 km/h (2 Bft)
05.05.2026 04:22 14,0 °C 12,8 °C 13,9 °C 86 % 1010,7 hPa 0,0 l/m² 5,1 km/h (1 Bft) N-NW 329 ° 0 min 0,0 UV-I 0 W/m² 11,7 °C 14,0 °C 8,0 km/h (2 Bft)
05.05.2026 04:24 14,0 °C 12,8 °C 13,9 °C 86 % 1010,7 hPa 0,0 l/m² 3,4 km/h (1 Bft) N-NW 336 ° 0 min 0,0 UV-I 0 W/m² 11,7 °C 14,0 °C 6,4 km/h (2 Bft)
05.05.2026 04:26 14,0 °C 12,2 °C 13,9 °C 86 % 1010,7 hPa 0,0 l/m² 2,8 km/h (1 Bft) N-NW 335 ° 0 min 0,0 UV-I 0 W/m² 11,7 °C 14,0 °C 8,0 km/h (2 Bft)
05.05.2026 04:28 13,9 °C 12,8 °C 13,9 °C 86 % 1010,7 hPa 0,0 l/m² 3,8 km/h (1 Bft) N-NW 330 ° 0 min 0,0 UV-I 0 W/m² 11,6 °C 13,9 °C 9,7 km/h (2 Bft)
05.05.2026 04:30 14,0 °C 12,8 °C 13,9 °C 86 % 1010,6 hPa 0,0 l/m² 3,7 km/h (1 Bft) N 350 ° 0 min 0,0 UV-I 0 W/m² 11,7 °C 14,0 °C 8,0 km/h (2 Bft)
05.05.2026 04:32 13,9 °C 12,8 °C 13,9 °C 86 % 1010,7 hPa 0,0 l/m² 2,6 km/h (1 Bft) N-NW 331 ° 0 min 0,0 UV-I 0 W/m² 11,6 °C 13,9 °C 6,4 km/h (2 Bft)
05.05.2026 04:34 13,9 °C 12,8 °C 13,9 °C 86 % 1010,7 hPa 0,0 l/m² 1,6 km/h (1 Bft) N-NW 337 ° 0 min 0,0 UV-I 0 W/m² 11,6 °C 13,9 °C 6,4 km/h (2 Bft)
05.05.2026 04:36 13,9 °C 12,8 °C 13,9 °C 86 % 1010,7 hPa 0,0 l/m² 3,6 km/h (1 Bft) NW 318 ° 0 min 0,0 UV-I 0 W/m² 11,6 °C 13,9 °C 4,8 km/h (1 Bft)
05.05.2026 04:38 13,9 °C 12,8 °C 13,9 °C 86 % 1010,7 hPa 0,0 l/m² 2,1 km/h (1 Bft) NW 319 ° 0 min 0,0 UV-I 0 W/m² 11,6 °C 13,9 °C 4,8 km/h (1 Bft)
05.05.2026 04:40 13,9 °C 12,8 °C 13,9 °C 86 % 1010,6 hPa 0,0 l/m² 4,3 km/h (1 Bft) N-NW 327 ° 0 min 0,0 UV-I 0 W/m² 11,6 °C 13,9 °C 6,4 km/h (2 Bft)
05.05.2026 04:42 13,9 °C 12,8 °C 13,9 °C 86 % 1010,6 hPa 0,0 l/m² 3,5 km/h (1 Bft) NW 323 ° 0 min 0,0 UV-I 0 W/m² 11,6 °C 13,9 °C 6,4 km/h (2 Bft)
05.05.2026 04:44 13,9 °C 12,8 °C 13,9 °C 87 % 1010,6 hPa 0,0 l/m² 3,3 km/h (1 Bft) N-NW 333 ° 0 min 0,0 UV-I 0 W/m² 11,8 °C 13,9 °C 4,8 km/h (1 Bft)
05.05.2026 04:46 13,8 °C 12,8 °C 13,9 °C 87 % 1010,5 hPa 0,0 l/m² 1,8 km/h (1 Bft) N-NW 335 ° 0 min 0,0 UV-I 0 W/m² 11,7 °C 13,8 °C 4,8 km/h (1 Bft)
05.05.2026 04:48 13,8 °C 12,8 °C 13,9 °C 87 % 1010,5 hPa 0,0 l/m² 4,3 km/h (1 Bft) N-NO 25 ° 0 min 0,0 UV-I 0 W/m² 11,7 °C 13,8 °C 8,0 km/h (2 Bft)
05.05.2026 04:50 13,8 °C 12,8 °C 13,9 °C 87 % 1010,5 hPa 0,0 l/m² 4,2 km/h (1 Bft) N 2 ° 0 min 0,0 UV-I 0 W/m² 11,7 °C 13,8 °C 8,0 km/h (2 Bft)
05.05.2026 04:52 13,8 °C 12,8 °C 13,9 °C 87 % 1010,4 hPa 0,0 l/m² 5,5 km/h (2 Bft) N-NW 337 ° 0 min 0,0 UV-I 0 W/m² 11,7 °C 13,8 °C 8,0 km/h (2 Bft)
05.05.2026 04:54 13,8 °C 12,8 °C 13,9 °C 87 % 1010,4 hPa 0,0 l/m² 4,8 km/h (1 Bft) N 9 ° 0 min 0,0 UV-I 0 W/m² 11,7 °C 13,8 °C 8,0 km/h (2 Bft)
05.05.2026 04:56 13,9 °C 12,8 °C 13,9 °C 87 % 1010,4 hPa 0,0 l/m² 4,3 km/h (1 Bft) N-NW 344 ° 0 min 0,0 UV-I 0 W/m² 11,8 °C 13,9 °C 8,0 km/h (2 Bft)
05.05.2026 04:58 13,9 °C 12,8 °C 13,9 °C 87 % 1010,5 hPa 0,0 l/m² 5,3 km/h (1 Bft) N 356 ° 0 min 0,0 UV-I 0 W/m² 11,8 °C 13,9 °C 8,0 km/h (2 Bft)
05.05.2026 05:00 13,8 °C 12,8 °C 13,9 °C 87 % 1010,5 hPa 0,0 l/m² 4,5 km/h (1 Bft) N-NW 339 ° 0 min 0,0 UV-I 0 W/m² 11,7 °C 13,8 °C 6,4 km/h (2 Bft)
05.05.2026 05:02 13,9 °C 12,8 °C 13,9 °C 87 % 1010,5 hPa 0,0 l/m² 3,7 km/h (1 Bft) N-NW 345 ° 0 min 0,0 UV-I 0 W/m² 11,8 °C 13,9 °C 6,4 km/h (2 Bft)
05.05.2026 05:04 13,9 °C 12,8 °C 13,9 °C 87 % 1010,5 hPa 0,0 l/m² 3,8 km/h (1 Bft) N-NW 333 ° 0 min 0,0 UV-I 0 W/m² 11,8 °C 13,9 °C 8,0 km/h (2 Bft)
05.05.2026 05:06 13,8 °C 12,8 °C 13,9 °C 87 % 1010,5 hPa 0,0 l/m² 4,2 km/h (1 Bft) N-NW 337 ° 0 min 0,0 UV-I 0 W/m² 11,7 °C 13,8 °C 8,0 km/h (2 Bft)
05.05.2026 05:08 13,8 °C 12,8 °C 13,9 °C 87 % 1010,4 hPa 0,0 l/m² 4,2 km/h (1 Bft) N-NW 341 ° 0 min 0,0 UV-I 0 W/m² 11,7 °C 13,8 °C 8,0 km/h (2 Bft)
05.05.2026 05:10 13,8 °C 12,8 °C 13,9 °C 87 % 1010,4 hPa 0,0 l/m² 3,1 km/h (1 Bft) N-NW 341 ° 0 min 0,0 UV-I 0 W/m² 11,7 °C 13,8 °C 6,4 km/h (2 Bft)
05.05.2026 05:12 13,8 °C 12,8 °C 13,9 °C 87 % 1010,4 hPa 0,0 l/m² 1,5 km/h (1 Bft) N-NW 341 ° 0 min 0,0 UV-I 0 W/m² 11,7 °C 13,8 °C 4,8 km/h (1 Bft)
05.05.2026 05:14 13,9 °C 12,8 °C 13,9 °C 87 % 1010,4 hPa 0,0 l/m² 4,1 km/h (1 Bft) N-NW 341 ° 0 min 0,0 UV-I 0 W/m² 11,8 °C 13,9 °C 6,4 km/h (2 Bft)
05.05.2026 05:16 13,8 °C 12,8 °C 13,9 °C 87 % 1010,4 hPa 0,0 l/m² 1,6 km/h (1 Bft) N-NW 341 ° 0 min 0,0 UV-I 0 W/m² 11,7 °C 13,8 °C 4,8 km/h (1 Bft)
05.05.2026 05:18 13,8 °C 12,8 °C 13,9 °C 87 % 1010,4 hPa 0,0 l/m² 2,8 km/h (1 Bft) N-NW 341 ° 0 min 0,0 UV-I 0 W/m² 11,7 °C 13,8 °C 4,8 km/h (1 Bft)
05.05.2026 05:20 13,8 °C 12,8 °C 13,9 °C 87 % 1010,4 hPa 0,0 l/m² 3,6 km/h (1 Bft) N-NW 341 ° 0 min 0,0 UV-I 0 W/m² 11,7 °C 13,8 °C 4,8 km/h (1 Bft)
05.05.2026 05:22 13,8 °C 12,8 °C 13,9 °C 87 % 1010,4 hPa 0,0 l/m² 2,6 km/h (1 Bft) N-NW 341 ° 0 min 0,0 UV-I 0 W/m² 11,7 °C 13,8 °C 3,2 km/h (1 Bft)
05.05.2026 05:24 13,8 °C 12,8 °C 13,9 °C 87 % 1010,4 hPa 0,0 l/m² 1,1 km/h (1 Bft) N-NW 341 ° 0 min 0,0 UV-I 0 W/m² 11,7 °C 13,8 °C 3,2 km/h (1 Bft)
05.05.2026 05:26 13,8 °C 12,8 °C 13,9 °C 87 % 1010,4 hPa 0,0 l/m² 0,5 km/h (0 Bft) N-NW 341 ° 0 min 0,0 UV-I 0 W/m² 11,7 °C 13,8 °C 3,2 km/h (1 Bft)
05.05.2026 05:28 13,8 °C 12,8 °C 13,9 °C 87 % 1010,5 hPa 0,0 l/m² 2,1 km/h (1 Bft) N-NW 341 ° 0 min 0,0 UV-I 0 W/m² 11,7 °C 13,8 °C 4,8 km/h (1 Bft)
05.05.2026 05:30 13,8 °C 12,8 °C 13,9 °C 87 % 1010,4 hPa 0,0 l/m² 2,1 km/h (1 Bft) N-NW 341 ° 0 min 0,0 UV-I 0 W/m² 11,7 °C 13,8 °C 4,8 km/h (1 Bft)
05.05.2026 05:32 13,8 °C 12,8 °C 13,9 °C 87 % 1010,4 hPa 0,0 l/m² 2,7 km/h (1 Bft) N-NW 341 ° 0 min 0,0 UV-I 0 W/m² 11,7 °C 13,8 °C 4,8 km/h (1 Bft)
05.05.2026 05:34 13,8 °C 12,8 °C 13,9 °C 87 % 1010,4 hPa 0,0 l/m² 1,5 km/h (1 Bft) N-NW 341 ° 0 min 0,0 UV-I 0 W/m² 11,7 °C 13,8 °C 4,8 km/h (1 Bft)
05.05.2026 05:36 13,8 °C 12,2 °C 13,9 °C 87 % 1010,4 hPa 0,0 l/m² 0,3 km/h (0 Bft) N-NW 341 ° 0 min 0,0 UV-I 0 W/m² 11,7 °C 13,8 °C 1,6 km/h (1 Bft)
05.05.2026 05:38 13,8 °C 12,2 °C 13,9 °C 87 % 1010,4 hPa 0,0 l/m² 1,0 km/h (0 Bft) N-NW 341 ° 0 min 0,0 UV-I 0 W/m² 11,7 °C 13,8 °C 3,2 km/h (1 Bft)
05.05.2026 05:40 13,8 °C 12,2 °C 13,9 °C 87 % 1010,3 hPa 0,0 l/m² 1,2 km/h (1 Bft) N-NW 341 ° 0 min 0,0 UV-I 19 W/m² 11,7 °C 13,8 °C 3,2 km/h (1 Bft)
05.05.2026 05:42 13,8 °C 12,2 °C 13,9 °C 88 % 1010,3 hPa 0,0 l/m² 0,5 km/h (0 Bft) N-NW 341 ° 0 min 0,0 UV-I 19 W/m² 11,8 °C 13,8 °C 1,6 km/h (1 Bft)
05.05.2026 05:44 13,8 °C 12,2 °C 13,9 °C 88 % 1010,3 hPa 0,0 l/m² 0,9 km/h (0 Bft) N-NW 341 ° 0 min 0,0 UV-I 19 W/m² 11,8 °C 13,8 °C 1,6 km/h (1 Bft)
05.05.2026 05:46 13,8 °C 12,2 °C 13,9 °C 88 % 1010,3 hPa 0,0 l/m² 0,0 km/h (0 Bft) N-NW 341 ° 0 min 0,0 UV-I 13 W/m² 11,8 °C 13,8 °C 0,0 km/h (0 Bft)
05.05.2026 05:48 13,7 °C 12,8 °C 13,9 °C 88 % 1010,3 hPa 0,0 l/m² 0,0 km/h (0 Bft) N-NW 341 ° 2 min 0,0 UV-I 23 W/m² 11,7 °C 13,7 °C 0,0 km/h (0 Bft)
05.05.2026 05:50 13,7 °C 12,2 °C 13,9 °C 88 % 1010,2 hPa 0,0 l/m² 0,0 km/h (0 Bft) N-NW 341 ° 2 min 0,0 UV-I 26 W/m² 11,7 °C 13,7 °C 0,0 km/h (0 Bft)
05.05.2026 05:52 13,7 °C 12,2 °C 13,9 °C 88 % 1010,3 hPa 0,0 l/m² 0,0 km/h (0 Bft) N-NW 341 ° 2 min 0,0 UV-I 30 W/m² 11,7 °C 13,7 °C 0,0 km/h (0 Bft)
05.05.2026 05:54 13,7 °C 12,2 °C 13,9 °C 88 % 1010,2 hPa 0,0 l/m² 0,0 km/h (0 Bft) N-NW 341 ° 2 min 0,0 UV-I 30 W/m² 11,7 °C 13,7 °C 0,0 km/h (0 Bft)
05.05.2026 05:56 13,7 °C 12,2 °C 13,9 °C 88 % 1010,2 hPa 0,0 l/m² 0,0 km/h (0 Bft) N-NW 341 ° 2 min 0,0 UV-I 33 W/m² 11,7 °C 13,7 °C 0,0 km/h (0 Bft)
05.05.2026 05:58 13,7 °C 12,2 °C 13,9 °C 88 % 1010,1 hPa 0,0 l/m² 0,0 km/h (0 Bft) N-NW 341 ° 2 min 0,0 UV-I 35 W/m² 11,7 °C 13,7 °C 0,0 km/h (0 Bft)
05.05.2026 06:00 13,7 °C 12,2 °C 13,9 °C 88 % 1010,1 hPa 0,0 l/m² 0,0 km/h (0 Bft) N-NW 341 ° 2 min 0,0 UV-I 35 W/m² 11,7 °C 13,7 °C 0,0 km/h (0 Bft)
05.05.2026 06:02 13,6 °C 12,2 °C 13,9 °C 88 % 1010,1 hPa 0,2 l/m² 0,0 km/h (0 Bft) N-NW 341 ° 2 min 0,0 UV-I 37 W/m² 11,6 °C 13,6 °C 0,0 km/h (0 Bft)
05.05.2026 06:04 13,6 °C 12,2 °C 13,9 °C 88 % 1010,1 hPa 0,0 l/m² 0,0 km/h (0 Bft) N-NW 341 ° 2 min 0,0 UV-I 40 W/m² 11,6 °C 13,6 °C 0,0 km/h (0 Bft)
05.05.2026 06:06 13,7 °C 12,2 °C 13,9 °C 88 % 1010,0 hPa 0,0 l/m² 0,5 km/h (0 Bft) N-NW 341 ° 2 min 0,0 UV-I 42 W/m² 11,7 °C 13,7 °C 3,2 km/h (1 Bft)
05.05.2026 06:08 13,7 °C 12,2 °C 13,9 °C 88 % 1010,0 hPa 0,0 l/m² 0,0 km/h (0 Bft) N-NW 341 ° 2 min 0,0 UV-I 40 W/m² 11,7 °C 13,7 °C 0,0 km/h (0 Bft)
05.05.2026 06:10 13,7 °C 12,2 °C 13,9 °C 88 % 1010,0 hPa 0,0 l/m² 0,0 km/h (0 Bft) N-NW 341 ° 2 min 0,0 UV-I 42 W/m² 11,7 °C 13,7 °C 0,0 km/h (0 Bft)
05.05.2026 06:12 13,7 °C 12,2 °C 13,9 °C 88 % 1010,0 hPa 0,0 l/m² 0,0 km/h (0 Bft) N-NW 341 ° 0 min 0,0 UV-I 37 W/m² 11,7 °C 13,7 °C 0,0 km/h (0 Bft)
05.05.2026 06:14 13,7 °C 12,2 °C 13,9 °C 88 % 1010,0 hPa 0,0 l/m² 1,3 km/h (1 Bft) N-NW 341 ° 0 min 0,0 UV-I 39 W/m² 11,7 °C 13,7 °C 3,2 km/h (1 Bft)
05.05.2026 06:16 13,8 °C 12,8 °C 13,9 °C 88 % 1010,1 hPa 0,0 l/m² 1,7 km/h (1 Bft) N-NW 341 ° 0 min 0,0 UV-I 40 W/m² 11,8 °C 13,8 °C 3,2 km/h (1 Bft)
05.05.2026 06:18 13,8 °C 12,8 °C 13,9 °C 88 % 1010,0 hPa 0,0 l/m² 1,2 km/h (1 Bft) N-NW 341 ° 0 min 0,0 UV-I 42 W/m² 11,8 °C 13,8 °C 3,2 km/h (1 Bft)
05.05.2026 06:20 13,8 °C 12,8 °C 13,9 °C 88 % 1010,0 hPa 0,0 l/m² 0,3 km/h (0 Bft) N-NW 344 ° 0 min 0,0 UV-I 33 W/m² 11,8 °C 13,8 °C 1,6 km/h (1 Bft)
05.05.2026 06:22 13,8 °C 12,8 °C 13,9 °C 88 % 1010,0 hPa 0,0 l/m² 0,0 km/h (0 Bft) N-NW 330 ° 0 min 0,0 UV-I 37 W/m² 11,8 °C 13,8 °C 1,6 km/h (1 Bft)
05.05.2026 06:24 13,8 °C 12,8 °C 13,9 °C 88 % 1010,0 hPa 0,0 l/m² 2,3 km/h (1 Bft) N-NW 348 ° 0 min 0,0 UV-I 37 W/m² 11,8 °C 13,8 °C 3,2 km/h (1 Bft)
05.05.2026 06:26 13,8 °C 12,8 °C 13,9 °C 88 % 1010,0 hPa 0,0 l/m² 0,7 km/h (0 Bft) N-NW 348 ° 0 min 0,0 UV-I 33 W/m² 11,8 °C 13,8 °C 3,2 km/h (1 Bft)
05.05.2026 06:28 13,8 °C 12,8 °C 13,9 °C 88 % 1010,0 hPa 0,0 l/m² 2,2 km/h (1 Bft) N-NW 348 ° 0 min 0,0 UV-I 35 W/m² 11,8 °C 13,8 °C 3,2 km/h (1 Bft)
05.05.2026 06:30 13,8 °C 12,8 °C 13,9 °C 88 % 1010,0 hPa 0,0 l/m² 2,9 km/h (1 Bft) N-NW 348 ° 0 min 0,0 UV-I 32 W/m² 11,8 °C 13,8 °C 4,8 km/h (1 Bft)
05.05.2026 06:32 13,8 °C 12,8 °C 13,9 °C 88 % 1009,9 hPa 0,0 l/m² 2,9 km/h (1 Bft) N-NW 348 ° 0 min 0,0 UV-I 33 W/m² 11,8 °C 13,8 °C 4,8 km/h (1 Bft)
05.05.2026 06:34 13,7 °C 12,8 °C 13,9 °C 88 % 1010,0 hPa 0,0 l/m² 1,3 km/h (1 Bft) N-NW 348 ° 0 min 0,0 UV-I 35 W/m² 11,7 °C 13,7 °C 3,2 km/h (1 Bft)
05.05.2026 06:36 13,7 °C 12,8 °C 13,9 °C 88 % 1009,9 hPa 0,0 l/m² 1,6 km/h (1 Bft) N-NW 348 ° 0 min 0,0 UV-I 39 W/m² 11,7 °C 13,7 °C 3,2 km/h (1 Bft)
05.05.2026 06:38 13,7 °C 12,8 °C 13,9 °C 89 % 1009,9 hPa 0,0 l/m² 0,3 km/h (0 Bft) N-NW 348 ° 0 min 0,0 UV-I 44 W/m² 11,9 °C 13,7 °C 3,2 km/h (1 Bft)
05.05.2026 06:40 13,7 °C 12,8 °C 13,9 °C 89 % 1009,9 hPa 0,0 l/m² 0,8 km/h (0 Bft) N-NW 348 ° 0 min 0,0 UV-I 46 W/m² 11,9 °C 13,7 °C 3,2 km/h (1 Bft)
05.05.2026 06:42 13,7 °C 12,8 °C 13,9 °C 88 % 1009,9 hPa 0,0 l/m² 0,7 km/h (0 Bft) N-NW 348 ° 0 min 0,0 UV-I 44 W/m² 11,7 °C 13,7 °C 1,6 km/h (1 Bft)
05.05.2026 06:44 13,8 °C 12,8 °C 13,9 °C 89 % 1009,9 hPa 0,0 l/m² 0,0 km/h (0 Bft) N-NW 348 ° 0 min 0,0 UV-I 44 W/m² 12,0 °C 13,8 °C 1,6 km/h (1 Bft)
05.05.2026 06:46 13,8 °C 12,8 °C 13,9 °C 89 % 1009,9 hPa 0,0 l/m² 0,6 km/h (0 Bft) N 350 ° 0 min 0,0 UV-I 46 W/m² 12,0 °C 13,8 °C 3,2 km/h (1 Bft)
05.05.2026 06:48 13,8 °C 12,8 °C 13,9 °C 89 % 1010,0 hPa 0,0 l/m² 0,1 km/h (0 Bft) N 350 ° 0 min 0,0 UV-I 49 W/m² 12,0 °C 13,8 °C 1,6 km/h (1 Bft)
05.05.2026 06:50 13,8 °C 12,8 °C 13,3 °C 89 % 1010,0 hPa 0,0 l/m² 0,1 km/h (0 Bft) N 350 ° 0 min 0,0 UV-I 49 W/m² 12,0 °C 13,8 °C 1,6 km/h (1 Bft)
05.05.2026 06:52 13,7 °C 12,8 °C 13,9 °C 89 % 1010,0 hPa 0,0 l/m² 0,0 km/h (0 Bft) N 350 ° 0 min 0,0 UV-I 47 W/m² 11,9 °C 13,7 °C 0,0 km/h (0 Bft)
05.05.2026 06:54 13,7 °C 12,8 °C 13,9 °C 89 % 1010,0 hPa 0,0 l/m² 0,9 km/h (0 Bft) SW 218 ° 0 min 0,0 UV-I 46 W/m² 11,9 °C 13,7 °C 1,6 km/h (1 Bft)
05.05.2026 06:56 13,7 °C 12,8 °C 13,9 °C 89 % 1010,0 hPa 0,0 l/m² 0,1 km/h (0 Bft) SW 218 ° 0 min 0,0 UV-I 46 W/m² 11,9 °C 13,7 °C 1,6 km/h (1 Bft)
05.05.2026 06:58 13,7 °C 12,8 °C 13,9 °C 89 % 1010,0 hPa 0,0 l/m² 0,0 km/h (0 Bft) SW 218 ° 0 min 0,0 UV-I 44 W/m² 11,9 °C 13,7 °C 0,0 km/h (0 Bft)
05.05.2026 07:00 13,6 °C 12,8 °C 13,9 °C 89 % 1010,0 hPa 0,0 l/m² 0,9 km/h (0 Bft) W 273 ° 0 min 0,0 UV-I 40 W/m² 11,8 °C 13,6 °C 4,8 km/h (1 Bft)
05.05.2026 07:02 13,6 °C 12,8 °C 13,9 °C 89 % 1010,0 hPa 0,0 l/m² 1,3 km/h (1 Bft) W 273 ° 0 min 0,0 UV-I 39 W/m² 11,8 °C 13,6 °C 3,2 km/h (1 Bft)
05.05.2026 07:04 13,6 °C 12,8 °C 13,9 °C 89 % 1010,1 hPa 0,0 l/m² 2,3 km/h (1 Bft) W 273 ° 0 min 0,0 UV-I 39 W/m² 11,8 °C 13,6 °C 3,2 km/h (1 Bft)
05.05.2026 07:06 13,6 °C 12,8 °C 13,3 °C 89 % 1010,1 hPa 0,0 l/m² 1,8 km/h (1 Bft) W 273 ° 0 min 0,0 UV-I 40 W/m² 11,8 °C 13,6 °C 3,2 km/h (1 Bft)
05.05.2026 07:08 13,6 °C 12,8 °C 13,9 °C 89 % 1010,1 hPa 0,0 l/m² 1,7 km/h (1 Bft) W 273 ° 0 min 0,0 UV-I 42 W/m² 11,8 °C 13,6 °C 3,2 km/h (1 Bft)
05.05.2026 07:10 13,6 °C 12,8 °C 13,9 °C 89 % 1010,1 hPa 0,0 l/m² 0,8 km/h (0 Bft) W 273 ° 0 min 0,0 UV-I 47 W/m² 11,8 °C 13,6 °C 3,2 km/h (1 Bft)
05.05.2026 07:12 13,7 °C 12,8 °C 13,9 °C 89 % 1010,1 hPa 0,0 l/m² 0,0 km/h (0 Bft) W 273 ° 0 min 0,0 UV-I 53 W/m² 11,9 °C 13,7 °C 1,6 km/h (1 Bft)
05.05.2026 07:14 13,7 °C 12,8 °C 13,9 °C 89 % 1010,1 hPa 0,0 l/m² 0,0 km/h (0 Bft) W 273 ° 0 min 0,0 UV-I 62 W/m² 11,9 °C 13,7 °C 0,0 km/h (0 Bft)
05.05.2026 07:16 13,7 °C 13,3 °C 13,9 °C 89 % 1010,1 hPa 0,0 l/m² 0,7 km/h (0 Bft) W 273 ° 0 min 0,0 UV-I 67 W/m² 11,9 °C 13,7 °C 1,6 km/h (1 Bft)
05.05.2026 07:18 13,7 °C 13,3 °C 13,9 °C 89 % 1010,1 hPa 0,0 l/m² 2,9 km/h (1 Bft) W 275 ° 0 min 0,0 UV-I 69 W/m² 11,9 °C 13,7 °C 4,8 km/h (1 Bft)
05.05.2026 07:20 13,7 °C 13,3 °C 13,3 °C 89 % 1010,1 hPa 0,0 l/m² 3,1 km/h (1 Bft) W 276 ° 0 min 0,0 UV-I 72 W/m² 11,9 °C 13,7 °C 4,8 km/h (1 Bft)
05.05.2026 07:22 13,7 °C 13,3 °C 13,9 °C 89 % 1010,1 hPa 0,0 l/m² 1,9 km/h (1 Bft) W-NW 283 ° 0 min 0,0 UV-I 79 W/m² 11,9 °C 13,7 °C 4,8 km/h (1 Bft)
05.05.2026 07:24 13,7 °C 13,3 °C 13,9 °C 89 % 1010,1 hPa 0,0 l/m² 3,3 km/h (1 Bft) W-NW 283 ° 0 min 0,0 UV-I 86 W/m² 11,9 °C 13,7 °C 4,8 km/h (1 Bft)
05.05.2026 07:26 13,7 °C 13,3 °C 13,9 °C 89 % 1010,1 hPa 0,0 l/m² 2,9 km/h (1 Bft) W-NW 283 ° 0 min 0,0 UV-I 84 W/m² 11,9 °C 13,7 °C 4,8 km/h (1 Bft)
05.05.2026 07:28 13,7 °C 13,3 °C 13,9 °C 89 % 1010,1 hPa 0,0 l/m² 1,8 km/h (1 Bft) W-NW 283 ° 0 min 0,0 UV-I 81 W/m² 11,9 °C 13,7 °C 3,2 km/h (1 Bft)
05.05.2026 07:30 13,7 °C 13,3 °C 13,3 °C 89 % 1010,2 hPa 0,0 l/m² 3,0 km/h (1 Bft) W 264 ° 0 min 0,0 UV-I 77 W/m² 11,9 °C 13,7 °C 4,8 km/h (1 Bft)
05.05.2026 07:32 13,7 °C 13,3 °C 13,9 °C 89 % 1010,2 hPa 0,0 l/m² 3,5 km/h (1 Bft) W 279 ° 0 min 0,0 UV-I 76 W/m² 11,9 °C 13,7 °C 6,4 km/h (2 Bft)
05.05.2026 07:34 13,7 °C 13,3 °C 13,3 °C 89 % 1010,2 hPa 0,0 l/m² 2,7 km/h (1 Bft) W-NW 289 ° 0 min 0,0 UV-I 76 W/m² 11,9 °C 13,7 °C 6,4 km/h (2 Bft)
05.05.2026 07:36 13,7 °C 13,3 °C 13,9 °C 89 % 1010,2 hPa 0,0 l/m² 2,4 km/h (1 Bft) W-NW 293 ° 0 min 0,0 UV-I 72 W/m² 11,9 °C 13,7 °C 6,4 km/h (2 Bft)
05.05.2026 07:38 13,7 °C 13,3 °C 13,3 °C 89 % 1010,2 hPa 0,0 l/m² 3,3 km/h (1 Bft) W-NW 296 ° 0 min 0,0 UV-I 72 W/m² 11,9 °C 13,7 °C 6,4 km/h (2 Bft)
05.05.2026 07:40 13,7 °C 13,3 °C 13,9 °C 89 % 1010,2 hPa 0,0 l/m² 3,2 km/h (1 Bft) NW 319 ° 0 min 0,0 UV-I 70 W/m² 11,9 °C 13,7 °C 6,4 km/h (2 Bft)
05.05.2026 07:42 13,7 °C 13,3 °C 13,9 °C 89 % 1010,2 hPa 0,0 l/m² 1,8 km/h (1 Bft) NW 317 ° 0 min 0,0 UV-I 69 W/m² 11,9 °C 13,7 °C 4,8 km/h (1 Bft)
05.05.2026 07:44 13,7 °C 13,3 °C 13,9 °C 89 % 1010,2 hPa 0,0 l/m² 2,5 km/h (1 Bft) NW 316 ° 0 min 0,0 UV-I 67 W/m² 11,9 °C 13,7 °C 4,8 km/h (1 Bft)
05.05.2026 07:46 13,7 °C 13,3 °C 13,9 °C 89 % 1010,2 hPa 0,2 l/m² 2,5 km/h (1 Bft) NW 317 ° 0 min 0,0 UV-I 65 W/m² 11,9 °C 13,7 °C 4,8 km/h (1 Bft)
05.05.2026 07:48 13,7 °C 13,3 °C 13,9 °C 89 % 1010,2 hPa 0,0 l/m² 4,0 km/h (1 Bft) NW 304 ° 0 min 0,0 UV-I 63 W/m² 11,9 °C 13,7 °C 6,4 km/h (2 Bft)
05.05.2026 07:50 13,7 °C 13,3 °C 13,9 °C 89 % 1010,2 hPa 0,0 l/m² 3,3 km/h (1 Bft) NW 304 ° 0 min 0,0 UV-I 63 W/m² 11,9 °C 13,7 °C 6,4 km/h (2 Bft)
05.05.2026 07:52 13,7 °C 13,3 °C 13,9 °C 89 % 1010,3 hPa 0,0 l/m² 2,5 km/h (1 Bft) NW 304 ° 0 min 0,0 UV-I 65 W/m² 11,9 °C 13,7 °C 4,8 km/h (1 Bft)
05.05.2026 07:54 13,7 °C 13,3 °C 13,3 °C 89 % 1010,2 hPa 0,0 l/m² 1,1 km/h (1 Bft) NW 304 ° 0 min 0,0 UV-I 70 W/m² 11,9 °C 13,7 °C 3,2 km/h (1 Bft)
05.05.2026 07:56 13,7 °C 13,3 °C 13,9 °C 89 % 1010,2 hPa 0,0 l/m² 3,4 km/h (1 Bft) NW 307 ° 0 min 0,0 UV-I 74 W/m² 11,9 °C 13,7 °C 4,8 km/h (1 Bft)
05.05.2026 07:58 13,7 °C 13,3 °C 13,9 °C 89 % 1010,2 hPa 0,0 l/m² 1,8 km/h (1 Bft) N-NW 329 ° 0 min 0,0 UV-I 79 W/m² 11,9 °C 13,7 °C 8,0 km/h (2 Bft)
05.05.2026 08:00 13,7 °C 13,3 °C 13,3 °C 89 % 1010,2 hPa 0,0 l/m² 3,6 km/h (1 Bft) N-NW 332 ° 0 min 0,0 UV-I 84 W/m² 11,9 °C 13,7 °C 6,4 km/h (2 Bft)
05.05.2026 08:02 13,7 °C 13,3 °C 13,9 °C 89 % 1010,2 hPa 0,0 l/m² 3,1 km/h (1 Bft) N-NW 333 ° 0 min 0,0 UV-I 83 W/m² 11,9 °C 13,7 °C 6,4 km/h (2 Bft)
05.05.2026 08:04 13,7 °C 13,3 °C 13,3 °C 89 % 1010,3 hPa 0,2 l/m² 2,4 km/h (1 Bft) NW 318 ° 0 min 0,0 UV-I 77 W/m² 11,9 °C 13,7 °C 4,8 km/h (1 Bft)
05.05.2026 08:06 13,8 °C 13,3 °C 13,9 °C 89 % 1010,2 hPa 0,0 l/m² 4,0 km/h (1 Bft) N-NW 336 ° 0 min 0,0 UV-I 69 W/m² 12,0 °C 13,8 °C 6,4 km/h (2 Bft)
05.05.2026 08:08 13,7 °C 13,3 °C 13,9 °C 89 % 1010,2 hPa 0,0 l/m² 3,5 km/h (1 Bft) N-NW 337 ° 0 min 0,0 UV-I 63 W/m² 11,9 °C 13,7 °C 6,4 km/h (2 Bft)
05.05.2026 08:10 13,8 °C 13,3 °C 13,9 °C 89 % 1010,2 hPa 0,0 l/m² 2,5 km/h (1 Bft) N-NW 337 ° 0 min 0,0 UV-I 63 W/m² 12,0 °C 13,8 °C 4,8 km/h (1 Bft)
05.05.2026 08:12 13,8 °C 13,3 °C 13,9 °C 89 % 1010,1 hPa 0,0 l/m² 3,7 km/h (1 Bft) N-NW 331 ° 0 min 0,0 UV-I 67 W/m² 12,0 °C 13,8 °C 8,0 km/h (2 Bft)
05.05.2026 08:14 13,8 °C 13,3 °C 13,9 °C 89 % 1010,1 hPa 0,0 l/m² 2,6 km/h (1 Bft) N-NW 333 ° 0 min 0,0 UV-I 72 W/m² 12,0 °C 13,8 °C 4,8 km/h (1 Bft)
05.05.2026 08:16 13,7 °C 13,3 °C 13,9 °C 89 % 1010,2 hPa 0,0 l/m² 3,1 km/h (1 Bft) N-NW 333 ° 0 min 0,0 UV-I 76 W/m² 11,9 °C 13,7 °C 6,4 km/h (2 Bft)
05.05.2026 08:18 13,8 °C 13,3 °C 13,3 °C 90 % 1010,2 hPa 0,0 l/m² 4,1 km/h (1 Bft) N-NW 335 ° 0 min 0,0 UV-I 77 W/m² 12,2 °C 13,8 °C 6,4 km/h (2 Bft)
05.05.2026 08:20 13,8 °C 13,3 °C 13,9 °C 90 % 1010,1 hPa 0,0 l/m² 5,7 km/h (2 Bft) N-NW 337 ° 0 min 0,0 UV-I 83 W/m² 12,2 °C 13,8 °C 8,0 km/h (2 Bft)
05.05.2026 08:22 13,8 °C 13,3 °C 13,9 °C 90 % 1010,2 hPa 0,0 l/m² 4,7 km/h (1 Bft) N-NW 341 ° 0 min 0,0 UV-I 84 W/m² 12,2 °C 13,8 °C 6,4 km/h (2 Bft)
05.05.2026 08:24 13,8 °C 13,9 °C 13,9 °C 90 % 1010,2 hPa 0,0 l/m² 4,8 km/h (1 Bft) N-NW 342 ° 0 min 0,0 UV-I 93 W/m² 12,2 °C 13,8 °C 8,0 km/h (2 Bft)
05.05.2026 08:26 13,9 °C 13,9 °C 13,3 °C 90 % 1010,2 hPa 0,2 l/m² 5,0 km/h (1 Bft) N-NW 345 ° 0 min 0,0 UV-I 97 W/m² 12,3 °C 13,9 °C 8,0 km/h (2 Bft)
05.05.2026 08:28 13,9 °C 13,9 °C 13,9 °C 90 % 1010,2 hPa 0,0 l/m² 5,0 km/h (1 Bft) N-NO 16 ° 0 min 0,0 UV-I 102 W/m² 12,3 °C 13,9 °C 8,0 km/h (2 Bft)
05.05.2026 08:30 13,9 °C 13,9 °C 13,3 °C 90 % 1010,2 hPa 0,0 l/m² 5,4 km/h (2 Bft) N 1 ° 0 min 0,5 UV-I 123 W/m² 12,3 °C 13,9 °C 8,0 km/h (2 Bft)
05.05.2026 08:32 13,9 °C 14,4 °C 13,9 °C 90 % 1010,1 hPa 0,0 l/m² 4,9 km/h (1 Bft) N 1 ° 0 min 0,5 UV-I 132 W/m² 12,3 °C 13,9 °C 11,3 km/h (2 Bft)
05.05.2026 08:34 13,9 °C 14,4 °C 13,9 °C 90 % 1010,2 hPa 0,0 l/m² 6,0 km/h (2 Bft) N-NO 13 ° 0 min 0,5 UV-I 134 W/m² 12,3 °C 13,9 °C 8,0 km/h (2 Bft)
05.05.2026 08:36 13,9 °C 14,4 °C 13,3 °C 90 % 1010,2 hPa 0,2 l/m² 5,3 km/h (1 Bft) N-NW 337 ° 0 min 0,6 UV-I 142 W/m² 12,3 °C 13,9 °C 9,7 km/h (2 Bft)
05.05.2026 08:38 14,0 °C 14,4 °C 13,3 °C 90 % 1010,2 hPa 0,0 l/m² 6,1 km/h (2 Bft) N-NW 335 ° 0 min 0,5 UV-I 144 W/m² 12,4 °C 14,0 °C 9,7 km/h (2 Bft)
05.05.2026 08:40 13,9 °C 14,4 °C 13,3 °C 90 % 1010,2 hPa 0,0 l/m² 6,8 km/h (2 Bft) N 6 ° 0 min 0,5 UV-I 135 W/m² 12,3 °C 13,9 °C 9,7 km/h (2 Bft)
05.05.2026 08:43 14,0 °C 14,4 °C 13,3 °C 90 % 1010,1 hPa 0,0 l/m² 6,3 km/h (2 Bft) NW 310 ° 0 min 0,5 UV-I 128 W/m² 12,4 °C 14,0 °C 9,7 km/h (2 Bft)
05.05.2026 08:44 14,0 °C 14,4 °C 13,3 °C 90 % 1010,1 hPa 0,0 l/m² 6,9 km/h (2 Bft) NW 312 ° 0 min 0,5 UV-I 121 W/m² 12,4 °C 14,0 °C 9,7 km/h (2 Bft)
05.05.2026 08:46 14,0 °C 14,4 °C 13,3 °C 90 % 1010,1 hPa 0,2 l/m² 6,2 km/h (2 Bft) N-NW 348 ° 0 min 0,5 UV-I 120 W/m² 12,4 °C 14,0 °C 9,7 km/h (2 Bft)
05.05.2026 08:48 14,0 °C 14,4 °C 13,3 °C 90 % 1010,1 hPa 0,0 l/m² 6,4 km/h (2 Bft) N 353 ° 0 min 0,5 UV-I 125 W/m² 12,4 °C 14,0 °C 11,3 km/h (2 Bft)
05.05.2026 08:50 14,0 °C 14,4 °C 13,3 °C 90 % 1010,1 hPa 0,0 l/m² 4,8 km/h (1 Bft) N-NO 15 ° 0 min 0,5 UV-I 132 W/m² 12,4 °C 14,0 °C 8,0 km/h (2 Bft)
05.05.2026 08:52 14,1 °C 14,4 °C 13,9 °C 90 % 1010,1 hPa 0,0 l/m² 6,0 km/h (2 Bft) N-NW 344 ° 0 min 0,5 UV-I 137 W/m² 12,5 °C 14,1 °C 9,7 km/h (2 Bft)
05.05.2026 08:54 14,1 °C 14,4 °C 13,3 °C 90 % 1010,1 hPa 0,0 l/m² 6,2 km/h (2 Bft) N-NW 346 ° 0 min 0,6 UV-I 142 W/m² 12,5 °C 14,1 °C 9,7 km/h (2 Bft)
05.05.2026 08:56 14,1 °C 14,4 °C 13,3 °C 90 % 1010,1 hPa 0,0 l/m² 5,7 km/h (2 Bft) N-NW 337 ° 0 min 0,6 UV-I 149 W/m² 12,5 °C 14,1 °C 8,0 km/h (2 Bft)
05.05.2026 08:58 14,1 °C 14,4 °C 13,3 °C 90 % 1010,0 hPa 0,0 l/m² 5,2 km/h (1 Bft) N-NO 22 ° 0 min 0,6 UV-I 155 W/m² 12,5 °C 14,1 °C 9,7 km/h (2 Bft)
05.05.2026 09:00 14,1 °C 15,0 °C 13,3 °C 90 % 1010,0 hPa 0,0 l/m² 5,4 km/h (2 Bft) N 1 ° 0 min 0,6 UV-I 163 W/m² 12,5 °C 14,1 °C 9,7 km/h (2 Bft)
05.05.2026 09:02 14,1 °C 15,0 °C 13,9 °C 90 % 1010,0 hPa 0,2 l/m² 6,1 km/h (2 Bft) N 358 ° 0 min 0,7 UV-I 171 W/m² 12,5 °C 14,1 °C 9,7 km/h (2 Bft)
05.05.2026 09:04 14,1 °C 15,0 °C 13,9 °C 90 % 1010,0 hPa 0,0 l/m² 5,2 km/h (1 Bft) N 358 ° 0 min 0,7 UV-I 176 W/m² 12,5 °C 14,1 °C 9,7 km/h (2 Bft)
05.05.2026 09:06 14,1 °C 15,0 °C 13,3 °C 90 % 1009,9 hPa 0,0 l/m² 5,9 km/h (2 Bft) N-NW 339 ° 0 min 0,7 UV-I 169 W/m² 12,5 °C 14,1 °C 8,0 km/h (2 Bft)
05.05.2026 09:08 14,1 °C 15,0 °C 13,3 °C 90 % 1010,0 hPa 0,0 l/m² 3,7 km/h (1 Bft) N 1 ° 0 min 0,7 UV-I 174 W/m² 12,5 °C 14,1 °C 6,4 km/h (2 Bft)
05.05.2026 09:10 14,2 °C 15,0 °C 13,9 °C 90 % 1010,0 hPa 0,0 l/m² 3,1 km/h (1 Bft) N 359 ° 0 min 0,7 UV-I 183 W/m² 12,6 °C 14,2 °C 4,8 km/h (1 Bft)
05.05.2026 09:12 14,4 °C 15,6 °C 13,3 °C 90 % 1010,0 hPa 0,0 l/m² 1,1 km/h (1 Bft) N 3 ° 0 min 0,8 UV-I 185 W/m² 12,8 °C 14,4 °C 3,2 km/h (1 Bft)
05.05.2026 09:14 14,4 °C 16,1 °C 13,3 °C 90 % 1010,0 hPa 0,0 l/m² 4,3 km/h (1 Bft) N-NO 16 ° 0 min 0,8 UV-I 188 W/m² 12,8 °C 14,4 °C 8,0 km/h (2 Bft)
05.05.2026 09:16 14,4 °C 16,1 °C 13,9 °C 90 % 1009,9 hPa 0,0 l/m² 2,5 km/h (1 Bft) N-NO 25 ° 0 min 0,8 UV-I 193 W/m² 12,8 °C 14,4 °C 6,4 km/h (2 Bft)
05.05.2026 09:18 14,5 °C 16,1 °C 13,9 °C 90 % 1010,0 hPa 0,0 l/m² 0,9 km/h (0 Bft) N 357 ° 0 min 0,8 UV-I 197 W/m² 12,9 °C 14,5 °C 4,8 km/h (1 Bft)
05.05.2026 09:20 14,5 °C 16,1 °C 13,3 °C 90 % 1010,0 hPa 0,0 l/m² 4,0 km/h (1 Bft) N-NW 344 ° 0 min 0,8 UV-I 192 W/m² 12,9 °C 14,5 °C 6,4 km/h (2 Bft)
05.05.2026 09:22 14,5 °C 15,6 °C 13,9 °C 90 % 1010,0 hPa 0,0 l/m² 3,0 km/h (1 Bft) N-NW 345 ° 0 min 0,7 UV-I 169 W/m² 12,9 °C 14,5 °C 4,8 km/h (1 Bft)
05.05.2026 09:24 14,4 °C 15,6 °C 13,9 °C 90 % 1010,0 hPa 0,0 l/m² 4,3 km/h (1 Bft) N 8 ° 0 min 0,7 UV-I 158 W/m² 12,8 °C 14,4 °C 6,4 km/h (2 Bft)
05.05.2026 09:26 14,4 °C 15,0 °C 13,9 °C 90 % 1009,9 hPa 0,0 l/m² 7,0 km/h (2 Bft) N-NO 29 ° 0 min 0,6 UV-I 148 W/m² 12,8 °C 14,4 °C 11,3 km/h (2 Bft)
05.05.2026 09:28 14,3 °C 15,0 °C 13,9 °C 90 % 1009,9 hPa 0,0 l/m² 5,8 km/h (2 Bft) N-NW 329 ° 0 min 0,6 UV-I 134 W/m² 12,7 °C 14,3 °C 8,0 km/h (2 Bft)
05.05.2026 09:30 14,4 °C 15,0 °C 13,9 °C 90 % 1009,9 hPa 0,0 l/m² 2,9 km/h (1 Bft) N-NW 338 ° 0 min 0,6 UV-I 132 W/m² 12,8 °C 14,4 °C 6,4 km/h (2 Bft)
05.05.2026 09:32 14,4 °C 15,0 °C 13,3 °C 90 % 1009,9 hPa 0,0 l/m² 2,5 km/h (1 Bft) N-NW 339 ° 0 min 0,6 UV-I 130 W/m² 12,8 °C 14,4 °C 4,8 km/h (1 Bft)
05.05.2026 09:34 14,4 °C 15,0 °C 13,3 °C 90 % 1009,8 hPa 0,0 l/m² 3,0 km/h (1 Bft) N-NW 341 ° 0 min 0,6 UV-I 132 W/m² 12,8 °C 14,4 °C 6,4 km/h (2 Bft)
05.05.2026 09:36 14,4 °C 15,0 °C 13,3 °C 90 % 1009,8 hPa 0,0 l/m² 5,8 km/h (2 Bft) NO 50 ° 0 min 0,6 UV-I 142 W/m² 12,8 °C 14,4 °C 8,0 km/h (2 Bft)
05.05.2026 09:38 14,4 °C 15,0 °C 13,9 °C 90 % 1009,8 hPa 0,0 l/m² 4,2 km/h (1 Bft) NO 50 ° 0 min 0,7 UV-I 146 W/m² 12,8 °C 14,4 °C 6,4 km/h (2 Bft)
05.05.2026 09:40 14,4 °C 15,6 °C 13,3 °C 89 % 1009,8 hPa 0,0 l/m² 4,3 km/h (1 Bft) N 353 ° 0 min 0,7 UV-I 156 W/m² 12,6 °C 14,4 °C 8,0 km/h (2 Bft)
05.05.2026 09:42 14,4 °C 15,6 °C 13,9 °C 89 % 1009,7 hPa 0,0 l/m² 5,0 km/h (1 Bft) N-NO 27 ° 0 min 0,8 UV-I 165 W/m² 12,6 °C 14,4 °C 6,4 km/h (2 Bft)
05.05.2026 09:44 14,5 °C 15,6 °C 13,9 °C 89 % 1009,8 hPa 0,0 l/m² 5,4 km/h (2 Bft) N-NO 27 ° 0 min 0,8 UV-I 169 W/m² 12,7 °C 14,5 °C 8,0 km/h (2 Bft)
05.05.2026 09:46 14,4 °C 15,6 °C 13,3 °C 89 % 1009,7 hPa 0,0 l/m² 6,3 km/h (2 Bft) NO 46 ° 0 min 0,8 UV-I 171 W/m² 12,6 °C 14,4 °C 9,7 km/h (2 Bft)
05.05.2026 09:48 14,4 °C 15,6 °C 13,9 °C 89 % 1009,7 hPa 0,0 l/m² 6,2 km/h (2 Bft) N-NO 27 ° 0 min 0,8 UV-I 176 W/m² 12,6 °C 14,4 °C 9,7 km/h (2 Bft)
05.05.2026 09:50 14,5 °C 15,6 °C 13,9 °C 89 % 1009,7 hPa 0,0 l/m² 3,3 km/h (1 Bft) N 360 ° 0 min 0,8 UV-I 178 W/m² 12,7 °C 14,5 °C 6,4 km/h (2 Bft)
05.05.2026 09:52 14,6 °C 16,1 °C 13,9 °C 89 % 1009,7 hPa 0,0 l/m² 3,3 km/h (1 Bft) N-NO 15 ° 0 min 0,8 UV-I 174 W/m² 12,8 °C 14,6 °C 6,4 km/h (2 Bft)
05.05.2026 09:54 14,7 °C 16,1 °C 13,9 °C 90 % 1009,8 hPa 0,0 l/m² 3,9 km/h (1 Bft) N-NO 21 ° 0 min 0,8 UV-I 167 W/m² 13,1 °C 14,7 °C 8,0 km/h (2 Bft)
05.05.2026 09:56 14,7 °C 16,1 °C 13,9 °C 89 % 1009,8 hPa 0,0 l/m² 4,1 km/h (1 Bft) N-NO 15 ° 0 min 0,8 UV-I 160 W/m² 12,9 °C 14,7 °C 6,4 km/h (2 Bft)
05.05.2026 09:58 14,7 °C 16,1 °C 13,9 °C 89 % 1009,8 hPa 0,0 l/m² 5,1 km/h (1 Bft) N 8 ° 0 min 0,8 UV-I 155 W/m² 12,9 °C 14,7 °C 8,0 km/h (2 Bft)
05.05.2026 10:00 14,7 °C 16,1 °C 13,3 °C 89 % 1009,8 hPa 0,0 l/m² 5,2 km/h (1 Bft) N-NO 23 ° 0 min 0,8 UV-I 158 W/m² 12,9 °C 14,7 °C 8,0 km/h (2 Bft)
05.05.2026 10:02 14,8 °C 16,1 °C 13,3 °C 89 % 1009,7 hPa 0,0 l/m² 3,2 km/h (1 Bft) N-NO 23 ° 0 min 0,8 UV-I 167 W/m² 13,0 °C 14,8 °C 4,8 km/h (1 Bft)
05.05.2026 10:04 14,8 °C 16,1 °C 13,3 °C 89 % 1009,7 hPa 0,0 l/m² 4,7 km/h (1 Bft) N 3 ° 0 min 0,9 UV-I 176 W/m² 13,0 °C 14,8 °C 6,4 km/h (2 Bft)
05.05.2026 10:06 14,8 °C 16,7 °C 13,3 °C 89 % 1009,7 hPa 0,0 l/m² 4,1 km/h (1 Bft) N 10 ° 0 min 0,9 UV-I 188 W/m² 13,0 °C 14,8 °C 6,4 km/h (2 Bft)
05.05.2026 10:08 14,9 °C 16,7 °C 13,3 °C 89 % 1009,7 hPa 0,0 l/m² 3,8 km/h (1 Bft) O-NO 65 ° 0 min 1,0 UV-I 211 W/m² 13,1 °C 14,9 °C 8,0 km/h (2 Bft)
05.05.2026 10:10 14,9 °C 16,7 °C 13,9 °C 89 % 1009,6 hPa 0,0 l/m² 5,7 km/h (2 Bft) NO 55 ° 0 min 1,1 UV-I 229 W/m² 13,1 °C 14,9 °C 9,7 km/h (2 Bft)
05.05.2026 10:12 15,0 °C 17,2 °C 13,3 °C 89 % 1009,6 hPa 0,0 l/m² 6,1 km/h (2 Bft) O-NO 73 ° 0 min 1,2 UV-I 251 W/m² 13,2 °C 15,0 °C 9,7 km/h (2 Bft)
05.05.2026 10:14 15,0 °C 17,2 °C 13,9 °C 89 % 1009,6 hPa 0,0 l/m² 5,5 km/h (2 Bft) O 93 ° 0 min 1,3 UV-I 294 W/m² 13,2 °C 15,0 °C 8,0 km/h (2 Bft)
05.05.2026 10:16 15,1 °C 18,3 °C 13,3 °C 89 % 1009,6 hPa 0,0 l/m² 4,6 km/h (1 Bft) NO 55 ° 0 min 1,4 UV-I 327 W/m² 13,3 °C 15,1 °C 8,0 km/h (2 Bft)
05.05.2026 10:18 15,2 °C 18,3 °C 13,9 °C 89 % 1009,6 hPa 0,0 l/m² 5,2 km/h (1 Bft) O-NO 73 ° 2 min 1,5 UV-I 367 W/m² 13,4 °C 15,2 °C 6,4 km/h (2 Bft)
05.05.2026 10:20 15,3 °C 18,9 °C 13,3 °C 89 % 1009,6 hPa 0,0 l/m² 3,0 km/h (1 Bft) NO 50 ° 0 min 1,5 UV-I 357 W/m² 13,5 °C 15,3 °C 6,4 km/h (2 Bft)
05.05.2026 10:22 15,2 °C 18,9 °C 13,9 °C 88 % 1009,6 hPa 0,0 l/m² 6,0 km/h (2 Bft) O-NO 77 ° 2 min 1,6 UV-I 366 W/m² 13,2 °C 15,2 °C 8,0 km/h (2 Bft)
05.05.2026 10:24 15,3 °C 18,9 °C 13,3 °C 88 % 1009,7 hPa 0,0 l/m² 2,0 km/h (1 Bft) O 90 ° 2 min 1,6 UV-I 378 W/m² 13,3 °C 15,3 °C 6,4 km/h (2 Bft)
05.05.2026 10:26 15,4 °C 19,4 °C 13,3 °C 88 % 1009,7 hPa 0,0 l/m² 3,7 km/h (1 Bft) O 97 ° 2 min 1,6 UV-I 374 W/m² 13,4 °C 15,4 °C 6,4 km/h (2 Bft)
05.05.2026 10:28 15,7 °C 20,0 °C 13,9 °C 88 % 1009,7 hPa 0,0 l/m² 2,2 km/h (1 Bft) O 91 ° 2 min 1,6 UV-I 380 W/m² 13,7 °C 15,7 °C 6,4 km/h (2 Bft)
05.05.2026 10:30 15,8 °C 20,0 °C 13,9 °C 88 % 1009,6 hPa 0,0 l/m² 2,4 km/h (1 Bft) O 90 ° 2 min 1,7 UV-I 388 W/m² 13,8 °C 15,8 °C 4,8 km/h (1 Bft)
05.05.2026 10:32 15,8 °C 20,0 °C 13,9 °C 88 % 1009,6 hPa 0,0 l/m² 3,0 km/h (1 Bft) O-NO 75 ° 2 min 1,8 UV-I 441 W/m² 13,8 °C 15,8 °C 4,8 km/h (1 Bft)
05.05.2026 10:34 15,9 °C 20,0 °C 13,9 °C 87 % 1009,6 hPa 0,0 l/m² 5,0 km/h (1 Bft) O-NO 60 ° 2 min 1,8 UV-I 418 W/m² 13,7 °C 15,9 °C 8,0 km/h (2 Bft)
05.05.2026 10:36 15,8 °C 20,0 °C 13,3 °C 87 % 1009,7 hPa 0,0 l/m² 6,1 km/h (2 Bft) NO 38 ° 2 min 1,7 UV-I 413 W/m² 13,6 °C 15,8 °C 9,7 km/h (2 Bft)
05.05.2026 10:38 15,8 °C 20,0 °C 13,9 °C 86 % 1009,6 hPa 0,0 l/m² 4,4 km/h (1 Bft) NO 44 ° 2 min 1,7 UV-I 397 W/m² 13,5 °C 15,8 °C 6,4 km/h (2 Bft)
05.05.2026 10:40 15,9 °C 20,6 °C 13,9 °C 87 % 1009,7 hPa 0,0 l/m² 1,5 km/h (1 Bft) NO 50 ° 2 min 1,7 UV-I 383 W/m² 13,7 °C 15,9 °C 4,8 km/h (1 Bft)
05.05.2026 10:42 15,9 °C 21,1 °C 13,9 °C 86 % 1009,6 hPa 0,0 l/m² 2,8 km/h (1 Bft) NO 38 ° 0 min 1,6 UV-I 376 W/m² 13,6 °C 15,9 °C 6,4 km/h (2 Bft)
05.05.2026 10:44 15,9 °C 20,6 °C 13,9 °C 86 % 1009,6 hPa 0,0 l/m² 5,3 km/h (1 Bft) N-NO 29 ° 0 min 1,5 UV-I 348 W/m² 13,6 °C 15,9 °C 8,0 km/h (2 Bft)
05.05.2026 10:46 15,8 °C 20,6 °C 13,9 °C 86 % 1009,6 hPa 0,0 l/m² 4,7 km/h (1 Bft) N-NO 31 ° 0 min 1,6 UV-I 343 W/m² 13,5 °C 15,8 °C 6,4 km/h (2 Bft)
05.05.2026 10:48 15,8 °C 20,0 °C 13,9 °C 86 % 1009,6 hPa 0,0 l/m² 4,9 km/h (1 Bft) NO 55 ° 0 min 1,6 UV-I 338 W/m² 13,5 °C 15,8 °C 8,0 km/h (2 Bft)
05.05.2026 10:50 15,9 °C 20,0 °C 13,9 °C 86 % 1009,6 hPa 0,0 l/m² 2,7 km/h (1 Bft) NO 41 ° 0 min 1,6 UV-I 343 W/m² 13,6 °C 15,9 °C 6,4 km/h (2 Bft)
05.05.2026 10:52 16,1 °C 20,0 °C 13,3 °C 86 % 1009,5 hPa 0,0 l/m² 2,4 km/h (1 Bft) N-NO 14 ° 0 min 1,6 UV-I 353 W/m² 13,8 °C 16,1 °C 4,8 km/h (1 Bft)
05.05.2026 10:54 16,2 °C 20,6 °C 13,9 °C 86 % 1009,6 hPa 0,0 l/m² 2,4 km/h (1 Bft) N-NO 29 ° 0 min 1,6 UV-I 352 W/m² 13,9 °C 16,2 °C 4,8 km/h (1 Bft)
05.05.2026 10:56 16,2 °C 20,0 °C 13,9 °C 86 % 1009,6 hPa 0,0 l/m² 4,7 km/h (1 Bft) N-NW 346 ° 0 min 1,5 UV-I 345 W/m² 13,9 °C 16,2 °C 6,4 km/h (2 Bft)
05.05.2026 10:58 16,2 °C 20,0 °C 13,9 °C 85 % 1009,6 hPa 0,0 l/m² 2,9 km/h (1 Bft) N 356 ° 0 min 1,5 UV-I 353 W/m² 13,7 °C 16,2 °C 4,8 km/h (1 Bft)
05.05.2026 11:00 16,3 °C 20,0 °C 13,9 °C 85 % 1009,7 hPa 0,0 l/m² 5,5 km/h (2 Bft) NO 38 ° 2 min 1,7 UV-I 408 W/m² 13,8 °C 16,3 °C 8,0 km/h (2 Bft)
05.05.2026 11:02 16,2 °C 20,0 °C 13,9 °C 85 % 1009,6 hPa 0,0 l/m² 4,3 km/h (1 Bft) N 2 ° 0 min 1,6 UV-I 396 W/m² 13,7 °C 16,2 °C 6,4 km/h (2 Bft)
05.05.2026 11:04 16,3 °C 20,0 °C 13,9 °C 84 % 1009,5 hPa 0,0 l/m² 2,8 km/h (1 Bft) N 6 ° 0 min 1,6 UV-I 387 W/m² 13,6 °C 16,3 °C 4,8 km/h (1 Bft)
05.05.2026 11:06 16,4 °C 20,0 °C 13,9 °C 84 % 1009,6 hPa 0,0 l/m² 2,8 km/h (1 Bft) W-NW 296 ° 2 min 1,7 UV-I 454 W/m² 13,7 °C 16,4 °C 6,4 km/h (2 Bft)
05.05.2026 11:08 16,5 °C 20,0 °C 13,9 °C 84 % 1009,6 hPa 0,0 l/m² 5,4 km/h (2 Bft) NO 55 ° 0 min 1,6 UV-I 376 W/m² 13,8 °C 16,5 °C 9,7 km/h (2 Bft)
05.05.2026 11:10 16,5 °C 19,4 °C 13,9 °C 83 % 1009,6 hPa 0,0 l/m² 5,5 km/h (2 Bft) NO 46 ° 0 min 1,5 UV-I 359 W/m² 13,6 °C 16,5 °C 8,0 km/h (2 Bft)
05.05.2026 11:12 16,6 °C 19,4 °C 13,9 °C 83 % 1009,6 hPa 0,0 l/m² 4,2 km/h (1 Bft) NO 39 ° 0 min 1,5 UV-I 350 W/m² 13,7 °C 16,6 °C 11,3 km/h (2 Bft)
05.05.2026 11:14 16,5 °C 18,9 °C 13,9 °C 83 % 1009,7 hPa 0,0 l/m² 5,6 km/h (2 Bft) NO 34 ° 0 min 1,5 UV-I 346 W/m² 13,6 °C 16,5 °C 12,9 km/h (3 Bft)
05.05.2026 11:16 16,6 °C 18,9 °C 13,9 °C 83 % 1009,7 hPa 0,0 l/m² 4,1 km/h (1 Bft) NO 41 ° 0 min 1,6 UV-I 350 W/m² 13,7 °C 16,6 °C 6,4 km/h (2 Bft)
05.05.2026 11:18 16,7 °C 19,4 °C 13,9 °C 84 % 1009,7 hPa 0,0 l/m² 3,3 km/h (1 Bft) N-NW 339 ° 0 min 1,6 UV-I 355 W/m² 14,0 °C 16,7 °C 6,4 km/h (2 Bft)
05.05.2026 11:20 16,8 °C 20,0 °C 13,9 °C 83 % 1009,7 hPa 0,0 l/m² 2,7 km/h (1 Bft) N 353 ° 0 min 1,6 UV-I 336 W/m² 13,9 °C 16,8 °C 6,4 km/h (2 Bft)
05.05.2026 11:22 16,9 °C 20,0 °C 13,9 °C 83 % 1009,7 hPa 0,0 l/m² 3,3 km/h (1 Bft) NW 325 ° 0 min 1,5 UV-I 323 W/m² 14,0 °C 16,9 °C 6,4 km/h (2 Bft)
05.05.2026 11:24 16,9 °C 19,4 °C 13,9 °C 83 % 1009,7 hPa 0,0 l/m² 4,6 km/h (1 Bft) N 6 ° 0 min 1,4 UV-I 306 W/m² 14,0 °C 16,9 °C 6,4 km/h (2 Bft)
05.05.2026 11:26 16,8 °C 19,4 °C 13,9 °C 83 % 1009,7 hPa 0,0 l/m² 3,7 km/h (1 Bft) N-NW 345 ° 0 min 1,3 UV-I 294 W/m² 13,9 °C 16,8 °C 4,8 km/h (1 Bft)
05.05.2026 11:28 16,8 °C 20,0 °C 13,9 °C 83 % 1009,7 hPa 0,0 l/m² 1,9 km/h (1 Bft) N-NW 348 ° 0 min 1,3 UV-I 287 W/m² 13,9 °C 16,8 °C 3,2 km/h (1 Bft)
05.05.2026 11:30 16,8 °C 20,0 °C 13,9 °C 83 % 1009,7 hPa 0,0 l/m² 3,3 km/h (1 Bft) N-NW 345 ° 0 min 1,4 UV-I 309 W/m² 13,9 °C 16,8 °C 8,0 km/h (2 Bft)
05.05.2026 11:32 16,8 °C 19,4 °C 13,9 °C 83 % 1009,6 hPa 0,0 l/m² 6,2 km/h (2 Bft) N 350 ° 0 min 1,5 UV-I 316 W/m² 13,9 °C 16,8 °C 9,7 km/h (2 Bft)
05.05.2026 11:34 16,9 °C 19,4 °C 13,9 °C 83 % 1009,7 hPa 0,0 l/m² 4,1 km/h (1 Bft) N 9 ° 0 min 1,5 UV-I 316 W/m² 14,0 °C 16,9 °C 6,4 km/h (2 Bft)
05.05.2026 11:36 16,8 °C 19,4 °C 13,9 °C 83 % 1009,7 hPa 0,0 l/m² 5,2 km/h (1 Bft) N 353 ° 0 min 1,5 UV-I 320 W/m² 13,9 °C 16,8 °C 9,7 km/h (2 Bft)
05.05.2026 11:38 16,8 °C 18,9 °C 13,9 °C 83 % 1009,7 hPa 0,0 l/m² 4,8 km/h (1 Bft) N-NW 346 ° 0 min 1,7 UV-I 332 W/m² 13,9 °C 16,8 °C 8,0 km/h (2 Bft)
05.05.2026 11:40 16,8 °C 19,4 °C 13,9 °C 83 % 1009,6 hPa 0,0 l/m² 4,6 km/h (1 Bft) N 360 ° 0 min 1,7 UV-I 339 W/m² 13,9 °C 16,8 °C 6,4 km/h (2 Bft)
05.05.2026 11:42 16,8 °C 20,0 °C 13,9 °C 83 % 1009,6 hPa 0,0 l/m² 4,1 km/h (1 Bft) N 354 ° 0 min 1,7 UV-I 348 W/m² 13,9 °C 16,8 °C 6,4 km/h (2 Bft)
05.05.2026 11:44 16,8 °C 20,0 °C 13,9 °C 83 % 1009,6 hPa 0,0 l/m² 3,9 km/h (1 Bft) N-NO 17 ° 0 min 1,8 UV-I 357 W/m² 13,9 °C 16,8 °C 8,0 km/h (2 Bft)
05.05.2026 11:46 16,9 °C 20,0 °C 13,9 °C 83 % 1009,6 hPa 0,0 l/m² 5,5 km/h (2 Bft) N-NW 339 ° 0 min 1,8 UV-I 350 W/m² 14,0 °C 16,9 °C 8,0 km/h (2 Bft)
05.05.2026 11:48 16,9 °C 20,6 °C 13,9 °C 82 % 1009,6 hPa 0,0 l/m² 4,3 km/h (1 Bft) N 358 ° 0 min 1,8 UV-I 345 W/m² 13,8 °C 16,9 °C 6,4 km/h (2 Bft)
05.05.2026 11:50 16,8 °C 20,0 °C 13,9 °C 82 % 1009,6 hPa 0,0 l/m² 4,2 km/h (1 Bft) N-NO 29 ° 0 min 1,7 UV-I 339 W/m² 13,7 °C 16,8 °C 8,0 km/h (2 Bft)
05.05.2026 11:52 16,8 °C 20,0 °C 13,9 °C 82 % 1009,6 hPa 0,0 l/m² 2,7 km/h (1 Bft) N-NO 18 ° 0 min 1,7 UV-I 338 W/m² 13,7 °C 16,8 °C 6,4 km/h (2 Bft)
05.05.2026 11:54 16,8 °C 20,6 °C 13,9 °C 82 % 1009,6 hPa 0,0 l/m² 3,8 km/h (1 Bft) NO 40 ° 0 min 1,7 UV-I 341 W/m² 13,7 °C 16,8 °C 6,4 km/h (2 Bft)
05.05.2026 11:56 16,8 °C 20,6 °C 13,9 °C 81 % 1009,7 hPa 0,0 l/m² 3,0 km/h (1 Bft) O-SO 117 ° 0 min 1,9 UV-I 359 W/m² 13,5 °C 16,8 °C 6,4 km/h (2 Bft)
05.05.2026 11:58 16,9 °C 21,1 °C 13,9 °C 81 % 1009,7 hPa 0,0 l/m² 1,2 km/h (1 Bft) O-SO 106 ° 0 min 2,0 UV-I 378 W/m² 13,6 °C 16,9 °C 3,2 km/h (1 Bft)
05.05.2026 12:00 17,1 °C 21,1 °C 13,9 °C 82 % 1009,7 hPa 0,0 l/m² 3,6 km/h (1 Bft) N-NW 327 ° 0 min 1,9 UV-I 367 W/m² 14,0 °C 17,1 °C 6,4 km/h (2 Bft)
05.05.2026 12:02 17,2 °C 21,7 °C 13,9 °C 82 % 1009,7 hPa 0,0 l/m² 2,0 km/h (1 Bft) N 353 ° 0 min 1,9 UV-I 360 W/m² 14,1 °C 17,2 °C 6,4 km/h (2 Bft)
05.05.2026 12:04 17,2 °C 21,7 °C 13,9 °C 81 % 1009,7 hPa 0,0 l/m² 0,8 km/h (0 Bft) N 353 ° 0 min 1,9 UV-I 364 W/m² 13,9 °C 17,2 °C 3,2 km/h (1 Bft)
05.05.2026 12:06 17,2 °C 21,7 °C 13,9 °C 80 % 1009,7 hPa 0,0 l/m² 3,1 km/h (1 Bft) N 4 ° 0 min 1,9 UV-I 373 W/m² 13,7 °C 17,2 °C 4,8 km/h (1 Bft)
05.05.2026 12:08 17,2 °C 21,7 °C 13,9 °C 81 % 1009,6 hPa 0,0 l/m² 4,7 km/h (1 Bft) N-NW 347 ° 0 min 1,9 UV-I 374 W/m² 13,9 °C 17,2 °C 8,0 km/h (2 Bft)
05.05.2026 12:10 17,2 °C 21,1 °C 13,9 °C 80 % 1009,6 hPa 0,0 l/m² 2,7 km/h (1 Bft) N-NW 347 ° 0 min 1,9 UV-I 378 W/m² 13,7 °C 17,2 °C 4,8 km/h (1 Bft)
05.05.2026 12:12 17,2 °C 21,7 °C 13,9 °C 81 % 1009,7 hPa 0,0 l/m² 4,6 km/h (1 Bft) N 352 ° 0 min 1,9 UV-I 380 W/m² 13,9 °C 17,2 °C 8,0 km/h (2 Bft)
05.05.2026 12:14 17,2 °C 20,6 °C 13,9 °C 80 % 1009,7 hPa 0,0 l/m² 5,0 km/h (1 Bft) N-NO 25 ° 0 min 1,9 UV-I 374 W/m² 13,7 °C 17,2 °C 6,4 km/h (2 Bft)
05.05.2026 12:16 17,3 °C 20,6 °C 13,9 °C 80 % 1009,6 hPa 0,0 l/m² 5,4 km/h (2 Bft) N 1 ° 0 min 1,8 UV-I 367 W/m² 13,8 °C 17,3 °C 8,0 km/h (2 Bft)
05.05.2026 12:18 17,3 °C 20,6 °C 13,9 °C 80 % 1009,6 hPa 0,0 l/m² 6,1 km/h (2 Bft) N-NW 328 ° 0 min 1,9 UV-I 367 W/m² 13,8 °C 17,3 °C 9,7 km/h (2 Bft)
05.05.2026 12:20 17,4 °C 20,6 °C 13,9 °C 80 % 1009,6 hPa 0,0 l/m² 6,5 km/h (2 Bft) N 359 ° 0 min 1,9 UV-I 373 W/m² 13,9 °C 17,4 °C 8,0 km/h (2 Bft)
05.05.2026 12:22 17,3 °C 21,1 °C 13,9 °C 79 % 1009,6 hPa 0,0 l/m² 5,0 km/h (1 Bft) N 4 ° 0 min 1,9 UV-I 374 W/m² 13,6 °C 17,3 °C 6,4 km/h (2 Bft)
05.05.2026 12:24 17,2 °C 21,1 °C 13,9 °C 79 % 1009,6 hPa 0,0 l/m² 3,7 km/h (1 Bft) N-NW 344 ° 0 min 1,9 UV-I 380 W/m² 13,5 °C 17,2 °C 6,4 km/h (2 Bft)
05.05.2026 12:26 17,3 °C 21,7 °C 13,9 °C 80 % 1009,6 hPa 0,0 l/m² 3,0 km/h (1 Bft) N-NW 341 ° 0 min 1,9 UV-I 374 W/m² 13,8 °C 17,3 °C 6,4 km/h (2 Bft)
05.05.2026 12:28 17,4 °C 22,2 °C 13,9 °C 80 % 1009,5 hPa 0,0 l/m² 2,9 km/h (1 Bft) N-NW 342 ° 0 min 1,9 UV-I 367 W/m² 13,9 °C 17,4 °C 6,4 km/h (2 Bft)
05.05.2026 12:30 17,5 °C 22,2 °C 13,9 °C 79 % 1009,5 hPa 0,0 l/m² 2,3 km/h (1 Bft) N-NW 328 ° 0 min 1,9 UV-I 381 W/m² 13,8 °C 17,5 °C 4,8 km/h (1 Bft)
05.05.2026 12:32 17,6 °C 22,8 °C 13,9 °C 80 % 1009,5 hPa 0,0 l/m² 1,4 km/h (1 Bft) W-SW 253 ° 0 min 2,0 UV-I 387 W/m² 14,1 °C 17,6 °C 4,8 km/h (1 Bft)
05.05.2026 12:34 17,7 °C 22,8 °C 13,9 °C 80 % 1009,6 hPa 0,0 l/m² 3,5 km/h (1 Bft) N-NO 19 ° 0 min 2,0 UV-I 380 W/m² 14,2 °C 17,7 °C 6,4 km/h (2 Bft)
05.05.2026 12:36 17,7 °C 22,8 °C 13,9 °C 78 % 1009,5 hPa 0,0 l/m² 4,8 km/h (1 Bft) O-NO 60 ° 0 min 1,9 UV-I 371 W/m² 13,8 °C 17,7 °C 8,0 km/h (2 Bft)
05.05.2026 12:38 17,7 °C 22,2 °C 13,9 °C 78 % 1009,5 hPa 0,0 l/m² 5,9 km/h (2 Bft) N-NO 29 ° 0 min 1,9 UV-I 373 W/m² 13,8 °C 17,7 °C 9,7 km/h (2 Bft)
05.05.2026 12:40 17,6 °C 22,2 °C 13,9 °C 77 % 1009,5 hPa 0,0 l/m² 3,6 km/h (1 Bft) N-NO 17 ° 0 min 1,9 UV-I 366 W/m² 13,5 °C 17,6 °C 6,4 km/h (2 Bft)
05.05.2026 12:42 17,6 °C 22,2 °C 13,9 °C 78 % 1009,5 hPa 0,0 l/m² 6,2 km/h (2 Bft) O-NO 71 ° 0 min 1,8 UV-I 360 W/m² 13,7 °C 17,6 °C 8,0 km/h (2 Bft)
05.05.2026 12:44 17,6 °C 21,7 °C 13,9 °C 77 % 1009,5 hPa 0,0 l/m² 4,5 km/h (1 Bft) NO 49 ° 0 min 1,8 UV-I 359 W/m² 13,5 °C 17,6 °C 6,4 km/h (2 Bft)
05.05.2026 12:46 17,5 °C 21,7 °C 13,9 °C 77 % 1009,5 hPa 0,0 l/m² 1,9 km/h (1 Bft) O-NO 60 ° 0 min 1,8 UV-I 350 W/m² 13,4 °C 17,5 °C 6,4 km/h (2 Bft)
05.05.2026 12:48 17,4 °C 22,2 °C 13,9 °C 78 % 1009,5 hPa 0,0 l/m² 2,7 km/h (1 Bft) N 2 ° 0 min 1,7 UV-I 343 W/m² 13,5 °C 17,4 °C 6,4 km/h (2 Bft)
05.05.2026 12:50 17,6 °C 22,2 °C 13,9 °C 78 % 1009,4 hPa 0,0 l/m² 5,0 km/h (1 Bft) N-NW 336 ° 0 min 1,7 UV-I 339 W/m² 13,7 °C 17,6 °C 8,0 km/h (2 Bft)
05.05.2026 12:52 17,6 °C 22,2 °C 13,9 °C 78 % 1009,4 hPa 0,0 l/m² 3,5 km/h (1 Bft) NW 308 ° 0 min 1,7 UV-I 336 W/m² 13,7 °C 17,6 °C 6,4 km/h (2 Bft)
05.05.2026 12:54 17,6 °C 22,2 °C 13,9 °C 78 % 1009,4 hPa 0,0 l/m² 2,7 km/h (1 Bft) NW 308 ° 0 min 1,8 UV-I 341 W/m² 13,7 °C 17,6 °C 4,8 km/h (1 Bft)
05.05.2026 12:56 17,6 °C 22,8 °C 13,9 °C 79 % 1009,4 hPa 0,0 l/m² 1,6 km/h (1 Bft) NW 308 ° 0 min 2,0 UV-I 371 W/m² 13,9 °C 17,6 °C 3,2 km/h (1 Bft)
05.05.2026 12:58 17,7 °C 22,8 °C 13,9 °C 78 % 1009,4 hPa 0,0 l/m² 0,9 km/h (0 Bft) NW 308 ° 0 min 2,1 UV-I 387 W/m² 13,8 °C 17,7 °C 3,2 km/h (1 Bft)
05.05.2026 13:00 17,5 °C 23,3 °C 13,9 °C 77 % 1009,4 hPa 0,0 l/m² 0,0 km/h (0 Bft) NW 308 ° 0 min 2,1 UV-I 383 W/m² 13,4 °C 17,5 °C 1,6 km/h (1 Bft)
05.05.2026 13:02 17,5 °C 23,3 °C 13,9 °C 79 % 1009,4 hPa 0,0 l/m² 3,4 km/h (1 Bft) NW 311 ° 0 min 2,0 UV-I 380 W/m² 13,8 °C 17,5 °C 4,8 km/h (1 Bft)
05.05.2026 13:04 17,7 °C 23,9 °C 13,9 °C 79 % 1009,4 hPa 0,0 l/m² 4,8 km/h (1 Bft) NW 314 ° 0 min 2,0 UV-I 376 W/m² 14,0 °C 17,7 °C 6,4 km/h (2 Bft)
05.05.2026 13:06 17,8 °C 23,9 °C 13,9 °C 78 % 1009,4 hPa 0,0 l/m² 2,7 km/h (1 Bft) NW 317 ° 0 min 1,8 UV-I 362 W/m² 13,9 °C 17,8 °C 6,4 km/h (2 Bft)
05.05.2026 13:08 17,8 °C 23,3 °C 13,9 °C 77 % 1009,4 hPa 0,0 l/m² 3,9 km/h (1 Bft) N-NW 339 ° 0 min 1,8 UV-I 350 W/m² 13,7 °C 17,8 °C 6,4 km/h (2 Bft)
05.05.2026 13:10 17,8 °C 23,3 °C 13,9 °C 77 % 1009,3 hPa 0,0 l/m² 2,3 km/h (1 Bft) N-NW 339 ° 0 min 1,8 UV-I 357 W/m² 13,7 °C 17,8 °C 3,2 km/h (1 Bft)
05.05.2026 13:12 17,6 °C 23,3 °C 13,9 °C 77 % 1009,4 hPa 0,0 l/m² 0,4 km/h (0 Bft) N-NW 339 ° 0 min 1,9 UV-I 367 W/m² 13,5 °C 17,6 °C 3,2 km/h (1 Bft)
05.05.2026 13:14 17,7 °C 23,3 °C 13,9 °C 77 % 1009,3 hPa 0,0 l/m² 2,4 km/h (1 Bft) N 8 ° 0 min 2,0 UV-I 383 W/m² 13,6 °C 17,7 °C 6,4 km/h (2 Bft)
05.05.2026 13:16 17,8 °C 23,3 °C 13,9 °C 77 % 1009,3 hPa 0,0 l/m² 2,7 km/h (1 Bft) N 9 ° 0 min 2,2 UV-I 417 W/m² 13,7 °C 17,8 °C 4,8 km/h (1 Bft)
05.05.2026 13:18 17,9 °C 23,9 °C 13,9 °C 76 % 1009,3 hPa 0,0 l/m² 4,1 km/h (1 Bft) O-SO 110 ° 0 min 2,3 UV-I 441 W/m² 13,6 °C 17,9 °C 8,0 km/h (2 Bft)
05.05.2026 13:20 18,1 °C 24,4 °C 13,9 °C 76 % 1009,2 hPa 0,0 l/m² 3,9 km/h (1 Bft) O 80 ° 2 min 2,5 UV-I 469 W/m² 13,8 °C 18,1 °C 6,4 km/h (2 Bft)
05.05.2026 13:23 18,3 °C 25,0 °C 13,9 °C 75 % 1009,1 hPa 0,0 l/m² 3,4 km/h (1 Bft) O-SO 116 ° 3 min 2,8 UV-I 554 W/m² 13,8 °C 18,3 °C 8,0 km/h (2 Bft)
05.05.2026 13:24 18,2 °C 25,0 °C 13,9 °C 74 % 1009,1 hPa 0,0 l/m² 4,5 km/h (1 Bft) O-SO 115 ° 1 min 2,8 UV-I 554 W/m² 13,5 °C 18,2 °C 6,4 km/h (2 Bft)
05.05.2026 13:26 18,4 °C 26,1 °C 13,9 °C 75 % 1009,1 hPa 0,0 l/m² 2,0 km/h (1 Bft) SO 137 ° 2 min 3,0 UV-I 564 W/m² 13,9 °C 18,4 °C 6,4 km/h (2 Bft)
05.05.2026 13:28 18,5 °C 26,7 °C 13,9 °C 73 % 1009,1 hPa 0,0 l/m² 0,4 km/h (0 Bft) SO 127 ° 2 min 2,8 UV-I 548 W/m² 13,6 °C 18,5 °C 1,6 km/h (1 Bft)
05.05.2026 13:30 18,6 °C 26,7 °C 14,4 °C 74 % 1009,1 hPa 0,0 l/m² 4,7 km/h (1 Bft) O 98 ° 2 min 2,6 UV-I 482 W/m² 13,9 °C 18,6 °C 8,0 km/h (2 Bft)
05.05.2026 13:32 18,7 °C 26,7 °C 13,9 °C 73 % 1009,0 hPa 0,0 l/m² 3,2 km/h (1 Bft) O-SO 109 ° 2 min 2,5 UV-I 475 W/m² 13,8 °C 18,7 °C 6,4 km/h (2 Bft)
05.05.2026 13:34 18,7 °C 26,1 °C 13,9 °C 73 % 1009,0 hPa 0,0 l/m² 2,4 km/h (1 Bft) O 98 ° 2 min 2,4 UV-I 462 W/m² 13,8 °C 18,7 °C 4,8 km/h (1 Bft)
05.05.2026 13:36 18,6 °C 25,6 °C 13,9 °C 74 % 1009,0 hPa 0,0 l/m² 3,2 km/h (1 Bft) O-SO 113 ° 2 min 2,4 UV-I 461 W/m² 13,9 °C 18,6 °C 6,4 km/h (2 Bft)
05.05.2026 13:38 18,5 °C 26,1 °C 13,9 °C 74 % 1009,1 hPa 0,0 l/m² 0,9 km/h (0 Bft) O-SO 113 ° 2 min 2,4 UV-I 459 W/m² 13,8 °C 18,5 °C 3,2 km/h (1 Bft)
05.05.2026 13:40 18,6 °C 26,1 °C 13,9 °C 74 % 1009,0 hPa 0,0 l/m² 2,0 km/h (1 Bft) O-SO 111 ° 2 min 2,6 UV-I 506 W/m² 13,9 °C 18,6 °C 6,4 km/h (2 Bft)
05.05.2026 13:42 18,7 °C 26,1 °C 13,9 °C 73 % 1009,0 hPa 0,0 l/m² 2,6 km/h (1 Bft) O-SO 113 ° 2 min 2,5 UV-I 503 W/m² 13,8 °C 18,7 °C 4,8 km/h (1 Bft)
05.05.2026 13:44 18,7 °C 26,1 °C 14,4 °C 74 % 1009,0 hPa 0,0 l/m² 4,9 km/h (1 Bft) O 100 ° 2 min 2,4 UV-I 448 W/m² 14,0 °C 18,7 °C 8,0 km/h (2 Bft)
05.05.2026 13:46 18,7 °C 25,6 °C 13,9 °C 73 % 1009,0 hPa 0,0 l/m² 5,5 km/h (2 Bft) O 84 ° 2 min 2,4 UV-I 445 W/m² 13,8 °C 18,7 °C 9,7 km/h (2 Bft)
05.05.2026 13:48 18,6 °C 24,4 °C 14,4 °C 71 % 1009,0 hPa 0,0 l/m² 6,8 km/h (2 Bft) O-SO 116 ° 2 min 2,5 UV-I 454 W/m² 13,2 °C 18,6 °C 9,7 km/h (2 Bft)
05.05.2026 13:50 18,6 °C 24,4 °C 13,9 °C 72 % 1008,9 hPa 0,0 l/m² 5,5 km/h (2 Bft) O 94 ° 2 min 2,5 UV-I 468 W/m² 13,4 °C 18,6 °C 6,4 km/h (2 Bft)
05.05.2026 13:52 18,6 °C 24,4 °C 14,4 °C 72 % 1008,9 hPa 0,0 l/m² 3,5 km/h (1 Bft) O 79 ° 2 min 2,7 UV-I 512 W/m² 13,4 °C 18,6 °C 6,4 km/h (2 Bft)
05.05.2026 13:54 18,6 °C 25,0 °C 14,4 °C 72 % 1009,0 hPa 0,0 l/m² 2,3 km/h (1 Bft) O 79 ° 2 min 3,4 UV-I 656 W/m² 13,4 °C 18,6 °C 4,8 km/h (1 Bft)
05.05.2026 13:56 18,6 °C 26,7 °C 14,4 °C 71 % 1008,9 hPa 0,0 l/m² 0,4 km/h (0 Bft) O 79 ° 2 min 2,7 UV-I 656 W/m² 13,2 °C 18,6 °C 1,6 km/h (1 Bft)
05.05.2026 13:58 18,6 °C 26,7 °C 14,4 °C 72 % 1008,9 hPa 0,0 l/m² 0,9 km/h (0 Bft) O-NO 74 ° 2 min 3,1 UV-I 548 W/m² 13,4 °C 18,6 °C 3,2 km/h (1 Bft)
05.05.2026 14:00 19,1 °C 27,8 °C 13,9 °C 71 % 1008,9 hPa 0,0 l/m² 3,3 km/h (1 Bft) O-NO 75 ° 2 min 2,7 UV-I 548 W/m² 13,7 °C 19,1 °C 8,0 km/h (2 Bft)
05.05.2026 14:03 19,1 °C 26,7 °C 14,4 °C 68 % 1008,9 hPa 0,0 l/m² 4,7 km/h (1 Bft) NO 38 ° 3 min 3,6 UV-I 515 W/m² 13,1 °C 19,1 °C 8,0 km/h (2 Bft)
05.05.2026 14:04 19,1 °C 27,8 °C 13,9 °C 68 % 1008,8 hPa 0,0 l/m² 3,7 km/h (1 Bft) N-NO 32 ° 1 min 3,3 UV-I 515 W/m² 13,1 °C 19,1 °C 6,4 km/h (2 Bft)
05.05.2026 14:06 19,1 °C 27,2 °C 14,4 °C 65 % 1008,8 hPa 0,0 l/m² 5,6 km/h (2 Bft) O 90 ° 2 min 2,7 UV-I 506 W/m² 12,4 °C 19,1 °C 9,7 km/h (2 Bft)
05.05.2026 14:08 19,0 °C 26,7 °C 14,4 °C 65 % 1008,8 hPa 0,0 l/m² 4,0 km/h (1 Bft) SO 131 ° 0 min 2,4 UV-I 394 W/m² 12,3 °C 19,0 °C 6,4 km/h (2 Bft)
05.05.2026 14:10 18,9 °C 26,1 °C 13,9 °C 66 % 1008,8 hPa 0,0 l/m² 2,3 km/h (1 Bft) O-SO 117 ° 0 min 2,4 UV-I 413 W/m² 12,4 °C 18,9 °C 4,8 km/h (1 Bft)
05.05.2026 14:12 19,1 °C 25,6 °C 14,4 °C 65 % 1008,8 hPa 0,0 l/m² 3,4 km/h (1 Bft) N-NO 16 ° 2 min 2,5 UV-I 438 W/m² 12,4 °C 19,1 °C 8,0 km/h (2 Bft)
05.05.2026 14:14 18,9 °C 25,0 °C 14,4 °C 64 % 1008,8 hPa 0,0 l/m² 6,4 km/h (2 Bft) N-NO 19 ° 2 min 2,9 UV-I 480 W/m² 11,9 °C 18,9 °C 8,0 km/h (2 Bft)
05.05.2026 14:16 19,1 °C 25,0 °C 14,4 °C 64 % 1008,8 hPa 0,0 l/m² 5,1 km/h (1 Bft) NO 42 ° 2 min 3,0 UV-I 951 W/m² 12,1 °C 19,1 °C 9,7 km/h (2 Bft)
05.05.2026 14:18 19,2 °C 25,6 °C 14,4 °C 64 % 1008,7 hPa 0,0 l/m² 4,6 km/h (1 Bft) NO 42 ° 2 min 3,3 UV-I 613 W/m² 12,2 °C 19,2 °C 6,4 km/h (2 Bft)
05.05.2026 14:20 19,3 °C 26,1 °C 14,4 °C 65 % 1008,7 hPa 0,0 l/m² 3,6 km/h (1 Bft) O 101 ° 2 min 3,1 UV-I 626 W/m² 12,6 °C 19,3 °C 8,0 km/h (2 Bft)
05.05.2026 14:22 19,4 °C 26,1 °C 14,4 °C 65 % 1008,7 hPa 0,0 l/m² 6,8 km/h (2 Bft) O-NO 73 ° 2 min 3,7 UV-I 680 W/m² 12,6 °C 19,4 °C 11,3 km/h (2 Bft)
05.05.2026 14:24 19,6 °C 26,7 °C 14,4 °C 64 % 1008,6 hPa 0,0 l/m² 4,4 km/h (1 Bft) S 170 ° 2 min 3,8 UV-I 680 W/m² 12,6 °C 19,6 °C 8,0 km/h (2 Bft)
05.05.2026 14:26 19,9 °C 27,2 °C 14,4 °C 64 % 1008,6 hPa 0,0 l/m² 2,7 km/h (1 Bft) S-SO 149 ° 2 min 3,6 UV-I 606 W/m² 12,9 °C 19,9 °C 4,8 km/h (1 Bft)
05.05.2026 14:28 19,9 °C 27,2 °C 14,4 °C 64 % 1008,5 hPa 0,0 l/m² 3,1 km/h (1 Bft) O-SO 106 ° 2 min 3,0 UV-I 606 W/m² 12,9 °C 19,9 °C 6,4 km/h (2 Bft)
05.05.2026 14:30 19,9 °C 27,2 °C 14,4 °C 64 % 1008,5 hPa 0,0 l/m² 7,0 km/h (2 Bft) O-SO 110 ° 2 min 3,1 UV-I 606 W/m² 12,9 °C 19,9 °C 8,0 km/h (2 Bft)
05.05.2026 14:32 19,6 °C 27,2 °C 14,4 °C 62 % 1008,5 hPa 0,0 l/m² 3,1 km/h (1 Bft) O-SO 122 ° 2 min 2,8 UV-I 555 W/m² 12,1 °C 19,6 °C 8,0 km/h (2 Bft)
05.05.2026 14:34 19,6 °C 27,8 °C 14,4 °C 65 % 1008,5 hPa 0,0 l/m² 4,1 km/h (1 Bft) NO 45 ° 2 min 2,9 UV-I 570 W/m² 12,8 °C 19,6 °C 12,9 km/h (3 Bft)
05.05.2026 14:36 19,7 °C 27,8 °C 14,4 °C 63 % 1008,5 hPa 0,0 l/m² 7,6 km/h (2 Bft) O-SO 107 ° 2 min 3,1 UV-I 622 W/m² 12,5 °C 19,7 °C 12,9 km/h (3 Bft)
05.05.2026 14:38 19,7 °C 27,2 °C 14,4 °C 63 % 1008,5 hPa 0,0 l/m² 6,3 km/h (2 Bft) O-SO 111 ° 2 min 3,0 UV-I 529 W/m² 12,5 °C 19,7 °C 11,3 km/h (2 Bft)
05.05.2026 14:40 19,9 °C 28,3 °C 14,4 °C 64 % 1008,5 hPa 0,0 l/m² 5,5 km/h (2 Bft) S-SO 150 ° 2 min 3,3 UV-I 814 W/m² 12,9 °C 19,9 °C 11,3 km/h (2 Bft)
05.05.2026 14:42 20,1 °C 30,6 °C 14,4 °C 62 % 1008,5 hPa 0,0 l/m² 4,2 km/h (1 Bft) S-SO 164 ° 2 min 3,0 UV-I 838 W/m² 12,6 °C 20,1 °C 8,0 km/h (2 Bft)
05.05.2026 14:44 20,2 °C 30,6 °C 14,4 °C 62 % 1008,5 hPa 0,0 l/m² 4,3 km/h (1 Bft) SO 146 ° 2 min 3,4 UV-I 624 W/m² 12,7 °C 20,2 °C 8,0 km/h (2 Bft)
05.05.2026 14:46 20,4 °C 31,1 °C 14,4 °C 63 % 1008,4 hPa 0,0 l/m² 3,7 km/h (1 Bft) S 169 ° 2 min 3,4 UV-I 798 W/m² 13,1 °C 20,4 °C 6,4 km/h (2 Bft)
05.05.2026 14:48 20,3 °C 32,8 °C 14,4 °C 58 % 1008,5 hPa 0,0 l/m² 3,2 km/h (1 Bft) S 176 ° 2 min 3,0 UV-I 795 W/m² 11,8 °C 20,3 °C 6,4 km/h (2 Bft)
05.05.2026 14:50 20,0 °C 31,7 °C 14,4 °C 59 % 1008,4 hPa 0,0 l/m² 3,1 km/h (1 Bft) S 178 ° 2 min 2,7 UV-I 515 W/m² 11,7 °C 20,0 °C 4,8 km/h (1 Bft)
05.05.2026 14:52 19,7 °C 30,0 °C 14,4 °C 59 % 1008,4 hPa 0,0 l/m² 2,5 km/h (1 Bft) S 178 ° 2 min 3,1 UV-I 522 W/m² 11,5 °C 19,7 °C 4,8 km/h (1 Bft)
05.05.2026 14:54 19,8 °C 30,6 °C 14,4 °C 62 % 1008,5 hPa 0,0 l/m² 2,3 km/h (1 Bft) S 175 ° 2 min 2,9 UV-I 638 W/m² 12,3 °C 19,8 °C 4,8 km/h (1 Bft)
05.05.2026 14:56 20,1 °C 30,6 °C 14,4 °C 61 % 1008,4 hPa 0,0 l/m² 2,6 km/h (1 Bft) S-SO 156 ° 2 min 3,0 UV-I 668 W/m² 12,3 °C 20,1 °C 8,0 km/h (2 Bft)
05.05.2026 14:58 20,3 °C 31,7 °C 14,4 °C 61 % 1008,3 hPa 0,0 l/m² 6,6 km/h (2 Bft) O-NO 65 ° 2 min 2,7 UV-I 585 W/m² 12,5 °C 20,3 °C 11,3 km/h (2 Bft)
05.05.2026 15:00 20,3 °C 30,0 °C 14,4 °C 59 % 1008,3 hPa 0,0 l/m² 5,4 km/h (2 Bft) O-NO 65 ° 2 min 2,8 UV-I 571 W/m² 12,0 °C 20,3 °C 9,7 km/h (2 Bft)
05.05.2026 15:02 20,3 °C 29,4 °C 14,4 °C 60 % 1008,3 hPa 0,0 l/m² 3,2 km/h (1 Bft) NO 55 ° 2 min 2,7 UV-I 594 W/m² 12,3 °C 20,3 °C 8,0 km/h (2 Bft)
05.05.2026 15:04 20,2 °C 30,0 °C 14,4 °C 60 % 1008,3 hPa 0,0 l/m² 4,5 km/h (1 Bft) N-NO 15 ° 2 min 2,7 UV-I 608 W/m² 12,2 °C 20,2 °C 9,7 km/h (2 Bft)
05.05.2026 15:06 20,2 °C 30,0 °C 14,4 °C 61 % 1008,2 hPa 0,0 l/m² 3,5 km/h (1 Bft) N 349 ° 2 min 2,6 UV-I 578 W/m² 12,4 °C 20,2 °C 4,8 km/h (1 Bft)
05.05.2026 15:08 20,5 °C 30,6 °C 14,4 °C 63 % 1008,2 hPa 0,0 l/m² 2,1 km/h (1 Bft) N 6 ° 2 min 2,7 UV-I 633 W/m² 13,2 °C 20,5 °C 4,8 km/h (1 Bft)
05.05.2026 15:10 20,8 °C 30,6 °C 14,4 °C 60 % 1008,3 hPa 0,0 l/m² 4,3 km/h (1 Bft) O-SO 107 ° 2 min 2,6 UV-I 621 W/m² 12,7 °C 20,8 °C 6,4 km/h (2 Bft)
05.05.2026 15:12 20,8 °C 30,0 °C 14,4 °C 58 % 1008,2 hPa 0,0 l/m² 4,3 km/h (1 Bft) O-SO 106 ° 2 min 2,5 UV-I 582 W/m² 12,2 °C 20,8 °C 8,0 km/h (2 Bft)
05.05.2026 15:14 20,7 °C 29,4 °C 14,4 °C 56 % 1008,2 hPa 0,0 l/m² 3,7 km/h (1 Bft) O 86 ° 2 min 2,2 UV-I 506 W/m² 11,6 °C 20,7 °C 8,0 km/h (2 Bft)
05.05.2026 15:16 20,8 °C 28,9 °C 14,4 °C 59 % 1008,3 hPa 0,0 l/m² 6,4 km/h (2 Bft) O-NO 77 ° 2 min 1,9 UV-I 436 W/m² 12,5 °C 20,8 °C 8,0 km/h (2 Bft)
05.05.2026 15:18 20,6 °C 28,3 °C 14,4 °C 57 % 1008,2 hPa 0,0 l/m² 1,7 km/h (1 Bft) O-NO 71 ° 2 min 2,0 UV-I 508 W/m² 11,8 °C 20,6 °C 4,8 km/h (1 Bft)
05.05.2026 15:20 20,4 °C 28,9 °C 14,4 °C 59 % 1008,2 hPa 0,0 l/m² 5,6 km/h (2 Bft) O-SO 104 ° 0 min 1,5 UV-I 330 W/m² 12,1 °C 20,4 °C 11,3 km/h (2 Bft)
05.05.2026 15:22 20,3 °C 27,2 °C 14,4 °C 57 % 1008,3 hPa 0,0 l/m² 5,8 km/h (2 Bft) O-SO 115 ° 0 min 1,4 UV-I 302 W/m² 11,5 °C 20,3 °C 11,3 km/h (2 Bft)
05.05.2026 15:24 20,2 °C 25,6 °C 14,4 °C 58 % 1008,2 hPa 0,0 l/m² 4,1 km/h (1 Bft) SO 128 ° 0 min 1,3 UV-I 274 W/m² 11,7 °C 20,2 °C 8,0 km/h (2 Bft)
05.05.2026 15:26 20,1 °C 24,4 °C 14,4 °C 60 % 1008,2 hPa 0,0 l/m² 3,4 km/h (1 Bft) S-SO 149 ° 0 min 1,3 UV-I 250 W/m² 12,1 °C 20,1 °C 8,0 km/h (2 Bft)
05.05.2026 15:28 20,1 °C 23,9 °C 14,4 °C 60 % 1008,2 hPa 0,0 l/m² 5,1 km/h (1 Bft) SO 134 ° 0 min 1,2 UV-I 239 W/m² 12,1 °C 20,1 °C 8,0 km/h (2 Bft)
05.05.2026 15:30 19,9 °C 23,3 °C 14,4 °C 60 % 1008,2 hPa 0,0 l/m² 2,5 km/h (1 Bft) SO 137 ° 0 min 1,2 UV-I 229 W/m² 11,9 °C 19,9 °C 4,8 km/h (1 Bft)
05.05.2026 15:32 19,8 °C 22,8 °C 14,4 °C 60 % 1008,2 hPa 0,0 l/m² 1,3 km/h (1 Bft) SO 131 ° 0 min 1,1 UV-I 227 W/m² 11,8 °C 19,8 °C 4,8 km/h (1 Bft)
05.05.2026 15:34 19,7 °C 22,8 °C 14,4 °C 61 % 1008,2 hPa 0,0 l/m² 4,8 km/h (1 Bft) SO 139 ° 0 min 1,2 UV-I 232 W/m² 12,0 °C 19,7 °C 9,7 km/h (2 Bft)
05.05.2026 15:36 19,8 °C 22,2 °C 14,4 °C 62 % 1008,2 hPa 0,0 l/m² 6,1 km/h (2 Bft) SO 132 ° 0 min 1,1 UV-I 244 W/m² 12,3 °C 19,8 °C 11,3 km/h (2 Bft)
05.05.2026 15:38 19,7 °C 22,2 °C 14,4 °C 61 % 1008,2 hPa 0,0 l/m² 1,6 km/h (1 Bft) SO 136 ° 0 min 1,2 UV-I 257 W/m² 12,0 °C 19,7 °C 4,8 km/h (1 Bft)
05.05.2026 15:40 19,6 °C 22,2 °C 14,4 °C 62 % 1008,2 hPa 0,0 l/m² 1,2 km/h (1 Bft) SO 136 ° 0 min 1,3 UV-I 299 W/m² 12,1 °C 19,6 °C 3,2 km/h (1 Bft)
05.05.2026 15:42 19,7 °C 23,3 °C 14,4 °C 62 % 1008,2 hPa 0,0 l/m² 1,8 km/h (1 Bft) S 170 ° 0 min 1,3 UV-I 301 W/m² 12,2 °C 19,7 °C 4,8 km/h (1 Bft)
05.05.2026 15:44 19,8 °C 23,3 °C 14,4 °C 62 % 1008,1 hPa 0,0 l/m² 2,2 km/h (1 Bft) S 174 ° 0 min 1,3 UV-I 285 W/m² 12,3 °C 19,8 °C 6,4 km/h (2 Bft)
05.05.2026 15:46 19,8 °C 23,3 °C 14,4 °C 62 % 1008,1 hPa 0,0 l/m² 4,8 km/h (1 Bft) S-SO 149 ° 0 min 1,3 UV-I 288 W/m² 12,3 °C 19,8 °C 8,0 km/h (2 Bft)
05.05.2026 15:48 19,8 °C 23,3 °C 15,0 °C 62 % 1008,1 hPa 0,0 l/m² 3,6 km/h (1 Bft) S-SO 156 ° 0 min 1,2 UV-I 288 W/m² 12,3 °C 19,8 °C 8,0 km/h (2 Bft)
05.05.2026 15:50 19,8 °C 23,3 °C 15,0 °C 62 % 1008,1 hPa 0,0 l/m² 0,8 km/h (0 Bft) S-SO 156 ° 0 min 1,0 UV-I 255 W/m² 12,3 °C 19,8 °C 3,2 km/h (1 Bft)
05.05.2026 15:52 19,9 °C 23,3 °C 15,0 °C 62 % 1008,1 hPa 0,0 l/m² 3,2 km/h (1 Bft) O-SO 111 ° 0 min 1,0 UV-I 239 W/m² 12,4 °C 19,9 °C 6,4 km/h (2 Bft)
05.05.2026 15:54 19,8 °C 22,8 °C 14,4 °C 61 % 1008,1 hPa 0,0 l/m² 2,6 km/h (1 Bft) O-SO 112 ° 0 min 0,9 UV-I 227 W/m² 12,1 °C 19,8 °C 4,8 km/h (1 Bft)
05.05.2026 15:56 19,8 °C 22,8 °C 15,0 °C 61 % 1008,1 hPa 0,0 l/m² 0,5 km/h (0 Bft) O-SO 114 ° 0 min 0,9 UV-I 227 W/m² 12,1 °C 19,8 °C 3,2 km/h (1 Bft)
05.05.2026 15:58 19,8 °C 22,8 °C 14,4 °C 63 % 1008,1 hPa 0,0 l/m² 1,6 km/h (1 Bft) S 171 ° 0 min 0,9 UV-I 230 W/m² 12,5 °C 19,8 °C 4,8 km/h (1 Bft)
05.05.2026 16:00 19,7 °C 22,2 °C 14,4 °C 62 % 1008,1 hPa 0,0 l/m² 4,7 km/h (1 Bft) SO 136 ° 0 min 1,0 UV-I 246 W/m² 12,2 °C 19,7 °C 8,0 km/h (2 Bft)
05.05.2026 16:02 19,6 °C 22,2 °C 14,4 °C 62 % 1008,0 hPa 0,0 l/m² 2,8 km/h (1 Bft) SO 130 ° 0 min 1,0 UV-I 267 W/m² 12,1 °C 19,6 °C 4,8 km/h (1 Bft)
05.05.2026 16:04 19,7 °C 22,8 °C 14,4 °C 63 % 1007,9 hPa 0,0 l/m² 2,9 km/h (1 Bft) O-SO 122 ° 0 min 1,1 UV-I 281 W/m² 12,5 °C 19,7 °C 6,4 km/h (2 Bft)
05.05.2026 16:06 19,7 °C 23,3 °C 15,0 °C 61 % 1008,0 hPa 0,0 l/m² 1,5 km/h (1 Bft) O-SO 122 ° 2 min 1,3 UV-I 371 W/m² 12,0 °C 19,7 °C 3,2 km/h (1 Bft)
05.05.2026 16:08 20,0 °C 25,0 °C 14,4 °C 63 % 1008,0 hPa 0,0 l/m² 3,1 km/h (1 Bft) S-SO 156 ° 2 min 1,4 UV-I 373 W/m² 12,7 °C 20,0 °C 4,8 km/h (1 Bft)
05.05.2026 16:10 20,2 °C 26,1 °C 15,0 °C 61 % 1007,9 hPa 0,0 l/m² 4,8 km/h (1 Bft) SO 127 ° 2 min 1,5 UV-I 399 W/m² 12,4 °C 20,2 °C 8,0 km/h (2 Bft)
05.05.2026 16:12 20,2 °C 27,2 °C 15,0 °C 61 % 1007,9 hPa 0,0 l/m² 3,3 km/h (1 Bft) SO 128 ° 2 min 1,6 UV-I 459 W/m² 12,4 °C 20,2 °C 6,4 km/h (2 Bft)
05.05.2026 16:14 20,4 °C 27,8 °C 15,0 °C 60 % 1007,9 hPa 0,0 l/m² 5,7 km/h (2 Bft) O-SO 119 ° 2 min 1,7 UV-I 527 W/m² 12,4 °C 20,4 °C 8,0 km/h (2 Bft)
05.05.2026 16:16 20,4 °C 29,4 °C 15,0 °C 59 % 1007,8 hPa 0,0 l/m² 4,0 km/h (1 Bft) O-SO 119 ° 2 min 1,9 UV-I 679 W/m² 12,1 °C 20,4 °C 6,4 km/h (2 Bft)
05.05.2026 16:18 20,4 °C 31,1 °C 14,4 °C 59 % 1007,8 hPa 0,0 l/m² 2,9 km/h (1 Bft) O-SO 119 ° 2 min 1,9 UV-I 636 W/m² 12,1 °C 20,4 °C 4,8 km/h (1 Bft)
05.05.2026 16:20 20,6 °C 31,7 °C 15,0 °C 60 % 1007,8 hPa 0,0 l/m² 3,7 km/h (1 Bft) O-SO 119 ° 2 min 1,9 UV-I 617 W/m² 12,6 °C 20,6 °C 6,4 km/h (2 Bft)
05.05.2026 16:22 20,9 °C 32,2 °C 14,4 °C 61 % 1007,8 hPa 0,0 l/m² 4,3 km/h (1 Bft) N-NO 19 ° 2 min 1,8 UV-I 628 W/m² 13,1 °C 20,9 °C 9,7 km/h (2 Bft)
05.05.2026 16:24 20,9 °C 31,7 °C 15,0 °C 58 % 1007,8 hPa 0,0 l/m² 3,6 km/h (1 Bft) N-NO 17 ° 2 min 1,9 UV-I 677 W/m² 12,3 °C 20,9 °C 6,4 km/h (2 Bft)
05.05.2026 16:26 20,9 °C 31,7 °C 15,0 °C 58 % 1007,7 hPa 0,0 l/m² 3,8 km/h (1 Bft) SO 144 ° 2 min 1,8 UV-I 524 W/m² 12,3 °C 20,9 °C 6,4 km/h (2 Bft)
05.05.2026 16:28 21,1 °C 32,8 °C 15,0 °C 60 % 1007,7 hPa 0,0 l/m² 4,7 km/h (1 Bft) O-NO 70 ° 2 min 2,0 UV-I 712 W/m² 13,0 °C 21,1 °C 8,0 km/h (2 Bft)
05.05.2026 16:30 21,3 °C 33,9 °C 14,4 °C 59 % 1007,7 hPa 0,0 l/m² 6,3 km/h (2 Bft) O-NO 65 ° 2 min 1,9 UV-I 700 W/m² 13,0 °C 21,3 °C 9,7 km/h (2 Bft)
05.05.2026 16:32 21,4 °C 33,9 °C 15,0 °C 57 % 1007,7 hPa 0,0 l/m² 8,6 km/h (2 Bft) N-NO 17 ° 2 min 1,9 UV-I 643 W/m² 12,5 °C 21,4 °C 12,9 km/h (3 Bft)
05.05.2026 16:34 21,4 °C 32,8 °C 14,4 °C 58 % 1007,7 hPa 0,0 l/m² 6,0 km/h (2 Bft) N 5 ° 2 min 1,8 UV-I 628 W/m² 12,8 °C 21,4 °C 8,0 km/h (2 Bft)
05.05.2026 16:36 21,5 °C 32,2 °C 15,0 °C 58 % 1007,7 hPa 0,0 l/m² 3,8 km/h (1 Bft) N-NW 348 ° 2 min 1,6 UV-I 536 W/m² 12,9 °C 21,5 °C 8,0 km/h (2 Bft)
05.05.2026 16:38 21,5 °C 31,1 °C 14,4 °C 57 % 1007,7 hPa 0,0 l/m² 6,2 km/h (2 Bft) N 350 ° 2 min 1,5 UV-I 475 W/m² 12,6 °C 21,5 °C 11,3 km/h (2 Bft)
05.05.2026 16:40 21,3 °C 29,4 °C 15,0 °C 57 % 1007,6 hPa 0,0 l/m² 5,9 km/h (2 Bft) NO 41 ° 2 min 1,5 UV-I 503 W/m² 12,4 °C 21,3 °C 9,7 km/h (2 Bft)
05.05.2026 16:42 21,2 °C 28,9 °C 15,0 °C 60 % 1007,6 hPa 0,0 l/m² 3,7 km/h (1 Bft) N 352 ° 2 min 1,3 UV-I 366 W/m² 13,1 °C 21,2 °C 8,0 km/h (2 Bft)
05.05.2026 16:44 21,1 °C 27,8 °C 15,0 °C 58 % 1007,6 hPa 0,0 l/m² 2,9 km/h (1 Bft) N 2 ° 2 min 1,3 UV-I 348 W/m² 12,5 °C 21,1 °C 4,8 km/h (1 Bft)
05.05.2026 16:46 20,9 °C 26,7 °C 15,0 °C 59 % 1007,6 hPa 0,0 l/m² 2,1 km/h (1 Bft) N-NO 30 ° 2 min 1,3 UV-I 343 W/m² 12,6 °C 20,9 °C 11,3 km/h (2 Bft)
05.05.2026 16:48 20,8 °C 25,6 °C 15,0 °C 58 % 1007,6 hPa 0,0 l/m² 9,0 km/h (2 Bft) O-SO 114 ° 2 min 1,2 UV-I 332 W/m² 12,2 °C 20,8 °C 12,9 km/h (3 Bft)
05.05.2026 16:50 20,8 °C 25,0 °C 15,0 °C 60 % 1007,7 hPa 0,0 l/m² 6,7 km/h (2 Bft) O 96 ° 2 min 1,3 UV-I 346 W/m² 12,7 °C 20,8 °C 9,7 km/h (2 Bft)
05.05.2026 16:52 20,7 °C 24,4 °C 15,0 °C 59 % 1007,6 hPa 0,0 l/m² 3,5 km/h (1 Bft) NO 39 ° 2 min 1,2 UV-I 353 W/m² 12,4 °C 20,7 °C 6,4 km/h (2 Bft)
05.05.2026 16:54 20,6 °C 24,4 °C 15,0 °C 59 % 1007,6 hPa 0,0 l/m² 3,9 km/h (1 Bft) NO 55 ° 2 min 1,3 UV-I 413 W/m² 12,3 °C 20,6 °C 8,0 km/h (2 Bft)
05.05.2026 16:56 20,6 °C 25,0 °C 15,0 °C 59 % 1007,5 hPa 0,0 l/m² 4,7 km/h (1 Bft) NO 55 ° 2 min 1,3 UV-I 406 W/m² 12,3 °C 20,6 °C 11,3 km/h (2 Bft)
05.05.2026 16:58 20,6 °C 25,6 °C 15,0 °C 60 % 1007,5 hPa 0,0 l/m² 4,3 km/h (1 Bft) N-NW 335 ° 2 min 1,2 UV-I 334 W/m² 12,6 °C 20,6 °C 6,4 km/h (2 Bft)
05.05.2026 17:00 20,6 °C 25,6 °C 15,0 °C 60 % 1007,5 hPa 0,0 l/m² 4,4 km/h (1 Bft) N 4 ° 2 min 1,1 UV-I 320 W/m² 12,6 °C 20,6 °C 9,7 km/h (2 Bft)
05.05.2026 17:02 20,6 °C 25,0 °C 15,0 °C 59 % 1007,5 hPa 0,0 l/m² 4,7 km/h (1 Bft) N 2 ° 2 min 1,1 UV-I 311 W/m² 12,3 °C 20,6 °C 9,7 km/h (2 Bft)
05.05.2026 17:04 20,7 °C 24,4 °C 15,0 °C 59 % 1007,5 hPa 0,0 l/m² 6,8 km/h (2 Bft) NO 55 ° 2 min 1,1 UV-I 302 W/m² 12,4 °C 20,7 °C 12,9 km/h (3 Bft)
05.05.2026 17:06 20,7 °C 24,4 °C 15,0 °C 59 % 1007,5 hPa 0,0 l/m² 5,5 km/h (2 Bft) NO 55 ° 0 min 1,0 UV-I 274 W/m² 12,4 °C 20,7 °C 9,7 km/h (2 Bft)
05.05.2026 17:08 20,6 °C 23,9 °C 15,0 °C 59 % 1007,4 hPa 0,0 l/m² 5,7 km/h (2 Bft) O-SO 105 ° 0 min 1,0 UV-I 257 W/m² 12,3 °C 20,6 °C 11,3 km/h (2 Bft)
05.05.2026 17:10 20,4 °C 23,3 °C 15,0 °C 59 % 1007,4 hPa 0,0 l/m² 4,8 km/h (1 Bft) O-SO 115 ° 0 min 0,9 UV-I 243 W/m² 12,1 °C 20,4 °C 8,0 km/h (2 Bft)
05.05.2026 17:13 20,3 °C 22,8 °C 15,0 °C 60 % 1007,4 hPa 0,0 l/m² 5,3 km/h (1 Bft) O-SO 122 ° 0 min 0,9 UV-I 236 W/m² 12,3 °C 20,3 °C 9,7 km/h (2 Bft)
05.05.2026 17:14 20,3 °C 22,8 °C 15,0 °C 59 % 1007,4 hPa 0,0 l/m² 5,3 km/h (1 Bft) O-SO 109 ° 0 min 0,9 UV-I 234 W/m² 12,0 °C 20,3 °C 6,4 km/h (2 Bft)
05.05.2026 17:16 20,2 °C 22,2 °C 15,0 °C 58 % 1007,3 hPa 0,0 l/m² 8,1 km/h (2 Bft) O 94 ° 0 min 0,9 UV-I 229 W/m² 11,7 °C 20,2 °C 11,3 km/h (2 Bft)
05.05.2026 17:18 20,2 °C 22,2 °C 15,0 °C 58 % 1007,3 hPa 0,0 l/m² 5,4 km/h (2 Bft) O-SO 110 ° 0 min 0,8 UV-I 236 W/m² 11,7 °C 20,2 °C 8,0 km/h (2 Bft)
05.05.2026 17:20 20,2 °C 21,7 °C 15,0 °C 59 % 1007,3 hPa 0,0 l/m² 4,2 km/h (1 Bft) O-SO 107 ° 0 min 0,8 UV-I 225 W/m² 11,9 °C 20,2 °C 8,0 km/h (2 Bft)
05.05.2026 17:22 20,2 °C 21,7 °C 15,0 °C 59 % 1007,3 hPa 0,0 l/m² 6,1 km/h (2 Bft) O 92 ° 0 min 0,8 UV-I 207 W/m² 11,9 °C 20,2 °C 9,7 km/h (2 Bft)
05.05.2026 17:24 20,2 °C 21,7 °C 15,0 °C 58 % 1007,3 hPa 0,0 l/m² 5,2 km/h (1 Bft) O 81 ° 0 min 0,7 UV-I 204 W/m² 11,7 °C 20,2 °C 6,4 km/h (2 Bft)
05.05.2026 17:26 20,2 °C 21,7 °C 15,0 °C 57 % 1007,3 hPa 0,0 l/m² 3,2 km/h (1 Bft) NO 55 ° 0 min 0,7 UV-I 207 W/m² 11,4 °C 20,2 °C 4,8 km/h (1 Bft)
05.05.2026 17:28 20,2 °C 21,7 °C 15,0 °C 58 % 1007,3 hPa 0,0 l/m² 3,2 km/h (1 Bft) O-NO 65 ° 0 min 0,7 UV-I 213 W/m² 11,7 °C 20,2 °C 6,4 km/h (2 Bft)
05.05.2026 17:30 20,3 °C 21,7 °C 15,0 °C 59 % 1007,3 hPa 0,0 l/m² 6,5 km/h (2 Bft) O-SO 102 ° 0 min 0,7 UV-I 218 W/m² 12,0 °C 20,3 °C 9,7 km/h (2 Bft)
05.05.2026 17:32 20,2 °C 21,7 °C 15,0 °C 59 % 1007,3 hPa 0,0 l/m² 6,9 km/h (2 Bft) O-SO 122 ° 0 min 0,8 UV-I 220 W/m² 11,9 °C 20,2 °C 12,9 km/h (3 Bft)
05.05.2026 17:34 20,2 °C 21,7 °C 15,0 °C 59 % 1007,3 hPa 0,0 l/m² 6,1 km/h (2 Bft) O-SO 112 ° 0 min 0,7 UV-I 214 W/m² 11,9 °C 20,2 °C 9,7 km/h (2 Bft)
05.05.2026 17:36 20,1 °C 21,7 °C 15,0 °C 59 % 1007,2 hPa 0,0 l/m² 3,9 km/h (1 Bft) O-SO 116 ° 0 min 0,7 UV-I 204 W/m² 11,8 °C 20,1 °C 6,4 km/h (2 Bft)
05.05.2026 17:38 20,1 °C 21,7 °C 15,0 °C 58 % 1007,2 hPa 0,0 l/m² 6,0 km/h (2 Bft) O-SO 119 ° 0 min 0,6 UV-I 190 W/m² 11,6 °C 20,1 °C 8,0 km/h (2 Bft)
05.05.2026 17:40 20,1 °C 21,7 °C 15,0 °C 59 % 1007,2 hPa 0,0 l/m² 1,9 km/h (1 Bft) O-SO 115 ° 0 min 0,6 UV-I 165 W/m² 11,8 °C 20,1 °C 4,8 km/h (1 Bft)
05.05.2026 17:42 20,1 °C 21,1 °C 15,0 °C 59 % 1007,2 hPa 0,0 l/m² 5,6 km/h (2 Bft) O-SO 104 ° 0 min 0,5 UV-I 148 W/m² 11,8 °C 20,1 °C 9,7 km/h (2 Bft)
05.05.2026 17:44 20,0 °C 21,1 °C 15,0 °C 59 % 1007,2 hPa 0,0 l/m² 4,2 km/h (1 Bft) O 94 ° 0 min 0,5 UV-I 139 W/m² 11,7 °C 20,0 °C 6,4 km/h (2 Bft)
05.05.2026 17:46 19,9 °C 20,6 °C 15,0 °C 59 % 1007,2 hPa 0,0 l/m² 4,0 km/h (1 Bft) O-SO 111 ° 0 min 0,0 UV-I 125 W/m² 11,6 °C 19,9 °C 6,4 km/h (2 Bft)
05.05.2026 17:48 19,9 °C 20,6 °C 15,0 °C 60 % 1007,1 hPa 0,0 l/m² 4,8 km/h (1 Bft) O 95 ° 0 min 0,0 UV-I 113 W/m² 11,9 °C 19,9 °C 6,4 km/h (2 Bft)
05.05.2026 17:50 19,8 °C 20,0 °C 15,0 °C 59 % 1007,1 hPa 0,0 l/m² 5,0 km/h (1 Bft) O 81 ° 0 min 0,0 UV-I 102 W/m² 11,6 °C 19,8 °C 6,4 km/h (2 Bft)
05.05.2026 17:52 19,8 °C 19,4 °C 15,0 °C 59 % 1007,1 hPa 0,0 l/m² 3,4 km/h (1 Bft) N 9 ° 0 min 0,0 UV-I 90 W/m² 11,6 °C 19,8 °C 6,4 km/h (2 Bft)
05.05.2026 17:54 19,8 °C 19,4 °C 15,0 °C 60 % 1007,1 hPa 0,0 l/m² 7,5 km/h (2 Bft) O 88 ° 0 min 0,0 UV-I 84 W/m² 11,8 °C 19,8 °C 12,9 km/h (3 Bft)
05.05.2026 17:56 19,8 °C 18,9 °C 15,0 °C 61 % 1007,1 hPa 0,0 l/m² 10,0 km/h (2 Bft) O 84 ° 0 min 0,0 UV-I 81 W/m² 12,1 °C 19,8 °C 22,5 km/h (4 Bft)
05.05.2026 17:58 19,7 °C 18,9 °C 15,0 °C 64 % 1007,1 hPa 0,0 l/m² 9,6 km/h (2 Bft) NO 55 ° 0 min 0,0 UV-I 76 W/m² 12,7 °C 19,7 °C 20,9 km/h (4 Bft)
05.05.2026 18:00 19,5 °C 18,3 °C 15,0 °C 64 % 1007,2 hPa 0,0 l/m² 10,4 km/h (2 Bft) N-NO 33 ° 0 min 0,0 UV-I 74 W/m² 12,5 °C 19,5 °C 16,1 km/h (3 Bft)
05.05.2026 18:02 19,3 °C 18,3 °C 15,0 °C 66 % 1007,1 hPa 0,0 l/m² 11,8 km/h (2 Bft) NO 50 ° 0 min 0,0 UV-I 72 W/m² 12,8 °C 19,3 °C 19,3 km/h (3 Bft)
05.05.2026 18:04 19,1 °C 18,3 °C 15,0 °C 66 % 1007,1 hPa 0,0 l/m² 10,7 km/h (2 Bft) NO 55 ° 0 min 0,0 UV-I 70 W/m² 12,6 °C 19,1 °C 16,1 km/h (3 Bft)
05.05.2026 18:06 18,9 °C 18,3 °C 15,0 °C 67 % 1007,1 hPa 0,0 l/m² 13,9 km/h (3 Bft) NO 42 ° 0 min 0,0 UV-I 70 W/m² 12,6 °C 18,9 °C 20,9 km/h (4 Bft)
05.05.2026 18:08 18,9 °C 17,8 °C 15,0 °C 68 % 1007,1 hPa 0,0 l/m² 7,4 km/h (2 Bft) NO 45 ° 0 min 0,0 UV-I 74 W/m² 12,9 °C 18,9 °C 12,9 km/h (3 Bft)
05.05.2026 18:10 18,8 °C 17,8 °C 15,0 °C 68 % 1007,1 hPa 0,0 l/m² 7,9 km/h (2 Bft) NO 55 ° 0 min 0,0 UV-I 76 W/m² 12,8 °C 18,8 °C 19,3 km/h (3 Bft)
05.05.2026 18:12 18,8 °C 17,8 °C 15,0 °C 69 % 1007,1 hPa 0,0 l/m² 9,2 km/h (2 Bft) O 86 ° 0 min 0,0 UV-I 79 W/m² 13,0 °C 18,8 °C 14,5 km/h (3 Bft)
05.05.2026 18:14 18,7 °C 17,8 °C 15,0 °C 69 % 1007,0 hPa 0,0 l/m² 9,3 km/h (2 Bft) N-NO 20 ° 0 min 0,0 UV-I 83 W/m² 12,9 °C 18,7 °C 16,1 km/h (3 Bft)
05.05.2026 18:16 18,7 °C 17,8 °C 15,0 °C 69 % 1007,0 hPa 0,0 l/m² 9,4 km/h (2 Bft) N-NO 27 ° 0 min 0,0 UV-I 84 W/m² 12,9 °C 18,7 °C 16,1 km/h (3 Bft)
05.05.2026 18:18 18,7 °C 17,8 °C 15,0 °C 70 % 1007,0 hPa 0,0 l/m² 6,5 km/h (2 Bft) NO 37 ° 0 min 0,0 UV-I 88 W/m² 13,1 °C 18,7 °C 14,5 km/h (3 Bft)
05.05.2026 18:20 18,6 °C 18,3 °C 15,0 °C 70 % 1007,0 hPa 0,0 l/m² 7,6 km/h (2 Bft) NO 55 ° 0 min 0,0 UV-I 90 W/m² 13,0 °C 18,6 °C 14,5 km/h (3 Bft)
05.05.2026 18:22 18,6 °C 18,3 °C 15,0 °C 70 % 1006,9 hPa 0,0 l/m² 6,7 km/h (2 Bft) NO 51 ° 0 min 0,0 UV-I 98 W/m² 13,0 °C 18,6 °C 11,3 km/h (2 Bft)
05.05.2026 18:24 18,6 °C 18,3 °C 15,0 °C 70 % 1006,9 hPa 0,0 l/m² 4,4 km/h (1 Bft) O 92 ° 0 min 0,0 UV-I 105 W/m² 13,0 °C 18,6 °C 9,7 km/h (2 Bft)
05.05.2026 18:26 18,6 °C 18,3 °C 15,0 °C 71 % 1006,9 hPa 0,0 l/m² 6,3 km/h (2 Bft) N-NO 27 ° 0 min 0,0 UV-I 125 W/m² 13,2 °C 18,6 °C 9,7 km/h (2 Bft)
05.05.2026 18:28 18,6 °C 18,3 °C 15,0 °C 71 % 1006,9 hPa 0,0 l/m² 5,3 km/h (1 Bft) NO 40 ° 0 min 0,0 UV-I 141 W/m² 13,2 °C 18,6 °C 11,3 km/h (2 Bft)
05.05.2026 18:30 18,6 °C 18,3 °C 15,0 °C 71 % 1006,9 hPa 0,0 l/m² 5,4 km/h (2 Bft) N-NO 33 ° 0 min 0,0 UV-I 148 W/m² 13,2 °C 18,6 °C 9,7 km/h (2 Bft)
05.05.2026 18:32 18,7 °C 18,9 °C 15,0 °C 71 % 1006,9 hPa 0,0 l/m² 7,1 km/h (2 Bft) NO 47 ° 0 min 0,0 UV-I 162 W/m² 13,3 °C 18,7 °C 16,1 km/h (3 Bft)
05.05.2026 18:34 18,6 °C 18,9 °C 15,0 °C 71 % 1006,9 hPa 0,0 l/m² 10,4 km/h (2 Bft) O-NO 60 ° 2 min 0,5 UV-I 179 W/m² 13,2 °C 18,6 °C 17,7 km/h (3 Bft)
05.05.2026 18:36 18,6 °C 19,4 °C 15,0 °C 71 % 1006,9 hPa 0,0 l/m² 8,9 km/h (2 Bft) O-SO 102 ° 2 min 0,5 UV-I 188 W/m² 13,2 °C 18,6 °C 16,1 km/h (3 Bft)
05.05.2026 18:38 18,7 °C 19,4 °C 15,0 °C 71 % 1006,8 hPa 0,0 l/m² 3,8 km/h (1 Bft) O-NO 70 ° 2 min 0,5 UV-I 190 W/m² 13,3 °C 18,7 °C 8,0 km/h (2 Bft)
05.05.2026 18:40 18,7 °C 20,0 °C 15,0 °C 71 % 1006,8 hPa 0,0 l/m² 8,3 km/h (2 Bft) NO 48 ° 2 min 0,5 UV-I 190 W/m² 13,3 °C 18,7 °C 12,9 km/h (3 Bft)
05.05.2026 18:42 18,6 °C 20,0 °C 15,0 °C 71 % 1006,8 hPa 0,0 l/m² 12,9 km/h (3 Bft) O-SO 115 ° 2 min 0,5 UV-I 190 W/m² 13,2 °C 18,6 °C 17,7 km/h (3 Bft)
05.05.2026 18:44 18,6 °C 20,0 °C 15,0 °C 71 % 1006,8 hPa 0,0 l/m² 8,4 km/h (2 Bft) NO 48 ° 2 min 0,5 UV-I 188 W/m² 13,2 °C 18,6 °C 12,9 km/h (3 Bft)
05.05.2026 18:46 18,6 °C 20,0 °C 15,0 °C 71 % 1006,8 hPa 0,0 l/m² 7,2 km/h (2 Bft) NO 35 ° 2 min 0,5 UV-I 185 W/m² 13,2 °C 18,6 °C 14,5 km/h (3 Bft)
05.05.2026 18:48 18,6 °C 20,0 °C 15,0 °C 70 % 1006,7 hPa 0,0 l/m² 8,5 km/h (2 Bft) O 92 ° 2 min 0,5 UV-I 181 W/m² 13,0 °C 18,6 °C 14,5 km/h (3 Bft)
05.05.2026 18:50 18,6 °C 20,0 °C 15,0 °C 71 % 1006,8 hPa 0,0 l/m² 9,8 km/h (2 Bft) O 82 ° 2 min 0,5 UV-I 178 W/m² 13,2 °C 18,6 °C 16,1 km/h (3 Bft)
05.05.2026 18:52 18,6 °C 20,0 °C 15,0 °C 71 % 1006,7 hPa 0,0 l/m² 8,8 km/h (2 Bft) N-NO 32 ° 2 min 0,0 UV-I 174 W/m² 13,2 °C 18,6 °C 14,5 km/h (3 Bft)
05.05.2026 18:54 18,5 °C 20,0 °C 15,0 °C 71 % 1006,8 hPa 0,0 l/m² 10,7 km/h (2 Bft) NO 48 ° 2 min 0,0 UV-I 172 W/m² 13,1 °C 18,5 °C 19,3 km/h (3 Bft)
05.05.2026 18:56 18,4 °C 20,0 °C 15,0 °C 71 % 1006,8 hPa 0,0 l/m² 10,4 km/h (2 Bft) O-NO 77 ° 2 min 0,0 UV-I 167 W/m² 13,0 °C 18,4 °C 17,7 km/h (3 Bft)
05.05.2026 18:58 18,4 °C 19,4 °C 15,0 °C 71 % 1006,8 hPa 0,0 l/m² 8,3 km/h (2 Bft) NO 46 ° 2 min 0,0 UV-I 163 W/m² 13,0 °C 18,4 °C 16,1 km/h (3 Bft)
05.05.2026 19:00 18,4 °C 19,4 °C 15,0 °C 72 % 1006,8 hPa 0,0 l/m² 7,4 km/h (2 Bft) O 86 ° 2 min 0,0 UV-I 158 W/m² 13,3 °C 18,4 °C 14,5 km/h (3 Bft)
05.05.2026 19:02 18,4 °C 19,4 °C 15,0 °C 72 % 1006,8 hPa 0,0 l/m² 6,6 km/h (2 Bft) O-NO 72 ° 2 min 0,0 UV-I 155 W/m² 13,3 °C 18,4 °C 14,5 km/h (3 Bft)
05.05.2026 19:04 18,3 °C 19,4 °C 15,0 °C 72 % 1006,7 hPa 0,0 l/m² 5,9 km/h (2 Bft) O-NO 75 ° 2 min 0,0 UV-I 151 W/m² 13,2 °C 18,3 °C 11,3 km/h (2 Bft)
05.05.2026 19:06 18,3 °C 18,9 °C 15,0 °C 72 % 1006,8 hPa 0,0 l/m² 8,4 km/h (2 Bft) NO 38 ° 2 min 0,0 UV-I 149 W/m² 13,2 °C 18,3 °C 11,3 km/h (2 Bft)
05.05.2026 19:08 18,3 °C 18,9 °C 15,0 °C 72 % 1006,8 hPa 0,0 l/m² 7,1 km/h (2 Bft) O 83 ° 2 min 0,0 UV-I 146 W/m² 13,2 °C 18,3 °C 12,9 km/h (3 Bft)
05.05.2026 19:10 18,3 °C 18,9 °C 15,0 °C 72 % 1006,8 hPa 0,0 l/m² 7,4 km/h (2 Bft) O 82 ° 2 min 0,0 UV-I 142 W/m² 13,2 °C 18,3 °C 11,3 km/h (2 Bft)
05.05.2026 19:12 18,2 °C 18,9 °C 15,0 °C 72 % 1006,9 hPa 0,0 l/m² 8,8 km/h (2 Bft) NO 55 ° 2 min 0,0 UV-I 139 W/m² 13,1 °C 18,2 °C 14,5 km/h (3 Bft)
05.05.2026 19:14 18,2 °C 18,9 °C 15,0 °C 72 % 1006,8 hPa 0,0 l/m² 6,7 km/h (2 Bft) O-NO 65 ° 2 min 0,0 UV-I 134 W/m² 13,1 °C 18,2 °C 11,3 km/h (2 Bft)
05.05.2026 19:16 18,2 °C 18,3 °C 15,0 °C 72 % 1006,9 hPa 0,0 l/m² 8,4 km/h (2 Bft) NO 55 ° 2 min 0,0 UV-I 132 W/m² 13,1 °C 18,2 °C 16,1 km/h (3 Bft)
05.05.2026 19:18 18,1 °C 18,3 °C 15,0 °C 72 % 1006,8 hPa 0,0 l/m² 10,6 km/h (2 Bft) N-NO 19 ° 2 min 0,0 UV-I 128 W/m² 13,0 °C 18,1 °C 14,5 km/h (3 Bft)
05.05.2026 19:20 18,1 °C 18,3 °C 15,0 °C 72 % 1006,9 hPa 0,0 l/m² 8,8 km/h (2 Bft) O 84 ° 2 min 0,0 UV-I 116 W/m² 13,0 °C 18,1 °C 14,5 km/h (3 Bft)
05.05.2026 19:22 18,1 °C 18,3 °C 15,0 °C 72 % 1006,8 hPa 0,0 l/m² 8,2 km/h (2 Bft) NO 55 ° 2 min 0,0 UV-I 104 W/m² 13,0 °C 18,1 °C 16,1 km/h (3 Bft)
05.05.2026 19:24 18,1 °C 17,8 °C 15,0 °C 72 % 1006,8 hPa 0,0 l/m² 9,8 km/h (2 Bft) O-NO 72 ° 0 min 0,0 UV-I 91 W/m² 13,0 °C 18,1 °C 17,7 km/h (3 Bft)
05.05.2026 19:26 18,0 °C 17,8 °C 15,0 °C 72 % 1006,8 hPa 0,0 l/m² 10,2 km/h (2 Bft) O 80 ° 0 min 0,0 UV-I 81 W/m² 12,9 °C 18,0 °C 16,1 km/h (3 Bft)
05.05.2026 19:28 17,9 °C 17,2 °C 15,0 °C 73 % 1006,9 hPa 0,0 l/m² 7,6 km/h (2 Bft) NO 46 ° 0 min 0,0 UV-I 76 W/m² 13,0 °C 17,9 °C 11,3 km/h (2 Bft)
05.05.2026 19:30 17,9 °C 17,2 °C 15,0 °C 73 % 1006,9 hPa 0,0 l/m² 9,1 km/h (2 Bft) NO 48 ° 0 min 0,0 UV-I 70 W/m² 13,0 °C 17,9 °C 14,5 km/h (3 Bft)
05.05.2026 19:32 17,9 °C 17,2 °C 15,0 °C 73 % 1006,9 hPa 0,0 l/m² 4,6 km/h (1 Bft) O-NO 72 ° 0 min 0,0 UV-I 70 W/m² 13,0 °C 17,9 °C 9,7 km/h (2 Bft)
05.05.2026 19:34 17,9 °C 17,2 °C 15,0 °C 73 % 1006,9 hPa 0,0 l/m² 5,7 km/h (2 Bft) O 90 ° 0 min 0,0 UV-I 69 W/m² 13,0 °C 17,9 °C 11,3 km/h (2 Bft)
05.05.2026 19:36 17,8 °C 17,2 °C 15,0 °C 73 % 1006,9 hPa 0,0 l/m² 4,1 km/h (1 Bft) O-NO 78 ° 0 min 0,0 UV-I 63 W/m² 12,9 °C 17,8 °C 9,7 km/h (2 Bft)
05.05.2026 19:38 17,8 °C 16,7 °C 15,0 °C 73 % 1006,9 hPa 0,0 l/m² 6,2 km/h (2 Bft) O-NO 77 ° 0 min 0,0 UV-I 60 W/m² 12,9 °C 17,8 °C 9,7 km/h (2 Bft)
05.05.2026 19:40 17,8 °C 16,7 °C 15,0 °C 73 % 1006,9 hPa 0,0 l/m² 8,0 km/h (2 Bft) O 91 ° 0 min 0,0 UV-I 56 W/m² 12,9 °C 17,8 °C 12,9 km/h (3 Bft)
05.05.2026 19:42 17,7 °C 16,7 °C 15,0 °C 73 % 1006,9 hPa 0,0 l/m² 4,6 km/h (1 Bft) N-NO 29 ° 0 min 0,0 UV-I 53 W/m² 12,8 °C 17,7 °C 11,3 km/h (2 Bft)
05.05.2026 19:44 17,7 °C 16,7 °C 15,0 °C 73 % 1006,8 hPa 0,0 l/m² 10,1 km/h (2 Bft) O-NO 60 ° 0 min 0,0 UV-I 51 W/m² 12,8 °C 17,7 °C 16,1 km/h (3 Bft)
05.05.2026 19:46 17,7 °C 16,7 °C 15,0 °C 73 % 1006,8 hPa 0,0 l/m² 8,4 km/h (2 Bft) O-SO 103 ° 0 min 0,0 UV-I 49 W/m² 12,8 °C 17,7 °C 16,1 km/h (3 Bft)
05.05.2026 19:48 17,7 °C 16,7 °C 15,0 °C 73 % 1006,8 hPa 0,0 l/m² 6,9 km/h (2 Bft) O-NO 60 ° 0 min 0,0 UV-I 51 W/m² 12,8 °C 17,7 °C 14,5 km/h (3 Bft)
05.05.2026 19:50 17,7 °C 16,7 °C 15,0 °C 73 % 1006,9 hPa 0,0 l/m² 6,9 km/h (2 Bft) NO 44 ° 0 min 0,0 UV-I 51 W/m² 12,8 °C 17,7 °C 12,9 km/h (3 Bft)
05.05.2026 19:52 17,6 °C 16,7 °C 15,0 °C 74 % 1006,9 hPa 0,0 l/m² 6,9 km/h (2 Bft) O-SO 102 ° 0 min 0,0 UV-I 53 W/m² 12,9 °C 17,6 °C 14,5 km/h (3 Bft)
05.05.2026 19:54 17,6 °C 16,7 °C 15,0 °C 73 % 1006,9 hPa 0,0 l/m² 12,0 km/h (2 Bft) NO 47 ° 0 min 0,0 UV-I 56 W/m² 12,7 °C 17,6 °C 19,3 km/h (3 Bft)
05.05.2026 19:56 17,5 °C 16,7 °C 15,0 °C 74 % 1006,8 hPa 0,0 l/m² 5,6 km/h (2 Bft) NO 55 ° 2 min 0,0 UV-I 56 W/m² 12,8 °C 17,5 °C 11,3 km/h (2 Bft)
05.05.2026 19:58 17,5 °C 16,1 °C 15,0 °C 74 % 1006,9 hPa 0,0 l/m² 7,8 km/h (2 Bft) O 85 ° 2 min 0,0 UV-I 56 W/m² 12,8 °C 17,5 °C 12,9 km/h (3 Bft)
05.05.2026 20:00 17,5 °C 16,1 °C 15,0 °C 74 % 1006,9 hPa 0,0 l/m² 7,0 km/h (2 Bft) NO 55 ° 2 min 0,0 UV-I 56 W/m² 12,8 °C 17,5 °C 9,7 km/h (2 Bft)
05.05.2026 20:02 17,4 °C 16,1 °C 15,0 °C 74 % 1006,9 hPa 0,0 l/m² 4,8 km/h (1 Bft) O-SO 110 ° 2 min 0,0 UV-I 56 W/m² 12,7 °C 17,4 °C 9,7 km/h (2 Bft)
05.05.2026 20:04 17,4 °C 16,1 °C 15,0 °C 74 % 1006,9 hPa 0,0 l/m² 4,8 km/h (1 Bft) O 94 ° 2 min 0,0 UV-I 56 W/m² 12,7 °C 17,4 °C 8,0 km/h (2 Bft)
05.05.2026 20:06 17,4 °C 16,1 °C 15,0 °C 74 % 1007,0 hPa 0,0 l/m² 4,5 km/h (1 Bft) O-NO 73 ° 2 min 0,0 UV-I 69 W/m² 12,7 °C 17,4 °C 6,4 km/h (2 Bft)
05.05.2026 20:08 17,4 °C 16,1 °C 15,0 °C 74 % 1006,9 hPa 0,0 l/m² 9,1 km/h (2 Bft) O 84 ° 2 min 0,0 UV-I 63 W/m² 12,7 °C 17,4 °C 14,5 km/h (3 Bft)
05.05.2026 20:10 17,4 °C 16,1 °C 15,0 °C 74 % 1006,9 hPa 0,0 l/m² 5,4 km/h (2 Bft) O-NO 74 ° 2 min 0,0 UV-I 63 W/m² 12,7 °C 17,4 °C 9,7 km/h (2 Bft)
05.05.2026 20:12 17,3 °C 16,1 °C 15,0 °C 74 % 1006,9 hPa 0,0 l/m² 7,5 km/h (2 Bft) O-NO 76 ° 2 min 0,0 UV-I 63 W/m² 12,6 °C 17,3 °C 11,3 km/h (2 Bft)
05.05.2026 20:14 17,3 °C 16,1 °C 15,0 °C 74 % 1006,9 hPa 0,0 l/m² 3,4 km/h (1 Bft) O-NO 75 ° 2 min 0,0 UV-I 62 W/m² 12,6 °C 17,3 °C 8,0 km/h (2 Bft)
05.05.2026 20:16 17,3 °C 16,1 °C 15,0 °C 74 % 1006,9 hPa 0,0 l/m² 4,5 km/h (1 Bft) O 84 ° 2 min 0,0 UV-I 62 W/m² 12,6 °C 17,3 °C 9,7 km/h (2 Bft)
05.05.2026 20:18 17,2 °C 16,1 °C 15,0 °C 74 % 1006,9 hPa 0,0 l/m² 4,7 km/h (1 Bft) O-SO 104 ° 2 min 0,0 UV-I 56 W/m² 12,5 °C 17,2 °C 8,0 km/h (2 Bft)
05.05.2026 20:20 17,2 °C 16,1 °C 15,0 °C 75 % 1006,9 hPa 0,0 l/m² 3,5 km/h (1 Bft) O 86 ° 2 min 0,0 UV-I 38 W/m² 12,7 °C 17,2 °C 6,4 km/h (2 Bft)
05.05.2026 20:22 17,2 °C 15,6 °C 15,0 °C 75 % 1006,8 hPa 0,0 l/m² 5,4 km/h (2 Bft) O 86 ° 2 min 0,0 UV-I 33 W/m² 12,7 °C 17,2 °C 8,0 km/h (2 Bft)
05.05.2026 20:24 17,2 °C 15,6 °C 15,0 °C 75 % 1006,8 hPa 0,0 l/m² 6,5 km/h (2 Bft) NO 46 ° 2 min 0,0 UV-I 28 W/m² 12,7 °C 17,2 °C 9,7 km/h (2 Bft)
05.05.2026 20:26 17,1 °C 15,6 °C 15,0 °C 75 % 1006,8 hPa 0,0 l/m² 3,2 km/h (1 Bft) O 98 ° 2 min 0,0 UV-I 23 W/m² 12,6 °C 17,1 °C 4,8 km/h (1 Bft)
05.05.2026 20:28 17,1 °C 15,6 °C 15,0 °C 75 % 1006,8 hPa 0,0 l/m² 4,2 km/h (1 Bft) O 86 ° 2 min 0,0 UV-I 18 W/m² 12,6 °C 17,1 °C 6,4 km/h (2 Bft)
05.05.2026 20:30 17,1 °C 15,6 °C 15,0 °C 75 % 1006,8 hPa 0,0 l/m² 5,6 km/h (2 Bft) O 79 ° 0 min 0,0 UV-I 14 W/m² 12,6 °C 17,1 °C 8,0 km/h (2 Bft)
05.05.2026 20:32 17,0 °C 15,6 °C 15,0 °C 75 % 1006,8 hPa 0,0 l/m² 6,5 km/h (2 Bft) O-NO 72 ° 0 min 0,0 UV-I 9 W/m² 12,5 °C 17,0 °C 9,7 km/h (2 Bft)
05.05.2026 20:34 16,9 °C 15,6 °C 15,0 °C 75 % 1006,8 hPa 0,0 l/m² 4,2 km/h (1 Bft) O 82 ° 0 min 0,0 UV-I 4 W/m² 12,4 °C 16,9 °C 6,4 km/h (2 Bft)
05.05.2026 20:36 16,9 °C 15,0 °C 15,0 °C 75 % 1006,7 hPa 0,0 l/m² 4,5 km/h (1 Bft) NO 41 ° 0 min 0,0 UV-I 0 W/m² 12,4 °C 16,9 °C 8,0 km/h (2 Bft)
05.05.2026 20:38 16,9 °C 15,0 °C 15,0 °C 76 % 1006,7 hPa 0,0 l/m² 3,2 km/h (1 Bft) O-NO 78 ° 0 min 0,0 UV-I 0 W/m² 12,6 °C 16,9 °C 6,4 km/h (2 Bft)
05.05.2026 20:40 16,9 °C 15,0 °C 15,0 °C 76 % 1006,7 hPa 0,0 l/m² 2,7 km/h (1 Bft) O 81 ° 0 min 0,0 UV-I 0 W/m² 12,6 °C 16,9 °C 6,4 km/h (2 Bft)
05.05.2026 20:42 16,8 °C 15,0 °C 15,0 °C 76 % 1006,7 hPa 0,0 l/m² 4,9 km/h (1 Bft) O-NO 69 ° 0 min 0,0 UV-I 0 W/m² 12,5 °C 16,8 °C 8,0 km/h (2 Bft)
05.05.2026 20:44 16,8 °C 15,0 °C 15,0 °C 76 % 1006,7 hPa 0,0 l/m² 4,8 km/h (1 Bft) O 100 ° 0 min 0,0 UV-I 0 W/m² 12,5 °C 16,8 °C 8,0 km/h (2 Bft)
05.05.2026 20:46 16,8 °C 15,0 °C 15,0 °C 76 % 1006,7 hPa 0,0 l/m² 3,0 km/h (1 Bft) O 96 ° 0 min 0,0 UV-I 0 W/m² 12,5 °C 16,8 °C 6,4 km/h (2 Bft)
05.05.2026 20:48 16,7 °C 14,4 °C 15,0 °C 76 % 1006,6 hPa 0,0 l/m² 3,8 km/h (1 Bft) O-SO 113 ° 0 min 0,0 UV-I 0 W/m² 12,4 °C 16,7 °C 6,4 km/h (2 Bft)
05.05.2026 20:50 16,7 °C 14,4 °C 15,0 °C 76 % 1006,7 hPa 0,0 l/m² 2,4 km/h (1 Bft) O-SO 112 ° 0 min 0,0 UV-I 0 W/m² 12,4 °C 16,7 °C 4,8 km/h (1 Bft)
05.05.2026 20:52 16,7 °C 14,4 °C 15,0 °C 77 % 1006,7 hPa 0,0 l/m² 2,5 km/h (1 Bft) O-SO 111 ° 0 min 0,0 UV-I 0 W/m² 12,6 °C 16,7 °C 4,8 km/h (1 Bft)
05.05.2026 20:54 16,6 °C 14,4 °C 15,0 °C 77 % 1006,7 hPa 0,0 l/m² 3,0 km/h (1 Bft) O-SO 113 ° 0 min 0,0 UV-I 0 W/m² 12,5 °C 16,6 °C 6,4 km/h (2 Bft)
05.05.2026 20:56 16,6 °C 14,4 °C 15,0 °C 77 % 1006,7 hPa 0,0 l/m² 4,1 km/h (1 Bft) O-SO 107 ° 0 min 0,0 UV-I 0 W/m² 12,5 °C 16,6 °C 6,4 km/h (2 Bft)
05.05.2026 20:58 16,5 °C 14,4 °C 15,0 °C 77 % 1006,7 hPa 0,0 l/m² 4,0 km/h (1 Bft) O-SO 115 ° 0 min 0,0 UV-I 0 W/m² 12,5 °C 16,5 °C 9,7 km/h (2 Bft)
05.05.2026 21:00 16,5 °C 14,4 °C 15,0 °C 77 % 1006,7 hPa 0,0 l/m² 5,1 km/h (1 Bft) O 88 ° 0 min 0,0 UV-I 0 W/m² 12,5 °C 16,5 °C 9,7 km/h (2 Bft)
05.05.2026 21:02 16,5 °C 14,4 °C 15,0 °C 77 % 1006,7 hPa 0,0 l/m² 5,1 km/h (1 Bft) O-SO 108 ° 0 min 0,0 UV-I 0 W/m² 12,5 °C 16,5 °C 9,7 km/h (2 Bft)
05.05.2026 21:04 16,4 °C 14,4 °C 15,0 °C 77 % 1006,7 hPa 0,0 l/m² 5,1 km/h (1 Bft) O-SO 122 ° 0 min 0,0 UV-I 0 W/m² 12,4 °C 16,4 °C 9,7 km/h (2 Bft)
05.05.2026 21:06 16,4 °C 14,4 °C 15,0 °C 77 % 1006,7 hPa 0,0 l/m² 4,5 km/h (1 Bft) SO 129 ° 0 min 0,0 UV-I 0 W/m² 12,4 °C 16,4 °C 8,0 km/h (2 Bft)
05.05.2026 21:08 16,4 °C 14,4 °C 15,0 °C 77 % 1006,7 hPa 0,0 l/m² 5,0 km/h (1 Bft) O-SO 102 ° 0 min 0,0 UV-I 0 W/m² 12,4 °C 16,4 °C 8,0 km/h (2 Bft)
05.05.2026 21:10 16,4 °C 14,4 °C 15,0 °C 77 % 1006,7 hPa 0,0 l/m² 4,9 km/h (1 Bft) SO 140 ° 0 min 0,0 UV-I 0 W/m² 12,4 °C 16,4 °C 8,0 km/h (2 Bft)
05.05.2026 21:12 16,4 °C 14,4 °C 15,0 °C 77 % 1006,7 hPa 0,0 l/m² 4,4 km/h (1 Bft) O-NO 65 ° 0 min 0,0 UV-I 0 W/m² 12,4 °C 16,4 °C 8,0 km/h (2 Bft)
05.05.2026 21:14 16,4 °C 14,4 °C 15,0 °C 77 % 1006,7 hPa 0,0 l/m² 5,8 km/h (2 Bft) O 86 ° 0 min 0,0 UV-I 0 W/m² 12,4 °C 16,4 °C 9,7 km/h (2 Bft)
05.05.2026 21:16 16,4 °C 14,4 °C 14,4 °C 77 % 1006,7 hPa 0,0 l/m² 6,3 km/h (2 Bft) O 90 ° 0 min 0,0 UV-I 0 W/m² 12,4 °C 16,4 °C 9,7 km/h (2 Bft)
05.05.2026 21:18 16,4 °C 14,4 °C 15,0 °C 77 % 1006,6 hPa 0,0 l/m² 7,3 km/h (2 Bft) O 81 ° 0 min 0,0 UV-I 0 W/m² 12,4 °C 16,4 °C 11,3 km/h (2 Bft)
05.05.2026 21:20 16,4 °C 15,0 °C 15,0 °C 77 % 1006,7 hPa 0,0 l/m² 7,7 km/h (2 Bft) O-NO 77 ° 0 min 0,0 UV-I 0 W/m² 12,4 °C 16,4 °C 11,3 km/h (2 Bft)
05.05.2026 21:22 16,4 °C 15,0 °C 15,0 °C 77 % 1006,6 hPa 0,0 l/m² 6,5 km/h (2 Bft) O 96 ° 0 min 0,0 UV-I 0 W/m² 12,4 °C 16,4 °C 9,7 km/h (2 Bft)
05.05.2026 21:24 16,4 °C 15,0 °C 15,0 °C 77 % 1006,6 hPa 0,0 l/m² 4,7 km/h (1 Bft) SO 131 ° 0 min 0,0 UV-I 0 W/m² 12,4 °C 16,4 °C 8,0 km/h (2 Bft)
05.05.2026 21:26 16,4 °C 15,0 °C 14,4 °C 77 % 1006,7 hPa 0,0 l/m² 6,1 km/h (2 Bft) O-NO 69 ° 0 min 0,0 UV-I 0 W/m² 12,4 °C 16,4 °C 11,3 km/h (2 Bft)
05.05.2026 21:28 16,4 °C 15,0 °C 14,4 °C 77 % 1006,7 hPa 0,0 l/m² 6,4 km/h (2 Bft) O 87 ° 0 min 0,0 UV-I 0 W/m² 12,4 °C 16,4 °C 8,0 km/h (2 Bft)
05.05.2026 21:30 16,4 °C 15,0 °C 14,4 °C 77 % 1006,7 hPa 0,0 l/m² 5,5 km/h (2 Bft) O 88 ° 0 min 0,0 UV-I 0 W/m² 12,4 °C 16,4 °C 8,0 km/h (2 Bft)
05.05.2026 21:32 16,3 °C 14,4 °C 15,0 °C 77 % 1006,6 hPa 0,0 l/m² 4,2 km/h (1 Bft) O-NO 65 ° 0 min 0,0 UV-I 0 W/m² 12,3 °C 16,3 °C 8,0 km/h (2 Bft)
05.05.2026 21:34 16,3 °C 14,4 °C 15,0 °C 77 % 1006,6 hPa 0,0 l/m² 7,6 km/h (2 Bft) O 92 ° 0 min 0,0 UV-I 0 W/m² 12,3 °C 16,3 °C 9,7 km/h (2 Bft)
05.05.2026 21:36 16,3 °C 14,4 °C 15,0 °C 77 % 1006,7 hPa 0,0 l/m² 6,6 km/h (2 Bft) O-NO 71 ° 0 min 0,0 UV-I 0 W/m² 12,3 °C 16,3 °C 9,7 km/h (2 Bft)
05.05.2026 21:38 16,3 °C 15,0 °C 14,4 °C 77 % 1006,7 hPa 0,0 l/m² 5,8 km/h (2 Bft) O 88 ° 0 min 0,0 UV-I 0 W/m² 12,3 °C 16,3 °C 11,3 km/h (2 Bft)
05.05.2026 21:40 16,3 °C 14,4 °C 15,0 °C 77 % 1006,6 hPa 0,0 l/m² 6,0 km/h (2 Bft) O-NO 65 ° 0 min 0,0 UV-I 0 W/m² 12,3 °C 16,3 °C 12,9 km/h (3 Bft)
05.05.2026 21:42 16,3 °C 15,0 °C 15,0 °C 77 % 1006,6 hPa 0,0 l/m² 7,4 km/h (2 Bft) O 94 ° 0 min 0,0 UV-I 0 W/m² 12,3 °C 16,3 °C 11,3 km/h (2 Bft)
05.05.2026 21:44 16,3 °C 15,0 °C 14,4 °C 77 % 1006,6 hPa 0,0 l/m² 6,0 km/h (2 Bft) O 88 ° 0 min 0,0 UV-I 0 W/m² 12,3 °C 16,3 °C 9,7 km/h (2 Bft)
05.05.2026 21:46 16,2 °C 14,4 °C 14,4 °C 78 % 1006,6 hPa 0,0 l/m² 6,2 km/h (2 Bft) O-NO 60 ° 0 min 0,0 UV-I 0 W/m² 12,4 °C 16,2 °C 9,7 km/h (2 Bft)
05.05.2026 21:48 16,2 °C 14,4 °C 14,4 °C 78 % 1006,6 hPa 0,0 l/m² 4,5 km/h (1 Bft) O 88 ° 0 min 0,0 UV-I 0 W/m² 12,4 °C 16,2 °C 6,4 km/h (2 Bft)
05.05.2026 21:50 16,2 °C 14,4 °C 14,4 °C 78 % 1006,6 hPa 0,0 l/m² 2,5 km/h (1 Bft) O-SO 111 ° 0 min 0,0 UV-I 0 W/m² 12,4 °C 16,2 °C 6,4 km/h (2 Bft)
05.05.2026 21:52 16,2 °C 14,4 °C 14,4 °C 78 % 1006,6 hPa 0,0 l/m² 2,7 km/h (1 Bft) O 96 ° 0 min 0,0 UV-I 0 W/m² 12,4 °C 16,2 °C 6,4 km/h (2 Bft)
05.05.2026 21:54 16,1 °C 13,9 °C 15,0 °C 78 % 1006,6 hPa 0,0 l/m² 4,1 km/h (1 Bft) O 97 ° 0 min 0,0 UV-I 0 W/m² 12,3 °C 16,1 °C 6,4 km/h (2 Bft)
05.05.2026 21:56 16,1 °C 13,9 °C 14,4 °C 79 % 1006,6 hPa 0,0 l/m² 4,1 km/h (1 Bft) O-NO 71 ° 0 min 0,0 UV-I 0 W/m² 12,5 °C 16,1 °C 9,7 km/h (2 Bft)
05.05.2026 21:58 16,1 °C 13,9 °C 15,0 °C 79 % 1006,6 hPa 0,0 l/m² 4,0 km/h (1 Bft) O-SO 102 ° 0 min 0,0 UV-I 0 W/m² 12,5 °C 16,1 °C 8,0 km/h (2 Bft)
05.05.2026 22:00 16,0 °C 13,9 °C 14,4 °C 79 % 1006,6 hPa 0,0 l/m² 6,1 km/h (2 Bft) O 80 ° 0 min 0,0 UV-I 0 W/m² 12,4 °C 16,0 °C 11,3 km/h (2 Bft)
05.05.2026 22:02 16,0 °C 13,9 °C 15,0 °C 79 % 1006,6 hPa 0,0 l/m² 6,4 km/h (2 Bft) O 90 ° 0 min 0,0 UV-I 0 W/m² 12,4 °C 16,0 °C 12,9 km/h (3 Bft)
05.05.2026 22:04 15,9 °C 13,9 °C 15,0 °C 79 % 1006,6 hPa 0,0 l/m² 7,4 km/h (2 Bft) O 96 ° 0 min 0,0 UV-I 0 W/m² 12,3 °C 15,9 °C 14,5 km/h (3 Bft)
05.05.2026 22:06 15,9 °C 13,9 °C 14,4 °C 79 % 1006,6 hPa 0,0 l/m² 5,0 km/h (1 Bft) O 83 ° 0 min 0,0 UV-I 0 W/m² 12,3 °C 15,9 °C 8,0 km/h (2 Bft)
05.05.2026 22:08 15,9 °C 13,9 °C 14,4 °C 80 % 1006,5 hPa 0,0 l/m² 7,6 km/h (2 Bft) O 88 ° 0 min 0,0 UV-I 0 W/m² 12,5 °C 15,9 °C 11,3 km/h (2 Bft)
05.05.2026 22:10 15,9 °C 13,9 °C 14,4 °C 80 % 1006,4 hPa 0,0 l/m² 6,9 km/h (2 Bft) O-NO 77 ° 0 min 0,0 UV-I 0 W/m² 12,5 °C 15,9 °C 11,3 km/h (2 Bft)
05.05.2026 22:12 15,9 °C 13,9 °C 14,4 °C 80 % 1006,4 hPa 0,0 l/m² 9,3 km/h (2 Bft) O-NO 75 ° 0 min 0,0 UV-I 0 W/m² 12,5 °C 15,9 °C 12,9 km/h (3 Bft)
05.05.2026 22:14 15,8 °C 14,4 °C 14,4 °C 80 % 1006,4 hPa 0,0 l/m² 8,1 km/h (2 Bft) O-NO 72 ° 0 min 0,0 UV-I 0 W/m² 12,4 °C 15,8 °C 11,3 km/h (2 Bft)
05.05.2026 22:16 15,8 °C 13,9 °C 14,4 °C 80 % 1006,5 hPa 0,0 l/m² 9,3 km/h (2 Bft) NO 55 ° 0 min 0,0 UV-I 0 W/m² 12,4 °C 15,8 °C 12,9 km/h (3 Bft)
05.05.2026 22:18 15,8 °C 13,9 °C 14,4 °C 80 % 1006,4 hPa 0,0 l/m² 9,6 km/h (2 Bft) O 94 ° 0 min 0,0 UV-I 0 W/m² 12,4 °C 15,8 °C 14,5 km/h (3 Bft)
05.05.2026 22:20 15,8 °C 13,9 °C 14,4 °C 80 % 1006,4 hPa 0,0 l/m² 8,1 km/h (2 Bft) O 88 ° 0 min 0,0 UV-I 0 W/m² 12,4 °C 15,8 °C 12,9 km/h (3 Bft)
05.05.2026 22:22 15,7 °C 13,9 °C 14,4 °C 80 % 1006,3 hPa 0,0 l/m² 5,5 km/h (2 Bft) O-SO 104 ° 0 min 0,0 UV-I 0 W/m² 12,3 °C 15,7 °C 9,7 km/h (2 Bft)
05.05.2026 22:24 15,7 °C 13,9 °C 14,4 °C 80 % 1006,3 hPa 0,0 l/m² 7,8 km/h (2 Bft) O 87 ° 0 min 0,0 UV-I 0 W/m² 12,3 °C 15,7 °C 12,9 km/h (3 Bft)
05.05.2026 22:26 15,7 °C 13,9 °C 14,4 °C 81 % 1006,3 hPa 0,0 l/m² 8,6 km/h (2 Bft) O-SO 103 ° 0 min 0,0 UV-I 0 W/m² 12,4 °C 15,7 °C 12,9 km/h (3 Bft)
05.05.2026 22:28 15,6 °C 13,9 °C 14,4 °C 81 % 1006,4 hPa 0,0 l/m² 8,2 km/h (2 Bft) O-SO 109 ° 0 min 0,0 UV-I 0 W/m² 12,3 °C 15,6 °C 14,5 km/h (3 Bft)
05.05.2026 22:30 15,6 °C 13,9 °C 14,4 °C 81 % 1006,4 hPa 0,0 l/m² 5,4 km/h (2 Bft) O-NO 77 ° 0 min 0,0 UV-I 0 W/m² 12,3 °C 15,6 °C 9,7 km/h (2 Bft)
05.05.2026 22:32 15,5 °C 13,9 °C 14,4 °C 81 % 1006,5 hPa 0,0 l/m² 8,3 km/h (2 Bft) O-SO 111 ° 0 min 0,0 UV-I 0 W/m² 12,3 °C 15,5 °C 12,9 km/h (3 Bft)
05.05.2026 22:34 15,5 °C 13,9 °C 14,4 °C 81 % 1006,5 hPa 0,0 l/m² 10,3 km/h (2 Bft) O 82 ° 0 min 0,0 UV-I 0 W/m² 12,3 °C 15,5 °C 14,5 km/h (3 Bft)
05.05.2026 22:36 15,4 °C 13,9 °C 15,0 °C 81 % 1006,4 hPa 0,0 l/m² 8,6 km/h (2 Bft) O-NO 65 ° 0 min 0,0 UV-I 0 W/m² 12,2 °C 15,4 °C 16,1 km/h (3 Bft)
05.05.2026 22:38 15,4 °C 13,9 °C 14,4 °C 81 % 1006,4 hPa 0,0 l/m² 7,0 km/h (2 Bft) O 88 ° 0 min 0,0 UV-I 0 W/m² 12,2 °C 15,4 °C 19,3 km/h (3 Bft)
05.05.2026 22:40 15,3 °C 13,9 °C 14,4 °C 82 % 1006,4 hPa 0,0 l/m² 9,7 km/h (2 Bft) O-SO 103 ° 0 min 0,0 UV-I 0 W/m² 12,2 °C 15,3 °C 17,7 km/h (3 Bft)
05.05.2026 22:42 15,3 °C 13,9 °C 14,4 °C 82 % 1006,5 hPa 0,0 l/m² 5,7 km/h (2 Bft) O 98 ° 0 min 0,0 UV-I 0 W/m² 12,2 °C 15,3 °C 8,0 km/h (2 Bft)
05.05.2026 22:44 15,3 °C 13,9 °C 14,4 °C 82 % 1006,5 hPa 0,0 l/m² 7,3 km/h (2 Bft) O 99 ° 0 min 0,0 UV-I 0 W/m² 12,2 °C 15,3 °C 11,3 km/h (2 Bft)
05.05.2026 22:46 15,3 °C 13,9 °C 14,4 °C 82 % 1006,5 hPa 0,0 l/m² 7,9 km/h (2 Bft) O-SO 103 ° 0 min 0,0 UV-I 0 W/m² 12,2 °C 15,3 °C 16,1 km/h (3 Bft)
05.05.2026 22:48 15,3 °C 13,9 °C 14,4 °C 82 % 1006,6 hPa 0,0 l/m² 7,6 km/h (2 Bft) S-SO 152 ° 0 min 0,0 UV-I 0 W/m² 12,2 °C 15,3 °C 11,3 km/h (2 Bft)
05.05.2026 22:50 15,2 °C 13,9 °C 14,4 °C 82 % 1006,6 hPa 0,0 l/m² 6,1 km/h (2 Bft) NO 44 ° 0 min 0,0 UV-I 0 W/m² 12,1 °C 15,2 °C 9,7 km/h (2 Bft)
05.05.2026 22:52 15,2 °C 13,9 °C 14,4 °C 82 % 1006,6 hPa 0,0 l/m² 7,7 km/h (2 Bft) O 81 ° 0 min 0,0 UV-I 0 W/m² 12,1 °C 15,2 °C 14,5 km/h (3 Bft)
05.05.2026 22:54 15,2 °C 13,9 °C 14,4 °C 82 % 1006,7 hPa 0,0 l/m² 7,9 km/h (2 Bft) O 90 ° 0 min 0,0 UV-I 0 W/m² 12,1 °C 15,2 °C 11,3 km/h (2 Bft)
05.05.2026 22:56 15,1 °C 13,3 °C 14,4 °C 82 % 1006,6 hPa 0,0 l/m² 7,8 km/h (2 Bft) O 84 ° 0 min 0,0 UV-I 0 W/m² 12,0 °C 15,1 °C 12,9 km/h (3 Bft)
05.05.2026 22:58 15,1 °C 13,3 °C 14,4 °C 82 % 1006,6 hPa 0,0 l/m² 6,9 km/h (2 Bft) O-NO 71 ° 0 min 0,0 UV-I 0 W/m² 12,0 °C 15,1 °C 12,9 km/h (3 Bft)
05.05.2026 23:00 15,1 °C 13,3 °C 14,4 °C 82 % 1006,7 hPa 0,0 l/m² 8,6 km/h (2 Bft) O 90 ° 0 min 0,0 UV-I 0 W/m² 12,0 °C 15,1 °C 14,5 km/h (3 Bft)
05.05.2026 23:02 15,1 °C 13,3 °C 14,4 °C 82 % 1006,7 hPa 0,0 l/m² 6,5 km/h (2 Bft) O 87 ° 0 min 0,0 UV-I 0 W/m² 12,0 °C 15,1 °C 11,3 km/h (2 Bft)
05.05.2026 23:04 15,0 °C 13,3 °C 14,4 °C 83 % 1006,7 hPa 0,0 l/m² 4,4 km/h (1 Bft) O-SO 109 ° 0 min 0,0 UV-I 0 W/m² 12,1 °C 15,0 °C 9,7 km/h (2 Bft)
05.05.2026 23:06 15,0 °C 13,3 °C 14,4 °C 83 % 1006,7 hPa 0,0 l/m² 6,6 km/h (2 Bft) O-SO 113 ° 0 min 0,0 UV-I 0 W/m² 12,1 °C 15,0 °C 9,7 km/h (2 Bft)
05.05.2026 23:08 14,9 °C 13,3 °C 14,4 °C 83 % 1006,7 hPa 0,0 l/m² 8,2 km/h (2 Bft) O 101 ° 0 min 0,0 UV-I 0 W/m² 12,0 °C 14,9 °C 16,1 km/h (3 Bft)
05.05.2026 23:10 14,9 °C 13,3 °C 14,4 °C 83 % 1006,7 hPa 0,0 l/m² 9,9 km/h (2 Bft) O 79 ° 0 min 0,0 UV-I 0 W/m² 12,0 °C 14,9 °C 16,1 km/h (3 Bft)
05.05.2026 23:12 14,9 °C 13,3 °C 14,4 °C 83 % 1006,7 hPa 0,0 l/m² 8,2 km/h (2 Bft) O 92 ° 0 min 0,0 UV-I 0 W/m² 12,0 °C 14,9 °C 12,9 km/h (3 Bft)
05.05.2026 23:14 14,8 °C 13,3 °C 14,4 °C 83 % 1006,7 hPa 0,0 l/m² 7,7 km/h (2 Bft) O 86 ° 0 min 0,0 UV-I 0 W/m² 11,9 °C 14,8 °C 9,7 km/h (2 Bft)
05.05.2026 23:16 14,8 °C 13,3 °C 14,4 °C 83 % 1006,8 hPa 0,0 l/m² 7,3 km/h (2 Bft) O 88 ° 0 min 0,0 UV-I 0 W/m² 11,9 °C 14,8 °C 14,5 km/h (3 Bft)
05.05.2026 23:18 14,8 °C 13,3 °C 14,4 °C 83 % 1006,8 hPa 0,0 l/m² 8,3 km/h (2 Bft) O-SO 102 ° 0 min 0,0 UV-I 0 W/m² 11,9 °C 14,8 °C 12,9 km/h (3 Bft)
05.05.2026 23:20 14,7 °C 13,3 °C 14,4 °C 84 % 1006,8 hPa 0,0 l/m² 7,3 km/h (2 Bft) O-SO 115 ° 0 min 0,0 UV-I 0 W/m² 12,0 °C 14,7 °C 11,3 km/h (2 Bft)
05.05.2026 23:22 14,7 °C 13,3 °C 14,4 °C 84 % 1006,8 hPa 0,0 l/m² 5,5 km/h (2 Bft) O 82 ° 0 min 0,0 UV-I 0 W/m² 12,0 °C 14,7 °C 12,9 km/h (3 Bft)
05.05.2026 23:24 14,7 °C 13,3 °C 14,4 °C 84 % 1006,8 hPa 0,0 l/m² 8,1 km/h (2 Bft) O-SO 112 ° 0 min 0,0 UV-I 0 W/m² 12,0 °C 14,7 °C 12,9 km/h (3 Bft)
05.05.2026 23:26 14,6 °C 13,3 °C 14,4 °C 84 % 1006,8 hPa 0,0 l/m² 4,9 km/h (1 Bft) O-SO 102 ° 0 min 0,0 UV-I 0 W/m² 11,9 °C 14,6 °C 9,7 km/h (2 Bft)
05.05.2026 23:28 14,6 °C 13,3 °C 14,4 °C 84 % 1006,8 hPa 0,2 l/m² 5,9 km/h (2 Bft) O-SO 115 ° 0 min 0,0 UV-I 0 W/m² 11,9 °C 14,6 °C 12,9 km/h (3 Bft)
05.05.2026 23:30 14,6 °C 13,3 °C 14,4 °C 84 % 1006,8 hPa 0,0 l/m² 6,2 km/h (2 Bft) O 90 ° 0 min 0,0 UV-I 0 W/m² 11,9 °C 14,6 °C 12,9 km/h (3 Bft)
05.05.2026 23:32 14,6 °C 13,3 °C 14,4 °C 84 % 1006,8 hPa 0,0 l/m² 8,3 km/h (2 Bft) O 93 ° 0 min 0,0 UV-I 0 W/m² 11,9 °C 14,6 °C 16,1 km/h (3 Bft)
05.05.2026 23:34 14,5 °C 13,3 °C 14,4 °C 84 % 1006,9 hPa 0,0 l/m² 7,7 km/h (2 Bft) SO 132 ° 0 min 0,0 UV-I 0 W/m² 11,8 °C 14,5 °C 12,9 km/h (3 Bft)
05.05.2026 23:36 14,4 °C 13,3 °C 14,4 °C 85 % 1006,9 hPa 0,0 l/m² 5,2 km/h (1 Bft) O 86 ° 0 min 0,0 UV-I 0 W/m² 11,9 °C 14,4 °C 11,3 km/h (2 Bft)
05.05.2026 23:38 14,4 °C 13,3 °C 14,4 °C 85 % 1006,9 hPa 0,0 l/m² 4,0 km/h (1 Bft) O 90 ° 0 min 0,0 UV-I 0 W/m² 11,9 °C 14,4 °C 8,0 km/h (2 Bft)
05.05.2026 23:40 14,4 °C 13,3 °C 14,4 °C 85 % 1006,9 hPa 0,0 l/m² 7,7 km/h (2 Bft) O 96 ° 0 min 0,0 UV-I 0 W/m² 11,9 °C 14,4 °C 14,5 km/h (3 Bft)
05.05.2026 23:42 14,3 °C 13,3 °C 14,4 °C 85 % 1007,0 hPa 0,0 l/m² 8,1 km/h (2 Bft) O-SO 122 ° 0 min 0,0 UV-I 0 W/m² 11,8 °C 14,3 °C 12,9 km/h (3 Bft)
05.05.2026 23:44 14,3 °C 13,3 °C 14,4 °C 85 % 1007,0 hPa 0,0 l/m² 6,0 km/h (2 Bft) O 100 ° 0 min 0,0 UV-I 0 W/m² 11,8 °C 14,3 °C 11,3 km/h (2 Bft)
05.05.2026 23:46 14,3 °C 13,3 °C 14,4 °C 85 % 1006,9 hPa 0,0 l/m² 6,1 km/h (2 Bft) O-SO 113 ° 0 min 0,0 UV-I 0 W/m² 11,8 °C 14,3 °C 9,7 km/h (2 Bft)
05.05.2026 23:48 14,3 °C 13,3 °C 14,4 °C 85 % 1006,9 hPa 0,0 l/m² 4,3 km/h (1 Bft) O 94 ° 0 min 0,0 UV-I 0 W/m² 11,8 °C 14,3 °C 8,0 km/h (2 Bft)
05.05.2026 23:50 14,2 °C 13,3 °C 14,4 °C 85 % 1006,9 hPa 0,0 l/m² 3,8 km/h (1 Bft) O 90 ° 0 min 0,0 UV-I 0 W/m² 11,7 °C 14,2 °C 6,4 km/h (2 Bft)
05.05.2026 23:52 14,2 °C 13,3 °C 14,4 °C 86 % 1006,8 hPa 0,0 l/m² 4,7 km/h (1 Bft) O-SO 108 ° 0 min 0,0 UV-I 0 W/m² 11,9 °C 14,2 °C 8,0 km/h (2 Bft)
05.05.2026 23:54 14,2 °C 13,3 °C 14,4 °C 86 % 1006,8 hPa 0,0 l/m² 6,2 km/h (2 Bft) SO 125 ° 0 min 0,0 UV-I 0 W/m² 11,9 °C 14,2 °C 12,9 km/h (3 Bft)
05.05.2026 23:56 14,2 °C 13,3 °C 14,4 °C 86 % 1006,8 hPa 0,2 l/m² 4,8 km/h (1 Bft) O 96 ° 0 min 0,0 UV-I 0 W/m² 11,9 °C 14,2 °C 12,9 km/h (3 Bft)
05.05.2026 23:58 14,2 °C 13,3 °C 14,4 °C 86 % 1006,8 hPa 0,0 l/m² 4,7 km/h (1 Bft) O-SO 115 ° 0 min 0,0 UV-I 0 W/m² 11,9 °C 14,2 °C 8,0 km/h (2 Bft)
_ Min-Zeit 07:10 06:14 10:52 15:14 22:26 - 13:00 - - - - - 17:26 07:10 07:14
Minimum _ 13,6 °C 12,2 °C 13,3 °C 56 % 1006,3 hPa - 0,0 km/h (0 Bft) - - - - - 11,4 °C 13,6 °C 0,0 km/h (0 Bft)
_ Max-Zeit 16:38 16:32 22:36 09:54 00:02 23:56 18:06 - - 14:03 14:24 14:16 12:34 16:38 17:56
Maximum _ 21,6 °C 33,9 °C 15,0 °C 90 % 1012,4 hPa 0,2 l/m² 13,9 km/h
NO (3 Bft)
- - 3 min 3,8 UV-I 951 W/m² 14,2 °C 21,5 °C 22,5 km/h
O (4 Bft)
Durchschnitt _ 16,4 °C 17,4 °C 14,2 °C 79 % 1009,1 hPa #1,8 l/m² 4,4 km/h (1 Bft) N-NW - #5:10 h 1,6 UV-I 253 W/m² 12,5 °C 16,4 °C 7,8 km/h (2 Bft)